[[{"header":{"parameterUnit":"m.s-1","parameterCategory":1,"la1":30.6,"la2":29.2853,"lo1":-89.7004,"lo2":-87.6739,"dy":0.0162,"dx":0.0183,"nx":112,"ny":82,"refTime":"2024-09-08T00:00:00:Z","depth":0,"parameterNumber":2,"parameterNumberName":"U-component_of_WINDS"},"data":[0.0,0.0,0.0,0.0,0.0,0.0,0.0,0.0,0.0,0.0,0.0,0.0,0.0,0.0,0.0,0.0,0.0,0.0,0.0,0.0,0.0,0.0,0.0,0.0,0.0,0.0,0.0,0.0,0.0,0.0,0.0,0.0,0.0,0.0,0.0,0.0,0.0,0.0,0.0,0.0,0.0,0.0,0.0,0.0,0.0,0.0,0.0,0.0,0.0,0.0,0.0,0.0,0.0,0.0,0.0,0.0,0.0,0.0,0.0,0.0,0.0,0.0,0.0,0.0,0.0,0.0,0.0,0.0,0.0,0.0,0.0,0.0,0.0,0.0,0.0,0.0,0.0,0.0,0.0,0.0,0.0,0.0,0.0,0.0,0.0,0.0,0.0,0.0,0.0,0.0,2.0305,2.1554,2.1786,2.1386,2.0084,1.8928,1.8078,1.7575,0.0,0.0,0.0,0.0,0.0,0.0,0.0,0.0,0.0,0.0,0.0,0.0,0.0,0.0,0.0,0.0,0.0,0.0,0.0,0.0,0.0,0.0,0.0,0.0,0.0,0.0,0.0,0.0,0.0,0.0,0.0,0.0,0.0,0.0,0.0,0.0,0.0,0.0,0.0,0.0,0.0,0.0,0.0,0.0,0.0,0.0,0.0,0.0,0.0,0.0,0.0,0.0,0.0,0.0,0.0,0.0,0.0,0.0,0.0,0.0,0.0,0.0,0.0,0.0,0.0,0.0,0.0,0.0,0.0,0.0,0.0,0.0,0.0,0.0,0.0,0.0,0.0,0.0,0.0,0.0,0.0,0.0,0.0,0.0,0.0,0.0,0.0,0.0,0.0,0.0,0.0,0.0,0.0,0.0,0.0,0.0,0.0,0.0,0.0,0.0,0.0,0.0,0.0,0.0,2.0624,2.2675,2.2319,2.1678,2.1129,1.9387,1.8291,1.8218,0.0,0.0,0.0,0.0,0.0,0.0,0.0,0.0,0.0,0.0,0.0,0.0,0.0,0.0,0.0,0.0,0.0,0.0,0.0,0.0,0.0,0.0,0.0,0.0,0.0,0.0,0.0,0.0,0.0,0.0,0.0,0.0,0.0,0.0,0.0,0.0,0.0,0.0,0.0,0.0,0.0,0.0,0.0,0.0,0.0,0.0,0.0,0.0,0.0,0.0,0.0,0.0,0.0,0.0,0.0,0.0,0.0,0.0,0.0,0.0,0.0,0.0,0.0,0.0,0.0,0.0,0.0,0.0,0.0,0.0,0.0,0.0,0.0,0.0,0.0,0.0,0.0,0.0,0.0,0.0,0.0,0.0,0.0,0.0,0.0,0.0,0.0,0.0,0.0,0.0,0.0,0.0,0.0,0.0,0.0,0.0,0.0,0.0,0.0,0.0,0.0,0.0,0.0,2.0855,2.2098,2.3752,2.3465,2.2816,2.1845,2.0014,1.8784,1.8352,1.653,0.0,0.0,0.0,0.0,0.0,0.0,0.0,0.0,0.0,0.0,0.0,0.0,0.0,0.0,0.0,0.0,0.0,0.0,0.0,0.0,0.0,0.0,0.0,0.0,0.0,0.0,0.0,0.0,0.0,0.0,0.0,0.0,0.0,0.0,0.0,0.0,0.0,0.0,0.0,0.0,0.0,0.0,0.0,0.0,0.0,0.0,0.0,0.0,0.0,0.0,0.0,0.0,0.0,0.0,0.0,0.0,0.0,0.0,0.0,0.0,0.0,0.0,0.0,0.0,0.0,0.0,0.0,0.0,0.0,0.0,0.0,0.0,0.0,0.0,0.0,0.0,0.0,0.0,0.0,0.0,0.0,0.0,0.0,0.0,0.0,0.0,0.0,0.0,0.0,0.0,0.0,0.0,0.0,0.0,0.0,0.0,0.0,0.0,0.0,0.0,0.0,0.0,2.2764,2.3554,2.4511,2.4303,2.3627,2.2224,2.0377,1.903,1.8364,1.6357,0.0,0.0,0.0,0.0,0.0,0.0,0.0,0.0,0.0,0.0,0.0,0.0,0.0,0.0,0.0,0.0,0.0,0.0,0.0,0.0,0.0,0.0,0.0,0.0,0.0,0.0,0.0,0.0,0.0,0.0,0.0,0.0,0.0,0.0,0.0,0.0,0.0,0.0,0.0,0.0,0.0,0.0,0.0,0.0,0.0,0.0,0.0,0.0,0.0,0.0,0.0,0.0,0.0,0.0,0.0,0.0,0.0,0.0,0.0,0.0,0.0,0.0,0.0,0.0,0.0,0.0,0.0,0.0,0.0,0.0,0.0,0.0,0.0,0.0,0.0,0.0,0.0,0.0,0.0,0.0,0.0,0.0,0.0,0.0,0.0,0.0,0.0,0.0,0.0,0.0,0.0,0.0,0.0,0.0,0.0,0.0,0.0,0.0,0.0,0.0,0.0,0.0,2.3034,2.4249,2.4801,2.4188,2.3319,2.2212,2.001,1.8584,1.8289,1.6042,0.0,0.0,0.0,0.0,0.0,0.0,0.0,0.0,0.0,0.0,0.0,0.0,0.0,0.0,0.0,0.0,0.0,0.0,0.0,0.0,0.0,0.0,0.0,0.0,0.0,0.0,0.0,0.0,0.0,0.0,0.0,0.0,0.0,0.0,0.0,0.0,0.0,0.0,0.0,0.0,0.0,0.0,0.0,0.0,0.0,0.0,0.0,0.0,0.0,0.0,0.0,0.0,0.0,0.0,0.0,0.0,0.0,0.0,0.0,0.0,0.0,0.0,0.0,0.0,0.0,0.0,0.0,0.0,0.0,0.0,0.0,0.0,0.0,0.0,0.0,0.0,0.0,0.0,0.0,0.0,0.0,0.0,0.0,0.0,0.0,0.0,0.0,0.0,0.0,0.0,0.0,0.0,0.0,0.0,0.0,0.0,0.0,0.0,0.0,0.0,0.0,0.0,2.2445,2.3337,2.3953,2.3606,2.2704,2.1142,1.9747,1.861,1.7679,0.0,0.0,0.0,0.0,0.0,0.0,0.0,0.0,0.0,0.0,0.0,0.0,0.0,0.0,0.0,0.0,0.0,0.0,0.0,0.0,0.0,0.0,0.0,0.0,0.0,0.0,0.0,0.0,0.0,0.0,0.0,0.0,0.0,0.0,0.0,0.0,0.0,0.0,0.0,0.0,0.0,0.0,0.0,0.0,0.0,0.0,0.0,0.0,0.0,0.0,0.0,0.0,0.0,0.0,0.0,0.0,0.0,0.0,0.0,0.0,0.0,0.0,0.0,0.0,0.0,0.0,0.0,0.0,0.0,0.0,0.0,0.0,0.0,0.0,0.0,0.0,0.0,0.0,0.0,0.0,0.0,0.0,0.0,0.0,0.0,0.0,0.0,0.0,0.0,0.0,0.0,0.0,0.0,0.0,0.0,0.0,0.0,0.0,0.0,0.0,0.0,0.0,2.0042,2.085,2.1365,2.2096,2.1882,2.1068,1.9614,1.8617,1.7602,1.6451,0.0,0.0,0.0,0.0,0.0,0.0,0.0,0.0,0.0,0.0,0.0,0.0,0.0,0.0,0.0,0.0,0.0,0.0,0.0,0.0,0.0,0.0,0.0,0.0,0.0,0.0,0.0,0.0,0.0,0.0,0.0,0.0,0.0,0.0,0.0,0.0,0.0,0.0,0.0,0.0,0.0,0.0,0.0,0.0,0.0,0.0,0.0,0.0,0.0,0.0,0.0,0.0,0.0,0.0,0.0,0.0,0.0,0.0,0.0,0.0,0.0,0.0,0.0,0.0,0.0,0.0,0.0,0.0,0.0,0.0,0.0,0.0,0.0,0.0,0.0,0.0,0.0,0.0,0.0,0.0,0.0,0.0,0.0,0.0,0.0,0.0,0.0,0.0,0.0,0.0,0.0,0.0,0.0,0.0,0.0,0.0,0.0,0.0,0.0,0.0,0.0,0.0,1.7984,1.8237,1.8465,1.9161,1.8946,1.8368,1.7742,1.6462,1.5338,0.0,0.0,0.0,0.0,0.0,0.0,0.0,0.0,0.0,0.0,0.0,0.0,0.0,0.0,0.0,0.0,0.0,0.0,0.0,0.0,0.0,0.0,0.0,0.0,0.0,0.0,0.0,0.0,0.0,0.0,0.0,0.0,0.0,0.0,0.0,0.0,0.0,0.0,0.0,0.0,0.0,0.0,0.0,0.0,0.0,0.0,0.0,0.0,0.0,0.0,0.0,0.0,0.0,0.0,0.0,0.0,0.0,0.0,0.0,0.0,0.0,0.0,0.0,0.0,0.0,0.0,0.0,0.0,0.0,0.0,0.0,0.0,0.0,0.0,0.0,0.0,0.0,0.0,0.0,0.0,0.0,0.0,0.0,0.0,0.0,0.0,0.0,0.0,0.0,0.0,0.0,0.0,0.0,0.0,0.0,0.0,0.0,0.0,0.0,0.0,0.0,0.0,0.0,1.7663,1.7882,1.7844,1.759,1.7687,1.7212,1.5714,1.5469,1.4911,1.3637,0.0,0.0,0.0,0.0,0.0,0.0,0.0,0.0,0.0,0.0,0.0,0.0,0.0,0.0,0.0,0.0,0.0,0.0,0.0,0.0,0.0,0.0,0.0,0.0,0.0,0.0,0.0,0.0,0.0,0.0,0.0,0.0,0.0,0.0,0.0,0.0,0.0,0.0,0.0,0.0,0.0,0.0,0.0,0.0,0.0,0.0,0.0,0.0,0.0,0.0,0.0,0.0,0.0,0.0,0.0,0.0,0.0,0.0,0.0,0.0,0.0,0.0,0.0,0.0,0.0,0.0,0.0,0.0,0.0,0.0,0.0,0.0,0.0,0.0,0.0,0.0,0.0,0.0,0.0,0.0,0.0,0.0,0.0,0.0,0.0,0.0,0.0,0.0,0.0,0.0,0.0,0.0,0.0,0.0,0.0,0.0,0.0,0.0,0.0,0.0,0.0,0.0,1.5547,1.5711,1.5638,1.5437,1.5619,1.5318,1.4184,1.422,1.3745,1.2474,0.0,0.0,0.0,0.0,0.0,0.0,0.0,0.0,0.0,0.0,0.0,0.0,0.0,0.0,0.0,0.0,0.0,0.0,0.0,0.0,0.0,0.0,0.0,0.0,0.0,0.0,0.0,0.0,0.0,0.0,0.0,0.0,0.0,0.0,0.0,0.0,0.0,0.0,0.0,0.0,0.0,0.0,0.0,0.0,0.0,0.0,0.0,0.0,0.0,0.0,0.0,0.0,0.0,0.0,0.0,0.0,0.0,0.0,0.0,0.0,0.0,0.0,0.0,0.0,0.0,0.0,0.0,0.0,0.0,0.0,0.0,0.0,0.0,0.0,0.0,0.0,0.0,0.0,0.0,0.0,0.0,0.0,0.0,0.0,0.0,0.0,0.0,0.0,0.0,0.0,0.0,0.0,0.0,0.0,0.0,0.0,0.0,0.0,0.0,0.0,0.0,0.0,1.2648,1.2546,1.2677,1.3141,1.324,1.3218,1.3073,1.2791,1.2194,1.1241,0.0,0.0,0.0,0.0,0.0,0.0,0.0,0.0,0.0,0.0,0.0,0.0,0.0,0.0,0.0,0.0,0.0,0.0,0.0,0.0,0.0,0.0,0.0,0.0,0.0,0.0,0.0,0.0,0.0,0.0,0.0,0.0,0.0,0.0,0.0,0.0,0.0,0.0,0.0,0.0,0.0,0.0,0.0,0.0,0.0,0.0,0.0,0.0,0.0,0.0,0.0,0.0,0.0,0.0,0.0,0.0,0.0,0.0,0.0,0.0,1.4765,1.4734,0.0,0.0,0.0,0.0,0.0,0.0,0.0,0.0,0.0,0.0,0.0,0.0,0.0,0.0,0.0,0.0,0.0,0.0,0.0,0.0,0.0,0.0,0.0,0.0,0.0,0.0,0.0,0.0,0.0,0.0,0.0,0.0,0.0,0.0,0.0,0.0,0.0,0.0,0.0,0.0,1.2416,1.2359,1.2292,1.2519,1.2539,1.245,1.2305,1.21,1.1715,1.0987,1.035,0.0,0.0,0.0,0.0,0.0,0.0,0.0,0.0,0.0,0.0,0.0,0.0,0.0,0.0,0.0,0.0,0.0,0.0,0.0,0.0,0.0,0.0,0.0,0.0,0.0,0.0,0.0,0.0,0.0,0.0,0.0,0.0,0.0,0.0,0.0,0.0,0.0,0.0,0.0,0.0,0.0,0.0,0.0,0.0,0.0,0.0,0.0,0.0,0.0,0.0,0.0,0.0,0.0,0.0,0.0,0.0,0.0,0.0,0.0,1.4677,1.4753,0.0,0.0,0.0,0.0,0.0,0.0,0.0,0.0,0.0,0.0,0.0,0.0,0.0,0.0,0.0,0.0,0.0,0.0,0.0,0.0,0.0,0.0,0.0,0.0,0.0,0.0,0.0,0.0,0.0,0.0,0.0,0.0,0.0,0.0,0.0,0.0,0.0,0.0,0.0,0.0,1.1577,1.1797,1.1932,1.2155,1.2182,1.2149,1.2142,1.1918,1.1667,1.1294,1.0565,0.0,0.0,0.0,0.0,0.0,0.0,0.0,0.0,0.0,0.0,0.0,0.0,0.0,0.0,0.0,0.0,0.0,0.0,0.0,0.0,0.0,0.0,0.0,0.0,0.0,0.0,0.0,0.0,0.0,0.0,0.0,0.0,0.0,0.0,0.0,0.0,0.0,0.0,0.0,0.0,0.0,0.0,0.0,0.0,0.0,0.0,0.0,0.0,0.0,0.0,0.0,0.0,0.0,1.4702,1.4414,1.4649,1.4541,1.4215,1.3771,1.4267,1.4577,1.4724,1.4691,0.0,0.0,0.0,0.0,0.0,0.0,0.0,0.0,0.0,0.0,0.0,0.0,0.0,0.0,0.0,0.0,0.0,0.0,0.0,0.0,0.0,0.0,1.5743,1.5037,1.5373,1.55,1.4477,0.0,0.0,0.0,0.0,0.0,0.0,0.0,0.0,0.0,0.0,0.0,1.0674,1.1226,1.1681,1.1959,1.1986,1.2006,1.2135,1.1918,1.1789,1.1701,1.09,1.0236,0.0,0.0,0.0,0.0,0.0,0.0,0.0,0.0,0.0,0.0,0.0,0.0,0.0,0.0,0.0,0.0,0.0,0.0,0.0,0.0,0.0,0.0,0.0,0.0,0.0,0.0,0.0,0.0,0.0,0.0,0.0,0.0,1.404,1.4155,0.0,0.0,0.0,0.0,0.0,0.0,0.0,0.0,0.0,0.0,0.0,0.0,0.0,1.4568,1.4538,1.4668,1.4625,1.4388,1.4142,1.4044,1.4026,1.3858,1.3671,1.3464,1.3369,0.0,1.4258,1.4045,0.0,0.0,0.0,0.0,0.0,0.0,0.0,0.0,0.0,0.0,0.0,0.0,0.0,0.0,0.0,0.0,0.0,0.0,0.0,0.0,0.0,0.0,1.5165,1.5238,1.5126,1.5002,1.5003,1.4483,1.4072,1.4066,1.2732,1.1425,0.0,0.0,0.0,0.0,0.0,0.0,1.0622,1.1131,1.1491,1.166,1.1681,1.1782,1.2115,1.1918,1.1877,1.1999,1.1402,1.0846,1.0392,0.9551,0.0,0.0,0.0,0.0,0.0,0.0,0.0,0.0,0.0,0.0,0.0,0.0,0.0,0.0,0.0,0.0,0.0,0.0,0.0,0.0,0.0,0.0,0.0,0.0,0.0,0.0,0.0,0.0,0.0,1.4016,1.4485,1.5084,1.4887,1.4789,0.0,0.0,0.0,0.0,0.0,0.0,0.0,0.0,0.0,1.4297,1.4309,1.4313,1.4205,1.4045,1.3895,1.3763,1.3545,1.3375,1.3259,1.3246,1.2972,1.2542,1.2684,1.2723,1.2743,1.3262,1.3695,1.4118,0.0,0.0,0.0,0.0,1.451,1.433,1.3952,1.3633,1.3301,1.2749,0.0,0.0,0.0,0.0,0.0,0.0,0.0,1.349,1.3532,1.4141,1.4741,1.4891,1.4843,1.488,1.5288,1.4963,1.454,1.4331,1.3426,1.2272,1.1006,1.0527,0.0,0.0,0.0,1.0038,1.0698,1.1165,1.145,1.1606,1.1619,1.1701,1.1911,1.187,1.1857,1.1932,1.1531,1.109,1.0636,0.9998,0.9408,0.0,0.0,0.0,0.0,0.0,0.0,0.0,0.0,0.0,0.0,0.0,0.0,0.0,0.0,0.0,0.0,0.0,0.0,0.0,0.0,0.0,0.0,0.0,0.0,0.0,0.0,0.0,0.0,1.4327,1.4607,1.5692,1.5127,1.4871,0.0,0.0,0.0,0.0,0.0,0.0,1.4331,1.4293,1.4245,1.4066,1.4005,1.3954,1.3798,1.3518,1.3282,1.3158,1.2939,1.2658,1.244,1.2467,1.2155,1.1724,1.1868,1.1763,1.1378,1.2369,1.2881,1.2947,1.3259,1.3398,1.3411,1.3769,1.3774,1.3583,1.341,1.3197,1.2968,1.2334,1.1952,1.1814,1.1655,0.0,0.0,0.0,0.0,1.3181,1.3143,1.3642,1.4244,1.4318,1.4447,1.4678,1.5214,1.494,1.4612,1.4495,1.4053,1.3159,1.154,1.138,0.0,0.9815,0.9917,1.0378,1.0914,1.1253,1.145,1.1606,1.1619,1.1681,1.1816,1.1864,1.187,1.183,1.1592,1.1246,1.0799,1.0247,0.9822,0.9334,0.0,0.0,0.0,0.0,0.0,0.0,0.0,0.0,0.0,0.0,0.0,0.0,0.0,0.0,0.0,0.0,0.0,0.0,0.0,0.0,0.0,0.0,0.0,0.0,0.0,0.0,0.0,0.0,0.0,1.5375,1.4978,0.0,0.0,0.0,0.0,1.4856,1.5061,1.4766,1.3952,1.4548,1.4319,1.3168,1.3308,1.3296,1.3029,1.3223,1.3021,1.2471,1.2293,1.2106,1.1846,1.1284,1.107,1.1132,1.0989,1.0834,1.0903,1.1544,1.2402,1.3248,1.3313,1.3769,1.4305,1.3428,1.3082,1.2869,1.1844,1.15,1.1462,1.1356,1.0872,1.0189,1.0117,0.9924,0.0,0.0,1.0979,1.1627,1.2365,1.3051,1.3604,1.3604,1.3947,1.4307,1.4566,1.4205,1.3984,1.4489,1.4083,1.3296,1.221,0.0,1.1088,1.0741,1.0557,1.069,1.1287,1.1382,1.145,1.1606,1.1619,1.1681,1.1816,1.1965,1.1986,1.1837,1.1687,1.1402,1.0887,1.03,0.9903,0.9788,0.9069,0.0,0.0,0.0,0.0,0.0,0.0,0.0,0.0,0.0,0.0,0.0,0.0,0.0,0.0,0.0,0.0,0.0,0.0,0.0,0.0,0.0,0.0,0.0,0.0,0.0,0.0,0.0,0.0,1.5465,1.479,0.0,1.4812,1.454,1.438,1.4463,1.4103,1.3649,1.3297,1.3391,1.3162,1.2649,1.2693,1.2718,1.2582,1.2344,1.2086,1.1797,1.1493,1.1286,1.1164,1.0915,1.0743,1.05,1.0561,1.0387,1.016,1.0498,1.1013,1.1669,1.1669,1.1858,1.2098,1.1737,1.159,1.1523,1.1161,1.1013,1.1032,1.0977,1.0767,1.0529,1.0441,1.0303,1.0201,1.0347,1.0803,1.1365,1.1643,1.2185,1.2786,1.3271,1.3452,1.3595,1.3857,1.3759,1.3467,1.3256,1.3416,1.3254,1.2266,1.2098,1.1814,1.1041,1.1101,1.1344,1.1484,1.1538,1.1592,1.1742,1.1674,1.164,1.1687,1.183,1.185,1.1701,1.1552,1.1314,1.0894,1.0555,1.0222,0.9909,0.9612,0.9164,0.0,0.0,0.0,0.0,0.0,0.0,0.0,0.0,0.0,0.0,0.0,0.0,0.0,0.0,0.0,0.0,0.0,0.0,0.0,0.0,0.0,0.0,0.0,0.0,0.0,1.4429,1.4242,1.5471,1.4667,1.4178,1.4566,1.4272,1.4012,1.3959,1.3371,1.2978,1.2666,1.2603,1.2362,1.208,1.2097,1.2066,1.1852,1.1511,1.1295,1.1181,1.0863,1.0638,1.0631,1.0555,1.0352,1.0171,1.0256,1.0136,0.9905,0.9987,1.0235,1.0545,1.0545,1.0545,1.0545,1.0545,1.0545,1.0545,1.0545,1.0545,1.0545,1.0545,1.0545,1.0527,1.0439,1.041,1.0386,1.0411,1.0644,1.0959,1.1194,1.1635,1.2131,1.2712,1.2887,1.2974,1.3184,1.3177,1.302,1.2578,1.2815,1.2832,1.1988,1.1929,1.182,1.1249,1.1193,1.1372,1.1577,1.1437,1.1418,1.1603,1.153,1.1543,1.1694,1.1735,1.1742,1.1694,1.1457,1.1226,1.1029,1.0636,1.0331,1.0134,0.9924,0.953,0.8933,0.0,0.0,0.0,0.0,0.0,0.0,0.0,0.0,0.0,0.0,0.0,0.0,0.0,0.0,0.0,0.0,0.0,0.0,0.0,0.0,0.0,0.0,0.0,1.4586,1.4316,1.4334,1.5214,1.461,1.4099,1.4231,1.3893,1.359,1.3401,1.3096,1.2726,1.218,1.2291,1.2052,1.1375,1.1523,1.133,1.0844,1.083,1.0752,1.0602,1.0288,1.0265,1.0391,0.9998,0.9905,1.0019,1.0019,1.0019,1.0019,1.0019,1.0019,1.0019,1.0019,1.0019,1.0019,1.0019,1.0019,1.0019,1.0019,1.0019,1.0019,1.0019,1.0019,1.0019,1.0019,1.0019,1.0075,1.0343,1.0294,1.0386,1.0995,1.1358,1.1637,1.1854,1.217,1.2425,1.2436,1.2558,1.2627,1.2458,1.2363,1.2068,1.151,1.1157,1.1042,1.1402,1.09,0.0,1.1542,1.117,1.089,1.1196,1.1183,1.1324,1.1763,1.1635,1.1608,1.1743,1.1409,1.1165,1.1165,1.0609,1.0304,1.031,0.9936,0.964,0.9415,0.0,0.0,0.0,0.0,0.0,0.0,0.0,0.0,0.0,0.0,0.0,0.0,0.0,0.0,0.0,0.0,0.0,0.0,0.0,0.0,0.0,1.1437,1.2426,1.3917,1.3827,1.368,1.3906,1.359,1.3311,1.3355,1.3019,1.2632,1.2339,1.212,1.1668,1.1036,1.1211,1.114,1.0657,1.0885,1.0951,1.0774,1.0509,1.0375,1.0428,1.0078,1.0009,1.0125,0.997,0.9987,1.0019,1.0019,1.0019,1.0019,1.0019,1.0019,1.0019,1.0019,1.0019,1.0019,1.0019,1.0019,1.0019,1.0019,1.0019,1.0019,1.0019,1.0019,1.0019,1.0019,1.0019,1.0014,1.0059,1.0129,1.026,1.0443,1.0633,1.0875,1.1194,1.1251,1.1298,1.128,1.1414,1.1489,1.1173,1.1063,1.1159,1.1525,1.162,1.1447,1.1082,1.0985,1.0976,1.112,1.0964,1.0889,1.1026,1.094,1.0959,1.1108,1.0976,1.0869,1.0879,1.0575,1.0404,1.0404,1.009,1.0002,1.0109,0.9667,0.9379,0.0,0.0,0.0,0.0,0.0,0.0,0.0,0.0,0.0,0.0,0.0,0.0,0.0,0.0,0.0,0.0,0.0,0.0,0.0,0.0,0.0,0.0,1.1084,1.1886,1.2886,1.308,1.3092,1.2986,1.2856,1.2684,1.2425,1.2278,1.1978,1.1483,1.1418,1.118,1.0674,1.0759,1.07,1.034,1.0488,1.0491,1.0341,1.0167,1.0078,1.0151,0.9966,0.9949,1.0019,1.0019,1.0019,1.0019,1.0019,1.0019,1.0019,1.0019,1.0019,1.0019,0.0,0.0,0.0,0.0,1.0019,1.0019,1.0019,1.0019,1.0019,1.0019,1.0019,1.0019,1.0019,1.0019,1.0019,1.0019,1.0037,1.0028,1.0202,1.0304,1.045,1.0696,1.0725,1.0687,1.0568,1.0735,1.0767,1.0499,1.0467,0.0,1.085,1.0946,1.0889,1.063,1.0523,1.0601,1.0772,1.0527,1.0445,1.0756,1.0696,1.07,1.0796,1.0614,0.0,0.0,0.0,1.0034,0.9973,0.9893,0.0,0.0,0.0,0.0,0.0,0.9667,0.0,0.0,0.9943,0.9817,0.0,0.0,0.0,0.0,0.0,0.0,0.0,0.0,0.0,0.0,0.0,0.0,0.0,0.0,0.0,0.0,1.0951,1.1517,1.1655,1.2148,1.244,1.2315,1.2293,1.2096,1.1538,1.1643,1.144,1.0847,1.09,1.0878,1.0709,1.0652,0.0,0.0,0.0,1.0005,0.9709,0.9807,0.9856,0.9862,0.997,1.0019,1.0019,1.0019,1.0019,1.0019,1.0019,1.0019,1.0019,1.0019,1.0019,1.0019,1.0019,1.0019,1.0019,1.0019,1.0019,1.0019,1.0019,0.0,0.0,1.0019,1.0019,1.0019,1.0019,1.0019,1.0019,1.0019,0.9932,0.9889,1.0086,1.0127,1.0208,1.0341,1.045,1.0395,1.0168,1.0275,1.0396,1.0209,1.0353,1.0354,0.9974,0.9798,0.9833,1.0173,0.9769,0.9755,1.0477,1.013,0.9922,1.0326,1.0326,0.0,1.0769,1.0534,1.0432,1.0602,1.0191,0.9862,0.9743,0.9749,0.9814,0.9934,0.994,1.0108,1.0534,1.0473,1.0604,1.082,0.9982,0.985,0.0,0.0,0.0,0.0,0.0,0.0,0.0,0.0,0.0,0.0,0.0,0.0,0.0,0.0,0.0,1.0297,1.0699,1.0933,1.0965,1.1116,1.1338,1.1724,1.1685,1.1491,1.1083,1.1034,1.0829,1.0334,1.0363,1.0237,0.9891,0.998,0.9954,0.9878,0.9977,1.0031,0.9954,0.9976,0.9987,0.9987,1.0008,0.0,1.0019,1.0019,1.0019,1.0019,1.0019,1.0019,1.0019,1.0019,1.0019,1.0019,1.0019,1.0019,1.0019,1.0019,1.0019,1.0019,1.0019,1.0019,1.0019,1.0019,1.0019,1.0019,1.0019,1.0019,0.0,1.0019,0.9932,0.9835,0.9883,0.9812,0.9805,0.9835,0.9841,0.9846,0.9796,1.0025,1.0259,1.0236,1.0248,1.023,1.0052,0.9931,0.9795,0.9507,0.9511,0.962,0.9866,0.9872,0.9878,1.0053,1.0064,1.0131,1.0186,1.0047,0.9936,0.9863,0.9696,0.9591,0.9563,0.9663,0.9724,0.9752,0.9752,0.9785,0.9858,0.9952,0.9943,1.0063,1.0025,1.0002,0.0,0.0,0.0,0.0,0.0,0.0,0.0,0.0,0.0,0.0,0.0,0.9318,0.9578,0.0,1.0111,1.0151,1.0393,1.0591,1.0591,1.0682,1.0909,1.1142,1.116,1.0957,1.0584,1.0548,1.0434,1.0056,0.9883,0.9693,0.954,0.9362,0.9315,0.9315,0.9527,0.9708,0.9708,0.9864,1.0019,1.0019,1.0019,1.0019,1.0019,1.0019,1.0019,1.0019,1.0019,1.0019,1.0019,1.0019,1.0019,1.0019,1.0019,1.0019,1.0019,1.0019,1.0019,1.0019,1.0019,1.0019,1.0019,1.0019,1.0019,1.0019,1.0019,1.0019,1.0019,1.0019,0.9976,0.9916,0.9851,0.984,0.9818,0.9699,0.9715,0.9737,0.9682,0.9816,0.9966,0.9966,0.9966,0.9949,0.9888,0.982,0.9663,0.9323,0.941,0.953,0.9655,0.9769,0.9883,1.0008,1.0019,0.9992,0.9932,0.9818,0.9731,0.9671,0.9612,0.9579,0.9579,0.9639,0.9699,0.9753,0.9753,0.9786,0.9845,0.9669,0.9624,0.9619,0.9566,0.9571,0.0,0.0,0.0,0.0,0.0,0.0,0.0,0.9131,0.918,0.9455,0.9617,0.9742,0.9831,1.0053,1.0101,0.9987,1.0175,1.0343,1.0343,1.048,1.0637,1.0637,1.0694,1.0526,1.0075,1.0117,1.0031,0.9643,0.9423,0.9246,0.9246,0.9012,0.8778,0.8778,0.909,0.9324,0.9402,0.9708,0.9942,1.0019,1.0019,1.0019,1.0019,1.0019,1.0019,1.0019,1.0019,1.0019,1.0019,1.0019,1.0019,1.0019,1.0019,1.0019,1.0019,1.0019,1.0019,1.0019,1.0019,1.0019,1.0019,1.0019,1.0019,1.0019,1.0019,1.0019,1.0019,1.0019,1.0019,0.9998,0.99,0.9943,0.997,0.9786,0.9807,0.9845,0.9758,0.9737,0.9737,0.9737,0.9737,0.9731,0.9704,0.9704,0.9628,0.941,0.9459,0.9568,0.9688,0.978,0.9883,1.0008,1.0019,0.9981,0.9883,0.9791,0.9737,0.9737,0.9737,0.9737,0.9737,0.9737,0.978,0.9873,0.9796,0.9767,0.9864,0.948,0.9246,0.9246,0.8856,0.8856,0.8764,0.8808,0.8942,0.9287,0.9137,0.9252,0.0,0.9971,0.9601,1.0185,1.0095,0.9971,1.0009,0.996,0.9987,1.0014,1.0008,1.0075,1.0075,1.0064,1.0059,1.0059,1.0272,1.0129,0.9366,0.947,0.9382,0.8915,0.8852,0.8856,0.8856,0.8856,0.8778,0.8778,0.8856,0.9012,0.9402,0.948,0.963,1.0019,1.0019,1.0019,1.0019,1.0019,1.0019,1.0019,1.0019,1.0019,1.0019,1.0019,1.0019,1.0019,1.0019,1.0019,1.0019,1.0019,1.0019,1.0019,1.0019,1.0019,1.0019,1.0019,1.0019,1.0019,1.0019,1.0019,1.0019,1.0019,1.0019,1.0019,1.0003,1.0008,1.0014,0.9987,0.9992,0.9998,0.9981,0.9981,0.9981,0.9981,0.9981,0.9943,0.984,0.9818,0.9775,0.965,0.9639,0.9693,0.9802,0.9829,0.9883,1.0008,1.0019,1.0014,1.0003,0.9987,0.9981,0.9981,0.9981,0.9981,0.9981,0.9981,0.9987,0.9998,0.9615,0.9464,0.948,0.909,0.8856,0.8856,0.8471,0.8315,1.0004,0.9691,0.9379,0.9788,0.9875,0.998,1.026,1.0087,0.9979,1.0108,1.0064,1.0019,1.0019,1.0019,1.0019,1.0019,1.0019,0.9942,0.9708,0.9864,0.9786,0.9324,0.9594,0.9717,0.9325,0.9138,0.9012,0.8778,0.8549,0.8471,0.8471,0.8154,0.8072,0.8072,0.831,0.8544,0.87,0.9168,0.948,0.963,0.9864,1.0019,1.0019,1.0019,1.0019,1.0019,1.0019,1.0019,1.0019,1.0019,1.0019,1.0019,1.0019,1.0019,1.0019,1.0019,1.0019,1.0019,1.0019,1.0019,1.0019,1.0019,1.0019,1.0019,1.0019,1.0019,1.0019,1.0019,1.0019,1.0019,1.0019,1.0019,1.0019,1.0019,1.0019,1.0019,1.0019,1.0019,1.0019,1.0019,1.0019,1.0003,0.9954,0.9943,0.9927,0.9883,0.9813,0.9786,0.9829,0.99,0.9965,1.0014,1.0019,1.0019,1.0019,1.0019,1.0019,1.0019,1.0019,1.0019,1.0019,1.0019,0.9864,0.963,0.948,0.9324,0.9012,0.8622,0.8471,0.8471,0.7998,0.7764,1.0346,0.9992,0.9653,1.0018,1.0256,1.0334,1.007,1.0075,1.0117,0.9987,1.0019,0.9942,0.9864,0.9864,0.9786,0.9708,0.9636,0.9553,0.9246,0.948,0.948,0.8856,0.8934,0.909,0.909,0.8778,0.8544,0.8466,0.8154,0.7998,0.7998,0.7681,0.7525,0.7525,0.7842,0.808,0.8237,0.8778,0.9168,0.9402,0.9708,0.9864,1.0019,1.0019,1.0019,1.0019,1.0019,1.0019,1.0019,1.0019,1.0019,1.0019,1.0019,1.0019,1.0019,1.0019,1.0019,1.0019,1.0019,1.0019,1.0019,1.0019,1.0019,0.9942,0.9864,0.9864,0.9786,0.9708,0.9786,0.9864,0.9864,0.9942,0.9942,0.9864,0.9864,0.9864,0.9864,0.9864,0.9864,0.9942,1.0019,1.0019,1.0019,1.0019,1.0019,1.0019,0.9943,0.9889,0.9889,0.9965,1.0019,1.0019,1.0019,1.0019,1.0019,1.0019,1.0019,1.0019,1.0019,1.0019,1.0019,0.9864,0.9708,0.9402,0.9168,0.8934,0.8622,0.8232,0.8011,0.8041,0.7723,0.7578,0.9034,0.9234,0.9556,0.975,0.9791,0.9856,0.9976,1.0008,1.0014,1.0019,1.0019,0.9864,0.9475,0.9402,0.9324,0.8934,0.8856,0.8856,0.8856,0.8856,0.8856,0.8778,0.8471,0.8237,0.8237,0.8237,0.7998,0.7603,0.7525,0.7525,0.7525,0.7525,0.7525,0.7525,0.7525,0.7764,0.8159,0.8237,0.8622,0.9402,0.9402,0.963,1.0019,1.0019,1.0019,1.0019,1.0019,1.0019,1.0019,1.0019,1.0019,1.0019,1.0019,1.0019,1.0019,1.0019,1.0019,1.0019,1.0019,1.0019,1.0019,1.0019,1.0019,0.9942,0.9558,0.9402,0.9324,0.8934,0.909,0.9402,0.9402,0.9708,0.9864,0.9475,0.9402,0.9402,0.9402,0.9402,0.9558,0.9942,1.0019,1.0019,1.0019,1.0019,1.0019,1.0019,1.0019,1.0014,1.0014,1.0019,1.0019,1.0019,1.0019,1.0019,1.0019,1.0019,1.0019,1.0019,1.0019,1.0019,1.0019,0.963,0.9402,0.9402,0.8622,0.8237,0.8237,0.7764,0.757,0.7739,0.7739,0.7705,0.9455,0.9513,0.9579,0.975,0.9889,0.9893,0.9625,0.9636,0.9558,0.9246,0.9341,0.9439,0.9285,0.9285,0.9208,0.9059,0.8648,0.8384,0.8393,0.8388,0.8306,0.7994,0.8076,0.808,0.7764,0.7764,0.7681,0.7525,0.7525,0.7525,0.7525,0.7525,0.7525,0.7525,0.7525,0.7603,0.7764,0.8076,0.8315,0.8622,0.8856,0.909,0.9168,0.9168,0.9324,0.9636,0.9636,0.9786,1.0019,1.0019,1.0019,1.0019,1.0019,1.0019,1.0019,1.0019,1.0019,1.0019,1.0019,1.0019,0.9942,0.9708,0.9636,0.9558,0.909,0.9012,0.9012,0.8856,0.8934,0.9012,0.9012,0.909,0.9168,0.9012,0.9012,0.8934,0.8618,0.854,0.854,0.8384,0.8306,0.8306,0.8306,0.8306,0.8306,0.8306,0.9319,1.0019,1.0019,1.0019,1.0019,1.0019,1.0019,1.0019,1.0019,1.0019,1.0019,1.0019,1.0019,0.9864,0.963,0.948,0.9168,0.8622,0.8315,0.8076,0.7764,0.7665,0.7631,0.7664,0.7725,0.777,0.9567,0.95,0.9329,0.9605,0.9578,0.9475,0.9246,0.9168,0.909,0.8856,0.8972,0.9096,0.8939,0.8939,0.8736,0.8116,0.7537,0.7224,0.7228,0.7303,0.7358,0.7455,0.7764,0.7842,0.7525,0.7525,0.7525,0.7525,0.7525,0.7525,0.7525,0.7525,0.7525,0.7525,0.7525,0.7525,0.7525,0.7764,0.7998,0.8237,0.8622,0.8778,0.8778,0.8778,0.8934,0.9168,0.9324,0.9558,0.9786,0.9942,1.0019,1.0019,1.0019,1.0019,1.0019,1.0019,1.0019,1.0019,1.0019,0.9942,0.9708,0.948,0.9324,0.909,0.87,0.8549,0.8544,0.8388,0.8466,0.8549,0.8549,0.87,0.8778,0.8622,0.8549,0.8466,0.8228,0.815,0.815,0.7994,0.7838,0.7759,0.7759,0.7603,0.7525,0.7525,0.8384,0.9085,0.9085,0.9085,0.9085,0.9085,0.9085,0.9085,0.9085,0.9397,0.9553,0.9553,0.9708,0.9636,0.9402,0.8929,0.8544,0.8237,0.7924,0.7686,0.7525,0.7615,0.768,0.7713,0.7807,0.7701,0.94,0.9213,0.9004,0.932,0.909,0.8778,0.8778,0.8778,0.8774,0.8759,0.8822,0.882,0.8417,0.8351,0.7898,0.6298,0.582,0.5674,0.5674,0.5674,0.611,0.7311,0.7447,0.7447,0.7447,0.7447,0.7447,0.7447,0.7447,0.7525,0.7525,0.7525,0.7525,0.7525,0.7525,0.7525,0.7525,0.7525,0.7764,0.8159,0.8544,0.87,0.87,0.87,0.8778,0.8778,0.9168,0.9324,0.9402,0.9786,0.9942,0.9942,1.0019,1.0019,1.0019,1.0019,1.0019,0.9942,0.9942,0.9708,0.9402,0.9324,0.909,0.87,0.8315,0.8159,0.808,0.7603,0.7842,0.8159,0.8159,0.8466,0.8622,0.8237,0.8159,0.8159,0.8159,0.8159,0.8237,0.8622,0.8306,0.7989,0.8072,0.7681,0.7369,0.7369,0.7369,0.7369,0.7525,0.7525,0.7525,0.7525,0.7525,0.7525,0.7525,0.831,0.8778,0.8778,0.9168,0.9324,0.9324,0.815,0.7764,0.8159,0.7295,0.706,0.7447,0.7544,0.7633,0.7718,0.7733,0.7402,0.9027,0.8995,0.8833,0.8915,0.8856,0.87,0.8393,0.8393,0.8247,0.7946,0.81,0.828,0.8094,0.8159,0.8002,0.7465,0.6964,0.6648,0.696,0.6487,0.6315,0.6986,0.6822,0.6587,0.6587,0.6587,0.6587,0.6587,0.7135,0.7525,0.7525,0.7525,0.7525,0.7525,0.7525,0.7525,0.7525,0.7525,0.7525,0.7681,0.7759,0.7838,0.7838,0.7838,0.7998,0.8393,0.8471,0.87,0.9012,0.9402,0.9553,0.9553,0.9864,1.0019,1.0019,1.0019,0.9786,0.9553,0.9553,0.948,0.9324,0.87,0.8471,0.8237,0.7842,0.7681,0.7681,0.7525,0.7603,0.7681,0.7681,0.7759,0.7838,0.7686,0.7681,0.7607,0.7295,0.7217,0.7138,0.6978,0.6587,0.6353,0.6353,0.5962,0.5645,0.5645,0.5645,0.6115,0.7369,0.7525,0.7525,0.7525,0.7525,0.7603,0.7911,0.815,0.8462,0.8778,0.8934,0.8856,0.8549,0.8154,0.7764,0.7217,0.6982,0.6826,0.6587,0.6727,0.6644,0.6337,0.6467,0.6285,0.9076,0.8842,0.8544,0.8544,0.8388,0.8188,0.7942,0.7826,0.7805,0.7536,0.7701,0.7859,0.7762,0.7835,0.7651,0.678,0.6311,0.6046,0.6089,0.5688,0.5748,0.647,0.6382,0.624,0.6271,0.6275,0.6275,0.6275,0.6744,0.7056,0.7213,0.7213,0.7291,0.7525,0.7525,0.7525,0.7525,0.7525,0.7525,0.7525,0.7525,0.7525,0.7525,0.7525,0.7681,0.792,0.808,0.8315,0.8549,0.8934,0.9168,0.9168,0.9553,0.9708,0.9708,0.9708,0.9558,0.9324,0.9012,0.8856,0.8778,0.8315,0.808,0.7842,0.7603,0.7525,0.7525,0.7525,0.7525,0.7525,0.7525,0.7525,0.7525,0.7525,0.7525,0.7447,0.7217,0.7138,0.7056,0.6666,0.6275,0.5886,0.573,0.5335,0.5022,0.5022,0.5022,0.5332,0.6275,0.6431,0.6431,0.6431,0.6431,0.6584,0.6975,0.7369,0.7759,0.8232,0.8388,0.8471,0.8237,0.7686,0.7217,0.6904,0.6591,0.6353,0.6275,0.6264,0.6091,0.577,0.5823,0.5463,0.9196,0.87,0.808,0.808,0.7764,0.7508,0.7443,0.7421,0.7362,0.7335,0.7413,0.7486,0.7408,0.7374,0.694,0.5437,0.5097,0.488,0.4614,0.4529,0.4889,0.5951,0.6099,0.6052,0.6111,0.6115,0.6115,0.6115,0.6115,0.6353,0.6826,0.6904,0.706,0.7525,0.7525,0.7525,0.7525,0.7525,0.7525,0.7525,0.7525,0.7525,0.7525,0.7525,0.7525,0.7525,0.792,0.808,0.8159,0.8544,0.87,0.8778,0.9168,0.9324,0.9324,0.9324,0.9324,0.9168,0.8471,0.8159,0.808,0.808,0.7842,0.7525,0.7525,0.7525,0.7525,0.7525,0.7525,0.7525,0.7525,0.7525,0.7525,0.7525,0.7517,0.7509,0.7509,0.7497,0.7337,0.7026,0.6559,0.6166,0.578,0.5318,0.5008,0.5008,0.5016,0.5022,0.5022,0.5022,0.5022,0.5022,0.5022,0.5179,0.5573,0.6356,0.6982,0.7369,0.7829,0.8067,0.808,0.6967,0.6499,0.6826,0.6121,0.5808,0.604,0.5774,0.5596,0.5445,0.5231,0.4616,0.8457,0.7998,0.7603,0.7603,0.7525,0.7508,0.7443,0.7369,0.7339,0.7272,0.7209,0.721,0.7252,0.6523,0.5976,0.6341,0.5574,0.5176,0.5794,0.5584,0.542,0.5707,0.5441,0.5245,0.5254,0.5254,0.5254,0.5254,0.5254,0.557,0.6353,0.6747,0.706,0.7525,0.7525,0.7525,0.7525,0.7525,0.7525,0.7525,0.7525,0.7525,0.7525,0.7525,0.7525,0.7525,0.7603,0.7603,0.7681,0.8076,0.8315,0.8315,0.8778,0.8934,0.8934,0.8934,0.87,0.8393,0.8237,0.792,0.7603,0.7603,0.7603,0.7525,0.7525,0.7525,0.7525,0.7525,0.7525,0.7525,0.7525,0.7525,0.7525,0.7525,0.7468,0.7415,0.7415,0.7358,0.7309,0.7233,0.6626,0.6094,0.6018,0.5379,0.4951,0.4951,0.4989,0.5022,0.5022,0.5022,0.5022,0.5022,0.5022,0.5179,0.5651,0.6118,0.6587,0.6982,0.7378,0.7602,0.7603,0.7069,0.6597,0.6431,0.5965,0.5416,0.4711,0.4698,0.4351,0.3659,0.3626,0.3418,0.8237,0.7842,0.7525,0.7525,0.7525,0.7459,0.7402,0.7263,0.7242,0.7182,0.7028,0.6765,0.6158,0.5681,0.5153,0.4537,0.4529,0.4581,0.4551,0.4923,0.5193,0.5193,0.5017,0.4989,0.5019,0.5022,0.5022,0.5022,0.5022,0.5257,0.5883,0.6353,0.6666,0.69,0.7056,0.7213,0.7213,0.7369,0.7525,0.7525,0.7525,0.7525,0.7525,0.7525,0.7525,0.7525,0.7525,0.7525,0.7525,0.7764,0.7842,0.7842,0.831,0.8471,0.8471,0.8471,0.8393,0.8159,0.792,0.7681,0.7525,0.7525,0.7525,0.7525,0.7525,0.7525,0.7525,0.7525,0.7525,0.7525,0.7525,0.7525,0.7525,0.7525,0.7456,0.7378,0.7333,0.7292,0.7264,0.7264,0.6657,0.6129,0.6129,0.5431,0.4937,0.4937,0.4984,0.5022,0.5022,0.5022,0.5022,0.5022,0.5022,0.5179,0.5651,0.5805,0.6196,0.6826,0.7057,0.718,0.7452,0.6758,0.6371,0.6217,0.5599,0.4995,0.4397,0.4212,0.3779,0.3171,0.3045,0.283,0.8072,0.7764,0.7447,0.7369,0.7369,0.7337,0.7026,0.6894,0.6778,0.6644,0.6346,0.5808,0.4918,0.4495,0.3852,0.2511,0.2909,0.3307,0.2974,0.3716,0.4384,0.4558,0.4611,0.4663,0.4703,0.4709,0.4709,0.4709,0.4787,0.51,0.5573,0.5962,0.6196,0.6275,0.6587,0.6747,0.6747,0.7135,0.7369,0.7369,0.7447,0.7525,0.7525,0.7525,0.7525,0.7525,0.7525,0.7525,0.7525,0.7525,0.7525,0.7525,0.792,0.808,0.808,0.808,0.808,0.7998,0.7603,0.7525,0.7525,0.7525,0.7525,0.7525,0.7525,0.7525,0.7525,0.7525,0.7525,0.7525,0.7525,0.7525,0.7517,0.7476,0.7415,0.7333,0.7227,0.7203,0.7203,0.7203,0.6604,0.6012,0.6026,0.541,0.4921,0.4935,0.4984,0.5022,0.5022,0.5022,0.5022,0.5022,0.5022,0.5179,0.5495,0.5573,0.5886,0.6591,0.6671,0.6788,0.7184,0.6419,0.5962,0.6035,0.5263,0.4745,0.4397,0.3963,0.3609,0.3171,0.279,0.2657,0.7738,0.7525,0.7447,0.706,0.6982,0.6804,0.6065,0.5858,0.5679,0.5322,0.456,0.391,0.3917,0.2429,0.1387,0.2003,0.1256,0.1055,0.2449,0.2656,0.3002,0.3684,0.3891,0.392,0.3925,0.3925,0.3925,0.3925,0.4241,0.4789,0.5651,0.573,0.5883,0.6275,0.6353,0.6353,0.6353,0.6744,0.6982,0.6982,0.7291,0.7525,0.7525,0.7525,0.7525,0.7525,0.7525,0.7525,0.7525,0.7525,0.7525,0.7525,0.7525,0.7525,0.7525,0.7525,0.7525,0.7525,0.7525,0.7525,0.7525,0.7525,0.7525,0.7525,0.7525,0.7525,0.7525,0.7525,0.7525,0.7525,0.7525,0.7525,0.7484,0.7325,0.728,0.7227,0.7052,0.7015,0.7015,0.7015,0.6359,0.5869,0.5937,0.534,0.4796,0.4929,0.4984,0.5022,0.5022,0.5022,0.5022,0.5022,0.5022,0.5022,0.51,0.5414,0.573,0.573,0.5974,0.6273,0.6417,0.5884,0.5649,0.5717,0.5248,0.4782,0.4397,0.401,0.358,0.3171,0.2768,0.2637,0.7162,0.7138,0.706,0.6666,0.6442,0.6309,0.5902,0.5645,0.5422,0.5126,0.4703,0.3984,0.2898,0.2067,0.1183,0.0175,0.0121,0.0378,0.0748,0.1786,0.2655,0.2978,0.346,0.3768,0.3768,0.3768,0.3768,0.3768,0.3925,0.4319,0.4868,0.5179,0.5335,0.5489,0.5805,0.5883,0.5883,0.6353,0.6666,0.6904,0.706,0.7291,0.7525,0.7525,0.7525,0.7525,0.7525,0.7525,0.7525,0.7525,0.7525,0.7525,0.7525,0.7525,0.7525,0.7525,0.7525,0.7525,0.7525,0.7525,0.7525,0.7525,0.7525,0.7525,0.7525,0.7525,0.7525,0.7525,0.7525,0.7525,0.7525,0.7525,0.7493,0.737,0.7301,0.7227,0.7101,0.7027,0.699,0.699,0.6374,0.5903,0.586,0.5286,0.4831,0.4932,0.4984,0.5022,0.5022,0.5022,0.5022,0.5022,0.5022,0.5022,0.5022,0.5179,0.5414,0.5651,0.5742,0.5871,0.6129,0.5676,0.552,0.5587,0.5125,0.4756,0.4397,0.4241,0.3815,0.3171,0.3009,0.2881,0.6608,0.6711,0.6587,0.6196,0.5992,0.5826,0.5447,0.5114,0.4889,0.4643,0.4068,0.3224,0.1865,0.1273,0.042,-0.1234,-0.0873,-0.0366,-0.0525,0.0627,0.1594,0.1839,0.2365,0.2811,0.3045,0.329,0.3454,0.3611,0.3611,0.3768,0.4162,0.4473,0.4787,0.5022,0.5335,0.5492,0.5414,0.5883,0.6275,0.6513,0.6669,0.6904,0.7291,0.7291,0.7369,0.7525,0.7525,0.7525,0.7525,0.7525,0.7525,0.7525,0.7525,0.7525,0.7525,0.7525,0.7525,0.7525,0.7525,0.7525,0.7525,0.7525,0.7525,0.7525,0.7525,0.7525,0.7525,0.7525,0.7525,0.7525,0.7525,0.7525,0.7501,0.7411,0.7346,0.7276,0.7186,0.7117,0.7072,0.7072,0.6456,0.5982,0.5927,0.5337,0.4943,0.4959,0.4995,0.5022,0.5022,0.5022,0.5022,0.5022,0.5022,0.5022,0.5022,0.5022,0.5179,0.5492,0.5369,0.5501,0.5736,0.5455,0.5299,0.5343,0.5037,0.4826,0.4554,0.4476,0.4055,0.3415,0.3253,0.3047,0.6145,0.6239,0.6196,0.5727,0.5495,0.5168,0.4367,0.4033,0.3816,0.3398,0.1992,0.0857,0.0806,-0.0504,-0.1595,-0.179,-0.1801,-0.1555,-0.0996,-0.0965,-0.0715,0.0075,0.0077,0.0386,0.1234,0.2028,0.2671,0.306,0.3139,0.3297,0.3768,0.3846,0.416,0.4941,0.5022,0.5022,0.5022,0.5492,0.5651,0.5651,0.6118,0.6509,0.6904,0.6904,0.7138,0.7525,0.7525,0.7525,0.7525,0.7525,0.7525,0.7525,0.7525,0.7525,0.7525,0.7525,0.7525,0.7525,0.7525,0.7525,0.7525,0.7525,0.7525,0.7525,0.7525,0.7525,0.7525,0.7525,0.7525,0.7525,0.7525,0.7525,0.7501,0.7411,0.7386,0.7366,0.728,0.726,0.726,0.726,0.6657,0.6077,0.6075,0.5396,0.4957,0.5011,0.5019,0.5022,0.5022,0.5022,0.5022,0.5022,0.5022,0.5022,0.5022,0.5022,0.5022,0.5022,0.5019,0.5019,0.5019,0.5019,0.5019,0.5019,0.5019,0.5019,0.5022,0.4633,0.4214,0.3905,0.3415,0.3047,0.5195,0.5308,0.5216,0.4707,0.4538,0.433,0.4027,0.3788,0.3608,0.3371,0.2402,0.1462,0.0907,-0.005,-0.0993,-0.1731,-0.1889,-0.1846,-0.1821,-0.1136,-0.0439,0.0074,0.1068,0.1796,0.2109,0.2352,0.2514,0.2671,0.2671,0.2905,0.3297,0.3297,0.3689,0.4554,0.4554,0.4709,0.5022,0.5179,0.5335,0.5651,0.5808,0.6118,0.6509,0.6509,0.6587,0.6666,0.6666,0.6666,0.6666,0.6978,0.706,0.7138,0.7369,0.7525,0.7525,0.7525,0.7525,0.7525,0.7525,0.7525,0.7525,0.7525,0.7525,0.7525,0.7525,0.7525,0.7525,0.7525,0.7525,0.7525,0.7525,0.7525,0.7517,0.7488,0.7435,0.7382,0.7354,0.7305,0.7264,0.7264,0.6629,0.6062,0.6085,0.5432,0.5,0.5019,0.5022,0.5022,0.5022,0.5022,0.5022,0.5022,0.5022,0.5022,0.5022,0.5022,0.5022,0.5022,0.5022,0.5038,0.5082,0.5082,0.5104,0.5145,0.5104,0.5082,0.5082,0.4926,0.4505,0.387,0.3485,0.3092,0.4437,0.45,0.4547,0.4209,0.4046,0.3927,0.3771,0.3398,0.304,0.285,0.1882,0.0958,0.0454,-0.0303,-0.1096,-0.1779,-0.1881,-0.1903,-0.1953,-0.1345,-0.0805,-0.0372,0.0766,0.1641,0.1806,0.2043,0.2357,0.2514,0.2514,0.2592,0.2826,0.2905,0.3219,0.3925,0.4241,0.4554,0.4787,0.4944,0.5179,0.5414,0.5414,0.5648,0.604,0.604,0.6118,0.6275,0.6275,0.6275,0.0,0.6587,0.6747,0.6904,0.7213,0.7369,0.7525,0.7525,0.7525,0.7525,0.7525,0.7525,0.7525,0.7525,0.7525,0.7525,0.7525,0.7525,0.7525,0.7525,0.7525,0.7525,0.7525,0.7525,0.7525,0.7525,0.748,0.7439,0.7439,0.7399,0.7362,0.7362,0.6715,0.6206,0.6206,0.5543,0.5022,0.5022,0.5022,0.5022,0.5022,0.5022,0.5022,0.5022,0.5041,0.5055,0.5055,0.5033,0.503,0.5055,0.5055,0.5082,0.5142,0.5145,0.5164,0.5202,0.5166,0.5145,0.5145,0.5008,0.4648,0.4138,0.3599,0.3283,0.0,0.3797,0.3944,0.3936,0.3817,0.3672,0.3501,0.2749,0.0,0.1931,0.0656,-0.0405,-0.0406,-0.1065,-0.1654,-0.1811,-0.182,-0.1748,-0.1537,-0.1527,-0.1375,-0.1154,-0.0386,0.0233,0.0551,0.1336,0.2043,0.2357,0.2435,0.2435,0.2435,0.2514,0.2671,0.3062,0.3846,0.4319,0.4319,0.4709,0.4944,0.4944,0.4944,0.5179,0.5573,0.5651,0.5883,0.6196,0.6196,0.6196,0.6196,0.6275,0.6509,0.6826,0.6904,0.7138,0.7447,0.7525,0.7525,0.7525,0.7525,0.7525,0.7525,0.7525,0.7525,0.7525,0.7525,0.7525,0.7525,0.7525,0.7525,0.7525,0.7525,0.7525,0.7525,0.7525,0.7525,0.7525,0.7525,0.7525,0.7525,0.7447,0.6822,0.6275,0.6275,0.557,0.5022,0.5022,0.5022,0.5022,0.5022,0.5022,0.5022,0.5027,0.5079,0.5115,0.5117,0.5066,0.5057,0.5115,0.5117,0.5145,0.5207,0.521,0.521,0.5215,0.521,0.521,0.521,0.4854,0.4631,0.4553,0.3768,0.3451,0.1686,0.0,0.261,0.2542,0.2043,0.1605,0.0,0.1355,0.1192,0.1114,0.0303,-0.0409,-0.048,-0.1156,-0.178,-0.2015,-0.2003,-0.1947,-0.1698,-0.0886,-0.0383,-0.032,0.0475,0.0868,0.0564,0.1111,0.1493,0.1571,0.1886,0.2043,0.2043,0.2357,0.2514,0.2671,0.314,0.3611,0.3925,0.4003,0.4238,0.4554,0.4554,0.4787,0.5179,0.5179,0.5179,0.5335,0.5335,0.5335,0.5335,0.5727,0.5886,0.6043,0.6669,0.6982,0.706,0.7369,0.7525,0.7525,0.7525,0.7525,0.7525,0.7525,0.7525,0.7525,0.7525,0.7525,0.7525,0.7525,0.7525,0.7525,0.7525,0.7525,0.7525,0.7525,0.7525,0.7525,0.7525,0.7525,0.7369,0.7138,0.6666,0.6196,0.5805,0.5335,0.5022,0.5022,0.5022,0.5022,0.5022,0.5022,0.5038,0.5085,0.5104,0.5131,0.5177,0.5169,0.5166,0.518,0.518,0.521,0.527,0.5273,0.5294,0.5341,0.5294,0.5273,0.5273,0.5204,0.4984,0.4691,0.4115,0.3701,0.0946,0.1191,0.1502,0.1421,0.1108,0.0795,0.0787,0.0518,0.0307,0.0253,-0.0404,-0.0973,-0.1018,-0.1411,-0.1805,-0.1993,-0.2082,-0.2056,-0.1791,-0.1091,-0.0561,-0.0406,0.008,0.0399,0.056,0.0791,0.1099,0.1256,0.165,0.1886,0.1886,0.2278,0.2514,0.2514,0.2748,0.3062,0.3454,0.3689,0.3925,0.4162,0.4162,0.4317,0.4709,0.4709,0.4787,0.5022,0.5022,0.5022,0.5022,0.5257,0.5492,0.573,0.6356,0.6747,0.6982,0.7369,0.7525,0.7525,0.7525,0.7525,0.7525,0.7525,0.7525,0.7525,0.7525,0.7525,0.7525,0.7525,0.7525,0.7525,0.7525,0.7525,0.7525,0.7525,0.7525,0.7525,0.7525,0.7525,0.7369,0.6982,0.6587,0.6196,0.573,0.5257,0.5022,0.5022,0.5022,0.503,0.506,0.5063,0.5085,0.5147,0.5177,0.5207,0.5243,0.527,0.5273,0.5245,0.5245,0.5273,0.5333,0.5335,0.5352,0.5384,0.5352,0.5335,0.5335,0.5335,0.5268,0.5046,0.4288,0.3868,0.0545,0.0472,0.0442,0.0489,0.0435,0.0328,0.0326,-0.0157,-0.0609,-0.0611,-0.1174,-0.166,-0.1738,-0.1812,-0.1898,-0.2012,-0.2079,-0.2083,-0.1939,-0.1611,-0.123,-0.0977,-0.0811,-0.0483,0.0237,0.0394,0.0628,0.1099,0.1493,0.1728,0.1728,0.2121,0.2278,0.2278,0.2278,0.2514,0.2826,0.3376,0.3611,0.3689,0.3689,0.3925,0.4319,0.4319,0.4554,0.4944,0.4944,0.4944,0.5022,0.5022,0.5257,0.5648,0.604,0.6431,0.6826,0.7291,0.7447,0.7525,0.7525,0.7525,0.7525,0.7525,0.7525,0.7525,0.7525,0.7525,0.7525,0.7525,0.7525,0.7525,0.7525,0.7525,0.7525,0.7525,0.7525,0.7525,0.7525,0.7525,0.7369,0.6904,0.6509,0.6118,0.5651,0.5257,0.5022,0.5022,0.5027,0.5055,0.5104,0.512,0.515,0.521,0.5262,0.5297,0.5308,0.5354,0.5363,0.5311,0.5308,0.533,0.5382,0.5384,0.5384,0.5384,0.5384,0.5384,0.5384,0.5384,0.5384,0.5384,0.4542,0.4036,-0.1091,-0.1175,-0.0872,-0.0368,-0.0847,-0.1411,-0.137,-0.1405,-0.1506,-0.1476,-0.1657,-0.1835,-0.194,-0.1962,-0.2026,-0.2243,-0.2048,-0.1882,-0.1851,-0.149,-0.1436,-0.1787,-0.144,-0.1193,-0.1051,-0.0636,-0.0236,0.0157,0.055,0.0785,0.0785,0.1256,0.1493,0.1493,0.1493,0.1493,0.157,0.2357,0.2906,0.3217,0.3217,0.3454,0.3925,0.3925,0.4081,0.4476,0.4476,0.4709,0.5022,0.5022,0.5022,0.5179,0.5648,0.604,0.6431,0.6826,0.7213,0.7525,0.7525,0.7525,0.7525,0.7525,0.7525,0.7525,0.7525,0.7525,0.7525,0.7525,0.7525,0.7525,0.7525,0.7525,0.7525,0.7525,0.7525,0.7525,0.7525,0.7525,0.7291,0.6509,0.6353,0.604,0.5257,0.5022,0.5022,0.5022,0.5066,0.5101,0.5109,0.5155,0.5213,0.5273,0.5289,0.5313,0.5365,0.5379,0.5382,0.5371,0.5371,0.5373,0.5384,0.5384,0.5384,0.5384,0.5384,0.5384,0.5384,0.5384,0.5384,0.5384,0.4878,0.4372,-0.1497,-0.1568,-0.149,-0.1248,-0.1372,-0.1694,-0.185,-0.1866,-0.1831,-0.1827,-0.1838,-0.1947,-0.2334,-0.2396,-0.2508,-0.2691,-0.2606,-0.2409,-0.2296,-0.2085,-0.2024,-0.2033,-0.1773,-0.16,-0.1357,-0.1107,-0.0785,-0.0393,0.0079,0.0393,0.055,0.1021,0.1336,0.1336,0.1336,0.1336,0.1336,0.165,0.2042,0.2434,0.2434,0.2826,0.3454,0.3454,0.3689,0.4084,0.4084,0.4317,0.4709,0.4709,0.4787,0.5022,0.5492,0.5962,0.6353,0.6978,0.7369,0.7525,0.7525,0.7525,0.7525,0.7525,0.7525,0.7525,0.7525,0.7525,0.7525,0.7525,0.7525,0.7525,0.7525,0.7525,0.7525,0.7525,0.7525,0.7525,0.7525,0.7525,0.7291,0.6431,0.6275,0.6037,0.5179,0.5022,0.5022,0.5022,0.5074,0.5123,0.5155,0.5213,0.5275,0.5335,0.5343,0.5354,0.5382,0.5384,0.5384,0.5384,0.5384,0.5384,0.5384,0.5384,0.5384,0.5384,0.5384,0.5384,0.5384,0.5384,0.5384,0.5384,0.4878,0.4626,-0.155,-0.1617,-0.1679,-0.182,-0.169,-0.1662,-0.2145,-0.2145,-0.2141,-0.2216,-0.2231,-0.2397,-0.2693,-0.2821,-0.2902,-0.3096,-0.322,-0.3169,-0.2897,-0.2845,-0.2771,-0.2423,-0.2341,-0.2084,-0.1653,-0.1493,-0.1256,-0.0785,-0.0471,-0.0157,0.0157,0.0471,0.0707,0.0864,0.0864,0.0864,0.1021,0.1021,0.1256,0.1728,0.1728,0.212,0.2668,0.2748,0.3062,0.3532,0.3611,0.3846,0.4241,0.4397,0.4554,0.4944,0.5335,0.5805,0.6196,0.7056,0.7291,0.7213,0.7213,0.7213,0.7213,0.7213,0.7291,0.7369,0.7369,0.7447,0.7525,0.7525,0.7525,0.7525,0.7525,0.7525,0.7525,0.7525,0.7525,0.7525,0.7525,0.7525,0.7291,0.6431,0.6275,0.6037,0.5179,0.5022,0.5025,0.5038,0.5093,0.5155,0.5215,0.5278,0.5333,0.5379,0.5384,0.5384,0.5384,0.5384,0.5384,0.5384,0.5384,0.5384,0.5384,0.5384,0.5384,0.5384,0.5384,0.5384,0.5384,0.5384,0.5384,0.5384,0.5046,0.4794,-0.1673,-0.1489,-0.1334,-0.1775,-0.1811,-0.1912,-0.243,-0.2504,-0.2592,-0.3099,-0.3276,-0.3296,-0.2966,-0.2989,-0.3106,-0.3093,-0.3463,-0.3739,-0.3703,-0.3701,-0.3703,-0.3699,-0.3304,-0.2831,-0.2437,-0.2043,-0.165,-0.1256,-0.1256,-0.1178,-0.1178,-0.1099,-0.0942,-0.0471,-0.0471,-0.0314,0.0079,0.0079,0.055,0.1336,0.1336,0.1336,0.1413,0.1807,0.22,0.2592,0.2983,0.3376,0.3846,0.4241,0.4397,0.4476,0.4865,0.5257,0.5727,0.6591,0.6744,0.6353,0.6353,0.6353,0.6353,0.6353,0.6666,0.6982,0.6982,0.7213,0.7525,0.7525,0.7525,0.7525,0.7525,0.7525,0.7525,0.7525,0.7525,0.7525,0.7525,0.7525,0.7291,0.6431,0.6275,0.6037,0.5179,0.5022,0.5038,0.5095,0.5158,0.5218,0.5278,0.5341,0.5379,0.5384,0.5384,0.5384,0.5384,0.5384,0.5384,0.5384,0.5384,0.5384,0.5384,0.5384,0.5384,0.5384,0.5384,0.5384,0.5384,0.5384,0.5384,0.5384,0.5384,0.5132,-0.156,-0.178,-0.1967,-0.1881,-0.2083,-0.2371,-0.2684,-0.2731,-0.2845,-0.3135,-0.3605,-0.4268,-0.5038,-0.517,-0.5156,-0.5322,-0.4922,-0.4498,-0.4243,-0.3925,-0.3768,-0.3768,-0.3611,-0.3454,-0.3299,-0.2905,-0.2512,-0.2043,-0.1807,-0.1571,-0.1336,-0.1336,-0.1256,-0.1021,-0.1021,-0.0942,-0.0785,-0.0785,-0.0628,-0.0314,0.0471,0.1021,0.1336,0.1493,0.1571,0.1807,0.2199,0.2591,0.2985,0.3454,0.3925,0.4476,0.5181,0.5495,0.573,0.6275,0.6431,0.6275,0.6275,0.6275,0.6275,0.6275,0.6431,0.6509,0.6509,0.6666,0.6744,0.6744,0.6744,0.69,0.7369,0.7525,0.7447,0.7213,0.7291,0.7447,0.7213,0.7138,0.6978,0.6431,0.6118,0.5727,0.51,0.5052,0.5085,0.5109,0.5196,0.5267,0.5292,0.5346,0.5384,0.5384,0.5384,0.5384,0.5384,0.5384,0.5384,0.5384,0.5384,0.5384,0.5384,0.5384,0.5384,0.5384,0.5384,0.5384,0.5384,0.5384,0.5384,0.5384,0.5384,0.53,-0.185,-0.2186,-0.2515,-0.2581,-0.2714,-0.2943,-0.3598,-0.3494,-0.3441,-0.3997,-0.4386,-0.5034,-0.6084,-0.6135,-0.6142,-0.6319,-0.5835,-0.5335,-0.5022,-0.4787,-0.4552,-0.4395,-0.4238,-0.416,-0.4003,-0.3611,-0.3219,-0.2906,-0.2671,-0.2356,-0.212,-0.212,-0.1963,-0.165,-0.165,-0.1571,-0.1336,-0.1336,-0.1336,-0.1256,-0.0393,0.0236,0.0707,0.0864,0.0942,0.1099,0.1493,0.1886,0.22,0.2669,0.3532,0.4476,0.5181,0.5492,0.5492,0.5962,0.604,0.588,0.588,0.588,0.588,0.588,0.5962,0.6118,0.6118,0.6196,0.6275,0.6275,0.6275,0.6431,0.6978,0.7135,0.7056,0.6744,0.6822,0.6822,0.6513,0.6513,0.6356,0.5962,0.5805,0.5573,0.51,0.5071,0.5117,0.5136,0.5229,0.53,0.5319,0.536,0.5384,0.5384,0.5384,0.5384,0.5384,0.5384,0.5384,0.5384,0.5384,0.5384,0.5384,0.5384,0.5384,0.5384,0.5384,0.5384,0.5384,0.5384,0.5384,0.5384,0.5384,0.5384,-0.2669,-0.268,-0.2939,-0.3956,-0.3678,-0.3601,-0.5485,-0.4996,-0.4501,-0.5926,-0.5938,-0.5627,-0.5627,-0.5627,-0.5627,-0.5627,-0.5994,-0.6353,-0.6275,-0.6275,-0.6118,-0.5651,-0.5257,-0.4865,-0.4476,-0.4084,-0.3846,-0.3846,-0.3846,-0.3768,-0.3768,-0.3768,-0.3376,-0.2514,-0.2514,-0.2121,-0.1336,-0.1336,-0.1336,-0.1336,-0.1336,-0.1099,-0.0628,-0.0157,0.0236,0.0628,0.1099,0.1256,0.1336,0.22,0.322,0.4397,0.4865,0.5022,0.5022,0.5495,0.5414,0.5022,0.5022,0.5022,0.5022,0.5022,0.5335,0.5651,0.5651,0.5883,0.6275,0.6275,0.6275,0.6275,0.6275,0.6275,0.6275,0.6275,0.5962,0.5573,0.5573,0.5573,0.5492,0.51,0.5335,0.5573,0.51,0.5071,0.5134,0.5194,0.5256,0.5316,0.5376,0.5384,0.5384,0.5384,0.5384,0.5384,0.5384,0.5384,0.5384,0.5384,0.5384,0.5384,0.5384,0.5384,0.5384,0.5384,0.5384,0.5384,0.5384,0.5384,0.5384,0.5384,0.5384,0.5384,-0.1866,-0.2753,-0.3679,-0.3766,-0.4585,-0.5635,-0.6634,-0.6098,-0.5825,-0.7322,-0.7299,-0.7319,-0.8503,-0.8261,-0.8032,-0.8571,-0.805,-0.7443,-0.7213,-0.69,-0.6587,-0.6118,-0.5962,-0.5883,-0.5727,-0.5335,-0.4944,-0.463,-0.4395,-0.4084,-0.3846,-0.3768,-0.3689,-0.3454,-0.3376,-0.3297,-0.3062,-0.3062,-0.3062,-0.3062,-0.3062,-0.2356,-0.1099,-0.0942,-0.0864,-0.0707,0.0079,0.0393,0.0471,0.1886,0.2749,0.3142,0.4162,0.4554,0.463,0.5022,0.51,0.5022,0.5022,0.5022,0.5022,0.5022,0.51,0.5179,0.5179,0.5257,0.5411,0.5411,0.5411,0.5411,0.5411,0.5411,0.5492,0.5727,0.573,0.5495,0.5257,0.4944,0.4711,0.4633,0.4473,0.4395,0.4554,0.4708,0.4857,0.5118,0.5292,0.5365,0.5382,0.5384,0.5384,0.5384,0.5384,0.5384,0.5384,0.5384,0.5384,0.5384,0.5384,0.5384,0.5384,0.5384,0.5384,0.5384,0.5384,0.5384,0.5384,0.5384,0.5384,0.5384,0.5384,0.5384,-0.3471,-0.4391,-0.5272,-0.5624,-0.6402,-0.7305,-0.8255,-0.7769,-0.7415,-0.8489,-0.8508,-0.8697,-0.9855,-0.9698,-0.9463,-0.9777,-0.9223,-0.8503,-0.808,-0.7842,-0.7451,-0.6822,-0.6744,-0.6666,-0.6353,-0.604,-0.5805,-0.557,-0.5257,-0.5022,-0.4787,-0.4787,-0.4709,-0.4552,-0.4395,-0.4238,-0.4005,-0.3846,-0.3768,-0.3768,-0.3768,-0.3297,-0.2277,-0.1964,-0.1571,-0.1256,-0.0707,-0.0393,-0.0157,0.1021,0.1728,0.2121,0.322,0.377,0.3925,0.4395,0.463,0.4787,0.4787,0.4865,0.5022,0.5022,0.5022,0.5022,0.5022,0.5022,0.5022,0.5022,0.5022,0.5022,0.5022,0.5022,0.5022,0.51,0.5025,0.4787,0.4314,0.4081,0.3846,0.3846,0.3861,0.3875,0.4112,0.4273,0.4413,0.4638,0.4956,0.519,0.5382,0.5384,0.5384,0.5384,0.5384,0.5384,0.5384,0.5384,0.5384,0.5384,0.5384,0.5384,0.5384,0.5384,0.5384,0.5384,0.5384,0.5384,0.5384,0.5384,0.5384,0.5384,0.5384,0.5384,-0.6332,-0.6813,-0.7229,-0.849,-0.8517,-0.8664,-1.0225,-0.9789,-0.9168,-0.948,-0.9563,-0.9761,-1.0267,-1.0368,-1.021,-0.9813,-0.9803,-0.9603,-0.9027,-0.8934,-0.8622,-0.7759,-0.7603,-0.7369,-0.6587,-0.6509,-0.6509,-0.6431,-0.6424,-0.6342,-0.6264,-0.6264,-0.6108,-0.5642,-0.5332,-0.4944,-0.4554,-0.4238,-0.4003,-0.4003,-0.4003,-0.4003,-0.3925,-0.3063,-0.22,-0.1492,-0.1492,-0.1178,-0.0707,-0.0314,0.0393,0.1178,0.2043,0.2591,0.2982,0.3532,0.3925,0.4241,0.4241,0.4552,0.4865,0.4944,0.4944,0.4944,0.5022,0.5022,0.5022,0.4944,0.4941,0.5022,0.4944,0.4944,0.4865,0.4476,0.4084,0.3689,0.3217,0.306,0.3062,0.3062,0.3405,0.367,0.3749,0.3821,0.3866,0.3911,0.4347,0.4806,0.5193,0.5284,0.5287,0.5292,0.5376,0.5379,0.5384,0.5384,0.5384,0.5384,0.5384,0.5384,0.5384,0.5384,0.5384,0.5384,0.5384,0.5384,0.5384,0.5384,0.5384,0.5384,0.5384,0.5384,-0.5634,-0.6686,-0.7801,-0.8296,-0.9346,-1.0447,-1.098,-1.0934,-1.0796,-1.0874,-1.0957,-1.1148,-1.1364,-1.1388,-1.1388,-1.1228,-1.114,-1.0791,-0.988,-0.9708,-0.9397,-0.8622,-0.8544,-0.8466,-0.831,-0.8232,-0.7994,-0.7291,-0.7228,-0.688,-0.6189,-0.6112,-0.6112,-0.5958,-0.601,-0.5962,-0.5883,-0.5805,-0.5724,-0.5724,-0.5724,-0.557,-0.5179,-0.4003,-0.3219,-0.2746,-0.2746,-0.2277,-0.1571,-0.1178,-0.0707,-0.0079,0.1099,0.1649,0.1806,0.2511,0.2825,0.2982,0.3297,0.3452,0.3609,0.4317,0.4554,0.4554,0.4865,0.5022,0.4944,0.463,0.4787,0.4944,0.463,0.4554,0.4397,0.4005,0.3846,0.3689,0.3217,0.2826,0.2592,0.2592,0.2677,0.2917,0.3231,0.3269,0.3471,0.3819,0.3994,0.4086,0.4177,0.4261,0.4356,0.4809,0.4814,0.4997,0.5379,0.5384,0.5384,0.5384,0.5384,0.5384,0.5384,0.5384,0.5384,0.5384,0.5384,0.5384,0.5384,0.5384,0.5384,0.5384,0.5384,0.5384,-0.6964,-0.7968,-0.8883,-0.9601,-1.0586,-1.1418,-1.1631,-1.1682,-1.1702,-1.1773,-1.174,-1.1801,-1.2106,-1.2211,-1.2131,-1.1892,-1.183,-1.15,-1.0736,-1.0641,-1.0408,-0.9708,-0.9475,-0.9324,-0.909,-0.8934,-0.8622,-0.8154,-0.8061,-0.7774,-0.7318,-0.7201,-0.7177,-0.7177,-0.7064,-0.7034,-0.7073,-0.6918,-0.6781,-0.69,-0.69,-0.6666,-0.62,-0.4709,-0.3925,-0.3689,-0.3532,-0.3219,-0.2748,-0.2356,-0.2042,-0.1649,-0.0393,0.0079,0.0157,0.102,0.1413,0.1647,0.1804,0.2196,0.259,0.306,0.3297,0.3532,0.3766,0.3766,0.3844,0.4081,0.4081,0.416,0.4319,0.4241,0.4003,0.3532,0.3454,0.3376,0.2905,0.2671,0.2514,0.2514,0.2526,0.2615,0.2851,0.2866,0.305,0.3572,0.3561,0.3636,0.3901,0.3905,0.3994,0.4263,0.4349,0.4452,0.4669,0.4757,0.4767,0.4707,0.4962,0.5046,0.5046,0.53,0.5384,0.5384,0.5384,0.5384,0.5384,0.5384,0.5384,0.5384,0.5384,0.5384,-0.8669,-0.9449,-1.0088,-1.1345,-1.1756,-1.1983,-1.2243,-1.2284,-1.2326,-1.245,-1.2233,-1.216,-1.2698,-1.2831,-1.2759,-1.2338,-1.2338,-1.2128,-1.1513,-1.1417,-1.1262,-1.0796,-1.0391,-1.007,-0.9682,-0.9356,-0.9113,-0.9036,-0.8932,-0.8792,-0.8716,-0.8629,-0.8581,-0.8581,-0.83,-0.82,-0.8287,-0.7901,-0.7787,-0.7864,-0.7804,-0.7669,-0.7295,-0.5727,-0.4944,-0.4711,-0.4395,-0.416,-0.4081,-0.3689,-0.3452,-0.3295,-0.2277,-0.1806,-0.1728,-0.0864,-0.0314,0.0,0.0157,0.0628,0.1255,0.1412,0.1726,0.2118,0.2118,0.2197,0.2433,0.306,0.306,0.2903,0.3611,0.3532,0.3297,0.2982,0.2903,0.2826,0.2592,0.2514,0.2514,0.2514,0.2534,0.2552,0.2552,0.2552,0.272,0.3068,0.3127,0.3198,0.3634,0.364,0.3723,0.3811,0.3811,0.3829,0.3956,0.3968,0.3987,0.4021,0.4367,0.4542,0.4542,0.4962,0.5132,0.5132,0.53,0.5384,0.5384,0.5384,0.5384,0.5384,0.5384,0.5384,-0.8445,-0.9674,-1.1002,-1.2216,-1.2538,-1.2648,-1.2963,-1.3029,-1.3036,-1.3058,-1.2768,-1.2549,-1.3098,-1.3389,-1.3431,-1.3147,-1.3126,-1.2834,-1.1901,-1.1805,-1.165,-1.1262,-1.101,-1.0868,-1.0791,-1.0609,-1.0393,-1.0016,-0.9973,-0.9752,-0.9313,-0.9297,-0.9287,-0.9287,-0.9303,-0.9366,-0.9376,-0.9301,-0.9312,-0.9327,-0.9051,-0.8997,-0.9007,-0.8067,-0.7053,-0.604,-0.5962,-0.5727,-0.5335,-0.5257,-0.51,-0.4706,-0.4158,-0.4001,-0.3844,-0.2982,-0.2668,-0.2511,-0.1804,-0.149,-0.1255,-0.0549,0.0,0.0392,0.0784,0.1177,0.1412,0.1098,0.1255,0.149,0.1177,0.1334,0.1728,0.1962,0.204,0.2121,0.2435,0.2514,0.2514,0.2514,0.2518,0.2521,0.2521,0.2521,0.2522,0.2605,0.2601,0.2601,0.2684,0.2684,0.2852,0.328,0.3283,0.3462,0.3909,0.395,0.3974,0.398,0.4099,0.412,0.412,0.412,0.4204,0.4204,0.4962,0.5384,0.5384,0.5384,0.5384,0.5384,0.5384,0.5384,-0.8747,-1.0018,-1.1206,-1.2239,-1.2477,-1.2518,-1.3014,-1.2976,-1.2852,-1.3126,-1.2991,-1.2853,-1.3163,-1.3326,-1.3355,-1.3283,-1.3275,-1.3094,-1.2719,-1.2636,-1.256,-1.2402,-1.2121,-1.193,-1.193,-1.1652,-1.1388,-1.1239,-1.1106,-1.0951,-1.073,-1.0657,-1.0614,-1.0614,-1.0669,-1.0663,-1.0521,-1.0521,-1.0449,-1.037,-1.0275,-1.0136,-1.0097,-0.9708,-0.8691,-0.7365,-0.7056,-0.6822,-0.6666,-0.6666,-0.6587,-0.6349,-0.5958,-0.5799,-0.5721,-0.5095,-0.486,-0.4782,-0.4153,-0.384,-0.3527,-0.29,-0.243,-0.2117,-0.1881,-0.1725,-0.149,-0.1254,-0.1019,-0.0784,-0.0549,-0.0314,-0.0078,0.0078,0.0314,0.0549,0.0706,0.1649,0.2514,0.2514,0.2514,0.2514,0.2514,0.2514,0.2514,0.2514,0.2514,0.2514,0.2514,0.2514,0.2598,0.2769,0.277,0.2943,0.314,0.3239,0.3256,0.3195,0.3456,0.3632,0.3632,0.3821,0.4001,0.4001,0.4695,0.5046,0.5046,0.53,0.5384,0.5384,0.5384,0.5384,-0.8947,-0.998,-1.0891,-1.1919,-1.2224,-1.2354,-1.2925,-1.2879,-1.2841,-1.3149,-1.323,-1.3207,-1.3263,-1.3318,-1.3327,-1.3327,-1.3327,-1.3327,-1.3178,-1.3178,-1.3178,-1.3178,-1.2918,-1.2667,-1.2667,-1.2409,-1.2167,-1.2167,-1.2129,-1.2067,-1.2067,-1.1956,-1.1893,-1.1893,-1.1893,-1.1804,-1.1623,-1.1623,-1.1536,-1.1491,-1.1454,-1.1314,-1.1207,-1.1089,-1.0402,-0.9236,-0.8457,-0.815,-0.815,-0.815,-0.815,-0.8072,-0.7833,-0.7673,-0.7673,-0.7201,-0.7123,-0.7045,-0.658,-0.6186,-0.5952,-0.5642,-0.5248,-0.4857,-0.4857,-0.4857,-0.4544,-0.3838,-0.3605,-0.3448,-0.274,-0.2507,-0.2352,-0.2273,-0.1881,-0.1333,-0.0628,0.0785,0.1886,0.1886,0.1886,0.1964,0.2435,0.2121,0.1886,0.1886,0.1886,0.1886,0.1886,0.1886,0.1886,0.1886,0.1886,0.1892,0.1909,0.1916,0.1926,0.1942,0.2272,0.252,0.252,0.2787,0.2969,0.2978,0.342,0.3942,0.4542,0.4878,0.5046,0.5046,0.5046,0.5046,-0.8706,-0.9337,-1.0043,-1.1449,-1.2055,-1.2435,-1.296,-1.3202,-1.3392,-1.3356,-1.3485,-1.3606,-1.3615,-1.3665,-1.378,-1.378,-1.378,-1.3632,-1.3252,-1.3178,-1.3178,-1.3178,-1.3037,-1.3014,-1.3014,-1.2872,-1.2783,-1.2783,-1.2768,-1.2768,-1.2768,-1.276,-1.2753,-1.2753,-1.2753,-1.2753,-1.2696,-1.2696,-1.2785,-1.2882,-1.2674,-1.2599,-1.2747,-1.251,-1.2347,-1.2192,-1.0563,-0.9864,-0.9864,-0.9864,-0.9864,-0.9864,-0.9864,-0.9864,-0.9786,-0.9392,-0.9231,-0.9153,-0.8764,-0.8613,-0.8613,-0.8608,-0.8297,-0.7898,-0.7898,-0.7591,-0.7201,-0.6815,-0.6658,-0.658,-0.6186,-0.5717,-0.5248,-0.493,-0.4461,-0.3447,-0.0628,0.0079,0.0157,0.0157,0.0157,0.0628,0.22,0.1178,0.0157,0.0157,0.0157,0.0157,0.0157,0.0157,0.0157,0.0157,0.0157,0.0157,0.0157,0.0159,0.016,0.016,0.0242,0.0244,0.0244,0.0325,0.0245,0.0248,0.0662,0.1913,0.4036,0.4036,0.4036,0.4036,0.4036,0.4036,-0.8652,-0.9332,-1.0054,-1.1151,-1.1695,-1.2134,-1.2783,-1.3796,-1.4603,-1.4862,-1.555,-1.6118,-1.6118,-1.4859,-1.3882,-1.3882,-1.3882,-1.4163,-1.4949,-1.5093,-1.5444,-1.643,-1.6506,-1.6112,-1.5123,-1.5834,-1.5575,-1.3682,-1.4386,-1.4529,-1.3539,-1.3539,-1.3539,-1.3539,-1.3539,-1.3396,-1.3111,-1.2896,-1.2835,-1.3006,-1.2919,-1.2956,-1.3117,-1.3025,-1.3029,-1.3123,-1.2505,-1.2022,-1.1572,-1.1572,-1.1572,-1.1572,-1.1572,-1.1572,-1.1572,-1.1411,-1.1411,-1.1333,-1.0946,-1.0791,-1.0713,-1.0474,-1.0314,-1.0158,-1.0158,-1.0081,-0.9925,-0.977,-0.9537,-0.9226,-0.9071,-0.8755,-0.8361,-0.7894,-0.7734,-0.7267,-0.5861,-0.391,-0.2427,-0.2427,-0.2427,-0.227,-0.1644,-0.2035,-0.2427,-0.2427,-0.2427,-0.2427,-0.2427,-0.2427,-0.2427,-0.2427,-0.2427,-0.2427,-0.2427,-0.2437,-0.2443,-0.2443,-0.2452,-0.2379,-0.2379,-0.2395,-0.2418,-0.2529,-0.2301,-0.083,0.1849,0.21,0.2268,0.2268,0.2268,0.2268,-0.8277,-0.8938,-0.9756,-1.1091,-1.156,-1.2106,-1.3483,-1.464,-1.5499,-1.5874,-1.6758,-1.7427,-1.7427,-1.6108,-1.5104,-1.5104,-1.5104,-1.5454,-1.643,-1.6628,-1.7087,-1.8122,-1.8336,-1.803,-1.6987,-1.7819,-1.7338,-1.4813,-1.5523,-1.5452,-1.3975,-1.3904,-1.3904,-1.3904,-1.3904,-1.3753,-1.3468,-1.3253,-1.3244,-1.3287,-1.334,-1.3432,-1.3547,-1.3601,-1.3678,-1.3785,-1.3785,-1.346,-1.2888,-1.2888,-1.2888,-1.2888,-1.2888,-1.2888,-1.2888,-1.2888,-1.2888,-1.2888,-1.2579,-1.2501,-1.2424,-1.2185,-1.2101,-1.2101,-1.2101,-1.2101,-1.2101,-1.1947,-1.1714,-1.1405,-1.125,-1.1011,-1.0773,-1.0469,-1.0469,-1.0385,-1.007,-0.757,-0.5468,-0.5468,-0.5468,-0.5468,-0.5468,-0.5468,-0.5468,-0.5468,-0.5468,-0.5468,-0.5468,-0.5468,-0.5468,-0.5468,-0.5468,-0.5468,-0.5468,-0.5468,-0.5468,-0.5468,-0.5468,-0.5468,-0.5468,-0.5431,-0.5496,-0.5665,-0.5628,-0.4622,-0.2683,-0.1175,-0.0503,-0.0503,-0.0503,-0.0503,0.0,0.0,0.0,-1.1257,-1.1776,-1.2428,-1.5108,-1.5739,-1.5838,-1.6432,-1.6904,-1.7303,-1.7313,-1.7507,-1.7591,-1.7591,-1.7534,-1.7545,-1.7545,-1.7805,-1.7945,-1.8013,-1.8287,-1.8497,-1.8428,-1.8508,-1.7819,-1.6211,-1.615,-1.5523,-1.3975,-1.3904,-1.3904,-1.3904,-1.3904,-1.3904,-1.3904,-1.3904,-1.3904,-1.3904,-1.4083,-1.4172,-1.418,-1.4343,-1.4416,-1.4424,-1.4424,-1.4176,-1.3729,-1.3729,-1.3729,-1.3729,-1.3729,-1.3729,-1.3744,-1.3737,-1.3737,-1.3744,-1.3744,-1.3744,-1.3744,-1.3744,-1.3744,-1.3744,-1.3744,-1.3744,-1.366,-1.3274,-1.312,-1.3042,-1.2656,-1.2579,-1.2579,-1.2579,-1.2579,-1.2579,-1.2579,-1.0618,-0.8896,-0.8818,-0.8818,-0.8818,-0.8818,-0.8818,-0.8818,-0.8818,-0.8818,-0.8818,-0.8818,-0.8818,-0.8818,-0.8818,-0.8818,-0.8818,-0.8818,-0.8818,-0.8818,-0.8818,-0.8818,-0.8818,-0.8818,-0.8818,-0.8919,-0.9215,-0.922,-0.9322,-0.953,-0.5945,-0.4193,-0.4193,-0.4193,-0.4193,-0.8968,0.0,0.0,0.0,0.0,0.0,-1.3625,-1.4911,-1.616,-1.6924,-1.8119,-1.9222,-1.9625,-1.9928,-2.0104,-2.0104,-1.8645,-1.7881,-1.9032,-1.9236,-1.9673,-2.0755,-2.0952,-2.06,-1.9522,-2.057,-1.9781,-1.6072,-1.7037,-1.6635,-1.4039,-1.3904,-1.3904,-1.3904,-1.3904,-1.3904,-1.3904,-1.3904,-1.3904,-1.3904,-1.3953,-1.3977,-1.3977,-1.4026,-1.4123,-1.4245,-1.4245,-1.4228,-1.4204,-1.4204,-1.4283,-1.4386,-1.4259,-1.4362,-1.4645,-1.4449,-1.4557,-1.4661,-1.4661,-1.4661,-1.4661,-1.4661,-1.4661,-1.4661,-1.4661,-1.4661,-1.4584,-1.4507,-1.4507,-1.443,-1.4353,-1.4276,-1.4276,-1.4276,-1.4276,-1.4276,-1.4276,-1.3722,-1.2867,-1.1714,-1.1482,-1.1482,-1.1482,-1.1482,-1.1482,-1.1482,-1.1482,-1.1482,-1.1482,-1.1482,-1.1482,-1.1482,-1.1482,-1.1482,-1.1482,-1.1482,-1.1482,-1.1482,-1.1482,-1.1482,-1.1482,-1.1482,-1.1563,-1.1665,-1.1671,-1.1801,-1.2068,-0.9248,-0.7865,-0.7865,-0.7865,-0.7865,-1.0428,-1.0699,-1.1323,-1.2563,0.0,0.0,-1.4675,-1.5648,-1.6567,-1.7585,-1.8648,-1.9573,-2.004,-2.0374,-2.0601,-2.0722,-1.9647,-1.9179,-2.0226,-2.0469,-2.0874,-2.1738,-2.1911,-2.1648,-2.0788,-2.166,-2.0881,-1.7622,-1.8367,-1.7686,-1.4719,-1.4032,-1.379,-1.379,-1.3863,-1.3904,-1.3904,-1.3904,-1.3904,-1.3904,-1.3904,-1.3904,-1.3904,-1.3904,-1.3961,-1.4066,-1.4066,-1.4115,-1.4213,-1.4213,-1.4359,-1.4586,-1.4473,-1.4562,-1.4732,-1.4627,-1.4659,-1.4741,-1.4741,-1.4797,-1.4854,-1.4854,-1.4911,-1.4968,-1.4968,-1.4919,-1.4871,-1.4944,-1.4968,-1.4968,-1.4968,-1.4968,-1.4968,-1.4968,-1.4968,-1.4968,-1.4968,-1.4968,-1.4737,-1.3729,-1.3505,-1.3505,-1.3505,-1.3505,-1.3505,-1.3505,-1.3505,-1.3505,-1.3505,-1.3505,-1.3505,-1.3505,-1.3505,-1.3505,-1.3505,-1.3505,-1.3505,-1.3505,-1.3505,-1.3505,-1.3505,-1.3505,-1.3579,-1.3747,-1.3747,-1.3872,-1.4128,-1.1979,-1.0992,-1.1037,-1.1037,-1.1037,-1.2057,-1.226,-1.288,-1.4337,-1.4353,0.0,-1.6815,-1.6967,-1.6954,-1.7983,-1.8424,-1.8744,-1.9162,-1.9412,-1.9706,-1.9987,-2.0347,-2.0708,-2.1056,-2.1336,-2.1574,-2.1574,-2.1737,-2.1884,-2.1884,-2.1911,-2.1332,-1.9875,-1.9633,-1.8429,-1.5798,-1.4613,-1.3952,-1.3821,-1.3994,-1.4006,-1.3839,-1.388,-1.3959,-1.4156,-1.3959,-1.411,-1.4395,-1.4252,-1.411,-1.411,-1.411,-1.411,-1.411,-1.411,-1.4244,-1.4399,-1.4383,-1.4399,-1.4432,-1.4408,-1.4416,-1.4432,-1.4432,-1.4538,-1.4676,-1.4676,-1.4781,-1.4903,-1.4903,-1.4797,-1.4708,-1.4862,-1.4919,-1.4935,-1.4935,-1.4952,-1.4968,-1.4968,-1.4968,-1.4968,-1.4968,-1.4968,-1.4968,-1.4968,-1.4968,-1.4968,-1.4968,-1.4968,-1.4968,-1.4968,-1.4968,-1.4968,-1.4968,-1.4968,-1.4968,-1.4968,-1.4968,-1.4968,-1.4968,-1.4968,-1.4968,-1.4968,-1.4968,-1.4968,-1.4968,-1.4968,-1.5041,-1.5204,-1.5228,-1.5317,-1.5488,-1.4062,-1.3479,-1.3693,-1.3707,-1.3714,-1.394,-1.4148,-1.474,-1.5149,-1.5857,0.0,-1.5658,-1.5973,-1.6353,-1.6353,-1.658,-1.7021,-1.7796,-1.8183,-1.849,-1.8784,-1.9479,-2.0241,-2.1002,-2.1162,-2.1189,-2.1189,-2.1243,-2.1283,-2.1283,-2.1496,-2.1046,-1.9531,-1.8517,-1.768,-1.7141,-1.6844,-1.6196,-1.5115,-1.5247,-1.4727,-1.3474,-1.3758,-1.4461,-1.5487,-1.439,-1.5159,-1.7479,-1.6221,-1.5664,-1.5664,-1.5664,-1.5664,-1.5664,-1.5664,-1.5095,-1.4213,-1.4066,-1.418,-1.4416,-1.4278,-1.431,-1.4432,-1.4432,-1.4456,-1.4481,-1.4481,-1.4505,-1.4538,-1.4538,-1.4513,-1.4497,-1.4529,-1.4643,-1.4757,-1.4757,-1.4862,-1.4968,-1.4968,-1.4968,-1.4968,-1.4968,-1.4968,-1.4968,-1.4968,-1.4968,-1.4968,-1.4968,-1.4968,-1.4968,-1.4968,-1.4968,-1.4968,-1.4968,-1.4968,-1.4968,-1.4968,-1.4968,-1.4968,-1.4968,-1.4968,-1.4968,-1.4968,-1.4968,-1.4968,-1.4968,-1.4968,-1.4984,-1.5017,-1.5163,-1.5252,-1.5293,-1.5297,-1.5302,-1.5333,-1.5483,-1.5463,-1.5676,-1.5665,-1.606,-1.6427,-1.6486,0.0,0.0,-1.5986,-1.5952,-1.6393,-1.6259,-1.6326,-1.7208,-1.7368,-1.7528,-1.7969,-1.8664,-1.9345,-1.9933,-2.0521,-2.0895,-2.0895,-2.0895,-2.0895,-2.0895,-2.1162,-2.1003,-2.0284,-1.8971,-1.8245,-1.8245,-1.7034,-1.6037,-1.5299,-1.4832,-1.4483,-1.4387,-1.457,-1.5422,-1.6865,-1.6106,-1.6639,-1.8379,-1.7426,-1.7097,-1.7268,-1.7268,-1.7268,-1.7268,-1.7268,-1.6844,-1.6292,-1.6188,-1.6273,-1.6371,-1.6339,-1.6367,-1.6381,-1.6381,-1.6456,-1.654,-1.654,-1.6606,-1.6618,-1.6618,-1.6618,-1.6443,-1.5629,-1.5523,-1.5532,-1.472,-1.47,-1.5058,-1.5885,-1.6107,-1.6415,-1.7236,-1.7388,-1.7169,-1.6339,-1.6186,-1.5956,-1.5122,-1.4968,-1.4968,-1.4968,-1.4968,-1.4968,-1.4968,-1.4968,-1.4968,-1.4968,-1.4968,-1.4968,-1.4968,-1.4968,-1.4968,-1.4968,-1.4968,-1.4968,-1.4968,-1.4968,-1.4968,-1.4968,-1.5057,-1.5106,-1.5106,-1.5374,-1.5553,-1.565,-1.574,-1.578,-1.7288,-1.7128,-1.7261,-1.7448,-1.7007,-1.6567,0.0,0.0,0.0,-1.663,-1.6152,-1.5899,-1.6723,-1.6567,-1.654,-1.7074,-1.7716,-1.8223,-1.8464,-1.9466,-2.0214,-2.0321,-2.0441,-2.0535,-2.0588,-2.0748,-2.0922,-2.1096,-1.9865,-1.9259,-1.9419,-1.7478,-1.6196,-1.5942,-1.5029,-1.4909,-1.5673,-1.575,-1.6604,-1.8235,-1.7744,-1.8077,-1.907,-1.8526,-1.8432,-1.8732,-1.8732,-1.8765,-1.8798,-1.8798,-1.9008,-1.9217,-1.8659,-1.8379,-1.8379,-1.8379,-1.8379,-1.8379,-1.8379,-1.8509,-1.861,-1.861,-1.8728,-1.8806,-1.8806,-1.8806,-1.8547,-1.7152,-1.6909,-1.679,-1.5544,-1.5397,-1.5834,-1.7168,-1.7602,-1.8029,-1.9372,-1.9597,-1.9222,-1.7954,-1.7652,-1.7152,-1.5335,-1.4968,-1.4968,-1.4968,-1.4968,-1.4968,-1.4968,-1.4968,-1.4968,-1.4968,-1.4968,-1.4968,-1.4968,-1.4935,-1.4927,-1.496,-1.4935,-1.4927,-1.496,-1.4968,-1.4968,-1.4968,-1.4968,-1.4968,-1.4968,-1.5114,-1.5285,-1.5463,-1.5496,-1.5512,-1.8531,-1.8664,-1.8814,-1.7568,-1.8144,-1.837,-1.6112,0.0,-1.6299,-1.5437,0.0,-1.5223,-1.5524,0.0,0.0,-1.5591,-1.6353,-1.6927,-1.6954,-1.7702,-1.8488,-1.9065,-1.9586,-2.0,-2.0254,-2.008,-2.0267,-2.1056,-2.0265,-2.0037,-2.0803,-2.0615,-1.9864,-1.8623,-1.8622,-1.8057,-1.6795,-1.7142,-1.7917,-1.9322,-1.8061,-1.8921,-2.1541,-2.0172,-1.9757,-2.0007,-2.0007,-2.0138,-2.0352,-2.0352,-2.1183,-2.2091,-1.9426,-1.8379,-1.8379,-1.8379,-1.8379,-1.8379,-1.8379,-1.8401,-1.8422,-1.8422,-1.8444,-1.8466,-1.8466,-1.8466,-1.8455,-1.8223,-1.8312,-1.8431,-1.8288,-1.8311,-1.8467,-1.8613,-1.8706,-1.8801,-1.8947,-1.902,-1.8947,-1.8801,-1.8728,-1.7906,-1.5438,-1.4968,-1.4968,-1.4968,-1.4968,-1.4968,-1.4968,-1.4968,-1.4968,-1.4968,-1.4968,-1.4968,-1.4968,-1.483,-1.4806,-1.4952,-1.4822,-1.4806,-1.496,-1.4968,-1.4968,-1.4968,-1.4968,-1.4968,-1.4968,-1.4984,-1.509,-1.5277,-1.5439,-1.5512,-1.8677,-1.8798,-1.8918,-1.813,-1.813,-1.7996,-1.6764,-1.6299,-1.6152,-1.6005,0.0,0.0,0.0,0.0,0.0,0.0,-1.5712,-1.5952,-1.5952,-1.637,-1.7116,-1.8263,-1.8624,-1.8958,-1.9426,-1.9519,-1.9706,-2.0067,-1.976,-1.9853,-2.0561,-2.0,-1.9461,-1.9036,-1.8307,-1.8049,-1.8139,-1.8281,-1.9125,-2.0695,-1.9918,-2.0459,-2.1977,-2.1215,-2.0963,-2.1219,-2.1219,-2.1296,-2.1398,-2.1398,-2.1802,-2.2298,-2.1157,-2.0828,-2.1044,-2.1044,-2.1044,-2.1044,-2.1044,-2.1044,-2.1044,-2.1044,-2.1044,-2.1044,-2.1044,-2.1044,-2.0825,-1.9924,-1.9726,-1.9596,-1.8752,-1.8642,-1.9029,-1.996,-2.0218,-2.0549,-2.1498,-2.1713,-2.1426,-2.0477,-2.026,-1.9664,-1.7575,-1.7243,-1.7243,-1.7243,-1.7243,-1.7243,-1.7243,-1.7243,-1.7243,-1.7243,-1.7243,-1.7243,-1.7243,-1.6434,-1.5913,-1.5993,-1.5211,-1.4741,-1.4814,-1.4911,-1.4968,-1.4968,-1.4968,-1.4968,-1.4968,-1.4968,-1.5009,-1.5082,-1.5163,-1.5195,-1.9011,-1.9065,-1.9118,-1.8424,-1.7969,-1.7542,-1.6927,-1.6473,-1.6246,-1.6433,-1.6152,0.0,0.0,0.0,-1.5217,-1.5271,0.0,-1.5364,-1.5284,-1.5458,-1.6046,-1.7275,-1.7716,-1.8062,-1.8582,-1.8731,-1.8948,-1.9225,-1.9011,-1.9239,-2.0067,-1.9394,-1.9162,-1.9435,-1.8617,-1.8588,-1.9559,-1.9559,-2.0234,-2.1494,-2.1216,-2.1336,-2.1737,-2.1523,-2.159,-2.1871,-2.1871,-2.1911,-2.1991,-2.1991,-2.1991,-2.2004,-2.2218,-2.2432,-2.2645,-2.2874,-2.2928,-2.2928,-2.2928,-2.2928,-2.2928,-2.2928,-2.2928,-2.2928,-2.2928,-2.2928,-2.2654,-2.154,-2.1252,-2.0975,-1.9924,-1.9714,-2.0133,-2.134,-2.1641,-2.2074,-2.3302,-2.3514,-2.3161,-2.2003,-2.1719,-2.1351,-2.0186,-1.9354,-1.8861,-1.8861,-1.8861,-1.8861,-1.8861,-1.8861,-1.8861,-1.8861,-1.8861,-1.8861,-1.8861,-1.7875,-1.7272,-1.7272,-1.637,-1.5817,-1.5817,-1.6015,-1.6121,-1.6174,-1.6174,-1.6057,-1.565,-1.565,-1.542,-1.4968,-1.4968,-1.4968,-1.992,-1.9973,-1.9773,-1.805,-1.7822,-1.7596,-1.6157,-1.6513,-1.6924,-1.6032,-1.6513,-1.6884,-1.5992,-1.5771,-1.5618,-1.5115,-1.5217,0.0,0.0,-1.5035,-1.5263,-1.5784,-1.6901,-1.7716,-1.7995,-1.7555,-1.7755,-1.8851,-1.813,-1.8277,-1.9733,-2.0033,-2.0326,-2.0619,-2.0836,-2.0982,-2.1046,-2.1046,-2.1046,-2.1122,-2.1109,-2.1122,-2.1136,-2.1122,-2.1283,-2.1628,-2.1628,-2.1789,-2.1991,-2.1991,-2.1991,-2.1991,-2.1991,-2.2004,-2.2084,-2.2659,-2.2928,-2.2928,-2.2928,-2.2928,-2.2928,-2.2928,-2.2928,-2.2928,-2.2928,-2.2928,-2.2859,-2.2859,-2.2859,-2.2791,-2.2791,-2.2722,-2.2804,-2.2804,-2.2886,-2.2886,-2.2886,-2.2954,-2.2886,-2.2886,-2.2817,-2.2817,-2.2749,-2.0639,-1.8861,-1.8861,-1.8861,-1.8861,-1.8861,-1.8861,-1.8861,-1.8861,-1.8861,-1.8861,-1.8861,-1.8742,-1.8613,-1.8613,-1.8755,-1.8799,-1.8799,-1.8737,-1.8927,-1.9245,-1.9255,-1.8615,-1.7331,-1.7331,-1.6492,-1.4968,-1.4968,-1.4968,-2.0375,-2.0307,-2.0201,-1.8811,-1.841,-1.7996,-1.67,-1.6794,-1.6951,-1.6005,-1.654,-1.6924,-1.5992,-1.5671,-1.5484,-1.5284,-1.5003,-1.4776,0.0,-1.4669,-1.475,-1.4937,-1.6005,-1.6526,-1.6046,-1.6526,-1.6941,-1.7154,-1.73,-1.7862,-1.9145,-1.9679,-2.0174,-2.0655,-2.0962,-2.1109,-2.1109,-2.1109,-2.1109,-2.1109,-2.1109,-2.1109,-2.1109,-2.1109,-2.1162,-2.1256,-2.1256,-2.1309,-2.1403,-2.1403,-2.1403,-2.143,-2.1617,-2.1762,-2.175,-2.2138,-2.2405,-2.2592,-2.2792,-2.2928,-2.2928,-2.2928,-2.2928,-2.2928,-2.2928,-2.2928,-2.2928,-2.2928,-2.2928,-2.2928,-2.2928,-2.2928,-2.2928,-2.2928,-2.2928,-2.2928,-2.2928,-2.2928,-2.2928,-2.2928,-2.2928,-2.2928,-2.2928,-2.2177,-2.1525,-2.1525,-2.1525,-2.1525,-2.1525,-2.1525,-2.1525,-2.1525,-2.1525,-2.1525,-2.1525,-2.0601,-1.9562,-1.8579,-1.8663,-1.8792,-1.8792,-1.8859,-1.8977,-1.9062,-1.9062,-1.8885,-1.8369,-1.8369,-1.8074,-1.7556,-1.7556,-1.7198,-2.2028,-2.1549,-2.1133,-2.0026,-1.9271,-1.8464,-1.7154,-1.7261,-1.742,-1.6635,-1.6854,-1.7177,-1.7123,-1.6338,-1.5759,-1.59,-1.5308,-1.4723,0.0,-1.4456,-1.4482,-1.4376,-1.5217,-1.5678,-1.5209,-1.5605,-1.6019,-1.6308,-1.6526,-1.7194,-1.8384,-1.9212,-1.9867,-2.0347,-2.0842,-2.1109,-2.1109,-2.1109,-2.1109,-2.1109,-2.1109,-2.1109,-2.1109,-2.1109,-2.1109,-2.1109,-2.1109,-2.1172,-2.1299,-2.1299,-2.1299,-2.1312,-2.1514,-2.1518,-2.1443,-2.1844,-2.2164,-2.2445,-2.2632,-2.2779,-2.2928,-2.2928,-2.2928,-2.2928,-2.2928,-2.2928,-2.2928,-2.2928,-2.2928,-2.2928,-2.2928,-2.2928,-2.2928,-2.2928,-2.2928,-2.2928,-2.2928,-2.2928,-2.2928,-2.2928,-2.2928,-2.2928,-2.2928,-2.2928,-2.2928,-2.2928,-2.2928,-2.2928,-2.2928,-2.2928,-2.2928,-2.2928,-2.2928,-2.2928,-2.2928,-2.2022,-2.1044,-2.0063,-2.0145,-2.018,-2.018,-2.025,-2.0377,-2.0482,-2.0482,-2.023,-1.9743,-1.9743,-1.9453,-1.8861,-1.8861,-1.8885]},{"header":{"parameterUnit":"m.s-1","parameterCategory":1,"la1":30.6,"la2":29.2853,"lo1":-89.7004,"lo2":-87.6739,"dy":0.0162,"dx":0.0183,"nx":112,"ny":82,"refTime":"2024-09-08T00:00:00:Z","depth":0,"parameterNumber":3,"parameterNumberName":"V-component_of_WINDS"},"data":[0.0,0.0,0.0,0.0,0.0,0.0,0.0,0.0,0.0,0.0,0.0,0.0,0.0,0.0,0.0,0.0,0.0,0.0,0.0,0.0,0.0,0.0,0.0,0.0,0.0,0.0,0.0,0.0,0.0,0.0,0.0,0.0,0.0,0.0,0.0,0.0,0.0,0.0,0.0,0.0,0.0,0.0,0.0,0.0,0.0,0.0,0.0,0.0,0.0,0.0,0.0,0.0,0.0,0.0,0.0,0.0,0.0,0.0,0.0,0.0,0.0,0.0,0.0,0.0,0.0,0.0,0.0,0.0,0.0,0.0,0.0,0.0,0.0,0.0,0.0,0.0,0.0,0.0,0.0,0.0,0.0,0.0,0.0,0.0,0.0,0.0,0.0,0.0,0.0,0.0,5.6169,6.0867,6.4877,6.7063,6.6731,6.6011,6.3045,5.7041,0.0,0.0,0.0,0.0,0.0,0.0,0.0,0.0,0.0,0.0,0.0,0.0,0.0,0.0,0.0,0.0,0.0,0.0,0.0,0.0,0.0,0.0,0.0,0.0,0.0,0.0,0.0,0.0,0.0,0.0,0.0,0.0,0.0,0.0,0.0,0.0,0.0,0.0,0.0,0.0,0.0,0.0,0.0,0.0,0.0,0.0,0.0,0.0,0.0,0.0,0.0,0.0,0.0,0.0,0.0,0.0,0.0,0.0,0.0,0.0,0.0,0.0,0.0,0.0,0.0,0.0,0.0,0.0,0.0,0.0,0.0,0.0,0.0,0.0,0.0,0.0,0.0,0.0,0.0,0.0,0.0,0.0,0.0,0.0,0.0,0.0,0.0,0.0,0.0,0.0,0.0,0.0,0.0,0.0,0.0,0.0,0.0,0.0,0.0,0.0,0.0,0.0,0.0,0.0,5.7051,6.4033,6.6223,6.7216,6.7267,6.6245,6.3268,5.7782,0.0,0.0,0.0,0.0,0.0,0.0,0.0,0.0,0.0,0.0,0.0,0.0,0.0,0.0,0.0,0.0,0.0,0.0,0.0,0.0,0.0,0.0,0.0,0.0,0.0,0.0,0.0,0.0,0.0,0.0,0.0,0.0,0.0,0.0,0.0,0.0,0.0,0.0,0.0,0.0,0.0,0.0,0.0,0.0,0.0,0.0,0.0,0.0,0.0,0.0,0.0,0.0,0.0,0.0,0.0,0.0,0.0,0.0,0.0,0.0,0.0,0.0,0.0,0.0,0.0,0.0,0.0,0.0,0.0,0.0,0.0,0.0,0.0,0.0,0.0,0.0,0.0,0.0,0.0,0.0,0.0,0.0,0.0,0.0,0.0,0.0,0.0,0.0,0.0,0.0,0.0,0.0,0.0,0.0,0.0,0.0,0.0,0.0,0.0,0.0,0.0,0.0,0.0,5.7299,6.1128,6.6843,6.8391,6.8939,6.8762,6.7567,6.4183,5.7985,5.4706,0.0,0.0,0.0,0.0,0.0,0.0,0.0,0.0,0.0,0.0,0.0,0.0,0.0,0.0,0.0,0.0,0.0,0.0,0.0,0.0,0.0,0.0,0.0,0.0,0.0,0.0,0.0,0.0,0.0,0.0,0.0,0.0,0.0,0.0,0.0,0.0,0.0,0.0,0.0,0.0,0.0,0.0,0.0,0.0,0.0,0.0,0.0,0.0,0.0,0.0,0.0,0.0,0.0,0.0,0.0,0.0,0.0,0.0,0.0,0.0,0.0,0.0,0.0,0.0,0.0,0.0,0.0,0.0,0.0,0.0,0.0,0.0,0.0,0.0,0.0,0.0,0.0,0.0,0.0,0.0,0.0,0.0,0.0,0.0,0.0,0.0,0.0,0.0,0.0,0.0,0.0,0.0,0.0,0.0,0.0,0.0,0.0,0.0,0.0,0.0,0.0,0.0,6.2757,6.5379,6.8977,7.0085,7.0357,6.9953,6.8518,6.4762,5.8022,5.435,0.0,0.0,0.0,0.0,0.0,0.0,0.0,0.0,0.0,0.0,0.0,0.0,0.0,0.0,0.0,0.0,0.0,0.0,0.0,0.0,0.0,0.0,0.0,0.0,0.0,0.0,0.0,0.0,0.0,0.0,0.0,0.0,0.0,0.0,0.0,0.0,0.0,0.0,0.0,0.0,0.0,0.0,0.0,0.0,0.0,0.0,0.0,0.0,0.0,0.0,0.0,0.0,0.0,0.0,0.0,0.0,0.0,0.0,0.0,0.0,0.0,0.0,0.0,0.0,0.0,0.0,0.0,0.0,0.0,0.0,0.0,0.0,0.0,0.0,0.0,0.0,0.0,0.0,0.0,0.0,0.0,0.0,0.0,0.0,0.0,0.0,0.0,0.0,0.0,0.0,0.0,0.0,0.0,0.0,0.0,0.0,0.0,0.0,0.0,0.0,0.0,0.0,6.4154,6.8241,7.0035,7.0497,7.046,6.9916,6.8097,6.4281,5.8005,5.3302,0.0,0.0,0.0,0.0,0.0,0.0,0.0,0.0,0.0,0.0,0.0,0.0,0.0,0.0,0.0,0.0,0.0,0.0,0.0,0.0,0.0,0.0,0.0,0.0,0.0,0.0,0.0,0.0,0.0,0.0,0.0,0.0,0.0,0.0,0.0,0.0,0.0,0.0,0.0,0.0,0.0,0.0,0.0,0.0,0.0,0.0,0.0,0.0,0.0,0.0,0.0,0.0,0.0,0.0,0.0,0.0,0.0,0.0,0.0,0.0,0.0,0.0,0.0,0.0,0.0,0.0,0.0,0.0,0.0,0.0,0.0,0.0,0.0,0.0,0.0,0.0,0.0,0.0,0.0,0.0,0.0,0.0,0.0,0.0,0.0,0.0,0.0,0.0,0.0,0.0,0.0,0.0,0.0,0.0,0.0,0.0,0.0,0.0,0.0,0.0,0.0,0.0,6.3825,6.7774,7.1072,7.1065,7.0661,7.0247,6.915,6.5168,5.7377,0.0,0.0,0.0,0.0,0.0,0.0,0.0,0.0,0.0,0.0,0.0,0.0,0.0,0.0,0.0,0.0,0.0,0.0,0.0,0.0,0.0,0.0,0.0,0.0,0.0,0.0,0.0,0.0,0.0,0.0,0.0,0.0,0.0,0.0,0.0,0.0,0.0,0.0,0.0,0.0,0.0,0.0,0.0,0.0,0.0,0.0,0.0,0.0,0.0,0.0,0.0,0.0,0.0,0.0,0.0,0.0,0.0,0.0,0.0,0.0,0.0,0.0,0.0,0.0,0.0,0.0,0.0,0.0,0.0,0.0,0.0,0.0,0.0,0.0,0.0,0.0,0.0,0.0,0.0,0.0,0.0,0.0,0.0,0.0,0.0,0.0,0.0,0.0,0.0,0.0,0.0,0.0,0.0,0.0,0.0,0.0,0.0,0.0,0.0,0.0,0.0,0.0,5.99,6.465,6.8544,7.1712,7.1573,7.084,6.9837,6.9179,6.5124,5.644,0.0,0.0,0.0,0.0,0.0,0.0,0.0,0.0,0.0,0.0,0.0,0.0,0.0,0.0,0.0,0.0,0.0,0.0,0.0,0.0,0.0,0.0,0.0,0.0,0.0,0.0,0.0,0.0,0.0,0.0,0.0,0.0,0.0,0.0,0.0,0.0,0.0,0.0,0.0,0.0,0.0,0.0,0.0,0.0,0.0,0.0,0.0,0.0,0.0,0.0,0.0,0.0,0.0,0.0,0.0,0.0,0.0,0.0,0.0,0.0,0.0,0.0,0.0,0.0,0.0,0.0,0.0,0.0,0.0,0.0,0.0,0.0,0.0,0.0,0.0,0.0,0.0,0.0,0.0,0.0,0.0,0.0,0.0,0.0,0.0,0.0,0.0,0.0,0.0,0.0,0.0,0.0,0.0,0.0,0.0,0.0,0.0,0.0,0.0,0.0,0.0,0.0,6.0713,6.6894,7.1078,7.1824,7.1962,7.1023,6.8602,6.7916,6.3888,0.0,0.0,0.0,0.0,0.0,0.0,0.0,0.0,0.0,0.0,0.0,0.0,0.0,0.0,0.0,0.0,0.0,0.0,0.0,0.0,0.0,0.0,0.0,0.0,0.0,0.0,0.0,0.0,0.0,0.0,0.0,0.0,0.0,0.0,0.0,0.0,0.0,0.0,0.0,0.0,0.0,0.0,0.0,0.0,0.0,0.0,0.0,0.0,0.0,0.0,0.0,0.0,0.0,0.0,0.0,0.0,0.0,0.0,0.0,0.0,0.0,0.0,0.0,0.0,0.0,0.0,0.0,0.0,0.0,0.0,0.0,0.0,0.0,0.0,0.0,0.0,0.0,0.0,0.0,0.0,0.0,0.0,0.0,0.0,0.0,0.0,0.0,0.0,0.0,0.0,0.0,0.0,0.0,0.0,0.0,0.0,0.0,0.0,0.0,0.0,0.0,0.0,0.0,6.0847,6.703,7.1237,7.2225,7.2281,7.1352,6.9095,6.871,6.4911,5.6261,0.0,0.0,0.0,0.0,0.0,0.0,0.0,0.0,0.0,0.0,0.0,0.0,0.0,0.0,0.0,0.0,0.0,0.0,0.0,0.0,0.0,0.0,0.0,0.0,0.0,0.0,0.0,0.0,0.0,0.0,0.0,0.0,0.0,0.0,0.0,0.0,0.0,0.0,0.0,0.0,0.0,0.0,0.0,0.0,0.0,0.0,0.0,0.0,0.0,0.0,0.0,0.0,0.0,0.0,0.0,0.0,0.0,0.0,0.0,0.0,0.0,0.0,0.0,0.0,0.0,0.0,0.0,0.0,0.0,0.0,0.0,0.0,0.0,0.0,0.0,0.0,0.0,0.0,0.0,0.0,0.0,0.0,0.0,0.0,0.0,0.0,0.0,0.0,0.0,0.0,0.0,0.0,0.0,0.0,0.0,0.0,0.0,0.0,0.0,0.0,0.0,0.0,6.0938,6.7051,7.1273,7.2236,7.2317,7.1303,6.8947,6.874,6.5367,5.745,0.0,0.0,0.0,0.0,0.0,0.0,0.0,0.0,0.0,0.0,0.0,0.0,0.0,0.0,0.0,0.0,0.0,0.0,0.0,0.0,0.0,0.0,0.0,0.0,0.0,0.0,0.0,0.0,0.0,0.0,0.0,0.0,0.0,0.0,0.0,0.0,0.0,0.0,0.0,0.0,0.0,0.0,0.0,0.0,0.0,0.0,0.0,0.0,0.0,0.0,0.0,0.0,0.0,0.0,0.0,0.0,0.0,0.0,0.0,0.0,0.0,0.0,0.0,0.0,0.0,0.0,0.0,0.0,0.0,0.0,0.0,0.0,0.0,0.0,0.0,0.0,0.0,0.0,0.0,0.0,0.0,0.0,0.0,0.0,0.0,0.0,0.0,0.0,0.0,0.0,0.0,0.0,0.0,0.0,0.0,0.0,0.0,0.0,0.0,0.0,0.0,0.0,6.0808,6.688,7.0986,7.1776,7.1876,7.0887,6.845,6.8185,6.5396,5.8858,0.0,0.0,0.0,0.0,0.0,0.0,0.0,0.0,0.0,0.0,0.0,0.0,0.0,0.0,0.0,0.0,0.0,0.0,0.0,0.0,0.0,0.0,0.0,0.0,0.0,0.0,0.0,0.0,0.0,0.0,0.0,0.0,0.0,0.0,0.0,0.0,0.0,0.0,0.0,0.0,0.0,0.0,0.0,0.0,0.0,0.0,0.0,0.0,0.0,0.0,0.0,0.0,0.0,0.0,0.0,0.0,0.0,0.0,0.0,0.0,4.5106,4.3717,0.0,0.0,0.0,0.0,0.0,0.0,0.0,0.0,0.0,0.0,0.0,0.0,0.0,0.0,0.0,0.0,0.0,0.0,0.0,0.0,0.0,0.0,0.0,0.0,0.0,0.0,0.0,0.0,0.0,0.0,0.0,0.0,0.0,0.0,0.0,0.0,0.0,0.0,0.0,0.0,6.0018,6.5484,6.9269,7.0102,7.0217,6.9717,6.8473,6.7756,6.5603,6.1527,5.7236,0.0,0.0,0.0,0.0,0.0,0.0,0.0,0.0,0.0,0.0,0.0,0.0,0.0,0.0,0.0,0.0,0.0,0.0,0.0,0.0,0.0,0.0,0.0,0.0,0.0,0.0,0.0,0.0,0.0,0.0,0.0,0.0,0.0,0.0,0.0,0.0,0.0,0.0,0.0,0.0,0.0,0.0,0.0,0.0,0.0,0.0,0.0,0.0,0.0,0.0,0.0,0.0,0.0,0.0,0.0,0.0,0.0,0.0,0.0,4.7634,4.6792,0.0,0.0,0.0,0.0,0.0,0.0,0.0,0.0,0.0,0.0,0.0,0.0,0.0,0.0,0.0,0.0,0.0,0.0,0.0,0.0,0.0,0.0,0.0,0.0,0.0,0.0,0.0,0.0,0.0,0.0,0.0,0.0,0.0,0.0,0.0,0.0,0.0,0.0,0.0,0.0,5.9907,6.4437,6.7667,6.8936,6.909,6.8898,6.8423,6.759,6.6167,6.4051,5.9538,0.0,0.0,0.0,0.0,0.0,0.0,0.0,0.0,0.0,0.0,0.0,0.0,0.0,0.0,0.0,0.0,0.0,0.0,0.0,0.0,0.0,0.0,0.0,0.0,0.0,0.0,0.0,0.0,0.0,0.0,0.0,0.0,0.0,0.0,0.0,0.0,0.0,0.0,0.0,0.0,0.0,0.0,0.0,0.0,0.0,0.0,0.0,0.0,0.0,0.0,0.0,0.0,0.0,5.044,5.0685,5.1512,5.2435,5.305,5.3248,5.1011,5.1045,5.2425,4.9996,0.0,0.0,0.0,0.0,0.0,0.0,0.0,0.0,0.0,0.0,0.0,0.0,0.0,0.0,0.0,0.0,0.0,0.0,0.0,0.0,0.0,0.0,5.3147,5.2011,5.3174,5.3178,4.8103,0.0,0.0,0.0,0.0,0.0,0.0,0.0,0.0,0.0,0.0,0.0,6.0154,6.3666,6.6244,6.7821,6.7975,6.809,6.8385,6.759,6.6859,6.6359,6.182,5.805,0.0,0.0,0.0,0.0,0.0,0.0,0.0,0.0,0.0,0.0,0.0,0.0,0.0,0.0,0.0,0.0,0.0,0.0,0.0,0.0,0.0,0.0,0.0,0.0,0.0,0.0,0.0,0.0,0.0,0.0,0.0,0.0,4.0775,4.1108,0.0,0.0,0.0,0.0,0.0,0.0,0.0,0.0,0.0,0.0,0.0,0.0,0.0,4.938,5.0284,5.1791,5.2736,5.3004,5.3716,5.4549,5.5481,5.6368,5.7218,5.8029,5.8491,0.0,5.5381,5.4307,0.0,0.0,0.0,0.0,0.0,0.0,0.0,0.0,0.0,0.0,0.0,0.0,0.0,0.0,0.0,0.0,0.0,0.0,0.0,0.0,0.0,0.0,5.5626,5.6132,5.5961,5.5265,5.3644,4.969,4.6389,4.6187,4.4585,4.3202,0.0,0.0,0.0,0.0,0.0,0.0,6.0242,6.3128,6.5166,6.6128,6.6244,6.6821,6.8269,6.759,6.7359,6.8052,6.4666,6.1512,5.8934,5.4164,0.0,0.0,0.0,0.0,0.0,0.0,0.0,0.0,0.0,0.0,0.0,0.0,0.0,0.0,0.0,0.0,0.0,0.0,0.0,0.0,0.0,0.0,0.0,0.0,0.0,0.0,0.0,0.0,0.0,4.235,4.4088,4.5412,4.5148,4.5015,0.0,0.0,0.0,0.0,0.0,0.0,0.0,0.0,0.0,5.0272,5.1162,5.2052,5.3013,5.4307,5.5474,5.6512,5.6966,5.7648,5.8597,5.944,6.006,6.063,6.1997,6.2188,6.1267,5.8315,5.677,5.6102,0.0,0.0,0.0,0.0,5.5356,5.5161,5.6747,5.6785,5.594,5.4947,0.0,0.0,0.0,0.0,0.0,0.0,0.0,5.336,5.4276,5.5935,5.7516,5.784,5.7651,5.7278,5.6807,5.4183,5.134,4.9368,4.946,4.8994,4.6288,4.6759,0.0,0.0,0.0,5.7291,6.1062,6.332,6.4936,6.582,6.5897,6.6359,6.7552,6.7321,6.7244,6.7667,6.5397,6.2897,6.0319,5.6703,5.3356,0.0,0.0,0.0,0.0,0.0,0.0,0.0,0.0,0.0,0.0,0.0,0.0,0.0,0.0,0.0,0.0,0.0,0.0,0.0,0.0,0.0,0.0,0.0,0.0,0.0,0.0,0.0,0.0,4.4591,4.5978,4.8296,4.7616,4.7164,0.0,0.0,0.0,0.0,0.0,0.0,4.9978,5.0679,5.1585,5.2726,5.3671,5.4693,5.586,5.6852,5.8111,5.966,5.9908,6.0526,6.1488,6.232,6.2899,6.3258,6.4821,6.5872,6.6217,6.2538,6.0599,5.9946,5.9197,5.8324,5.78,5.9642,5.9962,5.9725,6.1764,6.2089,6.1339,5.9955,5.9076,5.8068,5.5428,0.0,0.0,0.0,0.0,5.6811,5.7501,5.8509,5.933,5.9352,5.9321,5.9143,5.8564,5.8029,5.65,5.2488,5.3376,5.3523,4.9493,5.0291,0.0,5.3283,5.5885,5.8858,6.2293,6.382,6.4936,6.582,6.5897,6.6244,6.7013,6.7282,6.7321,6.709,6.5743,6.3782,6.1243,5.8484,5.5703,5.2933,0.0,0.0,0.0,0.0,0.0,0.0,0.0,0.0,0.0,0.0,0.0,0.0,0.0,0.0,0.0,0.0,0.0,0.0,0.0,0.0,0.0,0.0,0.0,0.0,0.0,0.0,0.0,0.0,0.0,4.7495,4.7868,0.0,0.0,0.0,0.0,5.0354,5.1882,5.2575,5.2069,5.4295,5.5366,5.4848,5.5698,5.7025,5.8768,5.9645,6.0609,6.1642,6.2514,6.3385,6.4308,6.5242,6.615,6.6972,6.7945,6.8405,6.8355,6.7179,6.651,6.6227,6.6174,6.5482,6.4527,6.4915,6.5025,6.5068,6.55,6.5641,6.5846,6.7409,6.6302,6.388,6.128,6.052,0.0,0.0,6.0337,6.1608,6.1464,6.1402,6.1362,6.1362,6.1325,6.076,5.897,6.0623,6.0875,5.5523,5.47,5.4334,5.2625,0.0,5.5744,5.7601,5.8746,6.0627,6.4012,6.4551,6.4936,6.582,6.5897,6.6244,6.7013,6.7859,6.7975,6.7128,6.6282,6.4666,6.2139,5.8792,5.6522,5.5511,5.1433,0.0,0.0,0.0,0.0,0.0,0.0,0.0,0.0,0.0,0.0,0.0,0.0,0.0,0.0,0.0,0.0,0.0,0.0,0.0,0.0,0.0,0.0,0.0,0.0,0.0,0.0,0.0,0.0,5.0783,5.0333,0.0,5.0408,5.134,5.2074,5.2375,5.3565,5.4488,5.4857,5.632,5.7297,5.7652,5.9081,6.0155,6.0822,6.1707,6.2912,6.4437,6.4769,6.5678,6.7164,6.7482,6.7826,6.822,6.9119,6.9501,6.9535,6.9722,6.9049,6.7911,6.7911,6.768,6.732,6.7423,6.7449,6.75,6.76,6.7625,6.774,6.8343,6.7981,6.695,6.5461,6.5048,6.4867,6.3973,6.37,6.3641,6.3591,6.3052,6.2494,6.2433,6.1955,6.1323,6.0624,6.0806,6.0432,5.7996,5.8401,5.8277,5.5616,5.6612,5.8068,5.8856,6.0633,6.2732,6.5128,6.5436,6.5743,6.659,6.6205,6.6013,6.6282,6.709,6.7205,6.6359,6.5513,6.4166,6.2178,5.9858,5.7973,5.656,5.4511,5.1972,0.0,0.0,0.0,0.0,0.0,0.0,0.0,0.0,0.0,0.0,0.0,0.0,0.0,0.0,0.0,0.0,0.0,0.0,0.0,0.0,0.0,0.0,0.0,0.0,0.0,4.9502,5.0288,5.3512,5.2887,5.2454,5.3198,5.4207,5.492,5.5216,5.5964,5.6778,5.7728,5.8661,5.9431,6.0047,6.1517,6.2438,6.2798,6.3655,6.4883,6.6369,6.6699,6.7645,6.9069,6.9081,6.927,6.9612,7.0192,7.0446,7.0479,7.1059,7.059,6.9517,6.9517,6.9517,6.9517,6.9517,6.9517,6.9517,6.9517,6.9517,6.9517,6.9517,6.9517,6.9401,6.8822,6.8629,6.8474,6.7641,6.6734,6.5931,6.5575,6.4744,6.3898,6.3546,6.2992,6.2376,6.1693,6.1335,6.0929,6.0144,6.0613,6.037,5.7953,5.8962,6.0457,6.144,6.3077,6.491,6.6936,6.6999,6.6884,6.709,6.6666,6.6307,6.632,6.6551,6.659,6.632,6.4974,6.3666,6.2551,6.0319,5.8588,5.7473,5.628,5.4049,5.0664,0.0,0.0,0.0,0.0,0.0,0.0,0.0,0.0,0.0,0.0,0.0,0.0,0.0,0.0,0.0,0.0,0.0,0.0,0.0,0.0,0.0,0.0,0.0,5.1936,5.1403,5.2128,5.5329,5.5249,5.5261,5.6034,5.7043,5.7999,5.8925,5.9073,5.9554,6.0545,6.1439,6.2003,6.2131,6.2938,6.3846,6.4802,6.5596,6.648,6.7413,6.8331,6.9204,7.0054,7.0032,7.0479,7.1291,7.1291,7.1291,7.1291,7.1291,7.1291,7.1291,7.1291,7.1291,7.1291,7.1291,7.1291,7.1291,7.1291,7.1291,7.1291,7.1291,7.1291,7.1291,7.1291,7.1291,7.1126,7.0258,6.9397,6.8474,6.7509,6.6537,6.5577,6.4744,6.4486,6.3921,6.2167,6.2421,6.2766,6.1923,6.1106,6.0328,5.9562,6.094,6.3024,6.5499,6.602,0.0,6.9438,6.9063,6.8277,6.7357,6.728,6.7217,6.7141,6.641,6.6256,6.7026,6.4705,6.332,6.332,6.0165,5.8434,5.8473,5.6714,5.5021,5.3395,0.0,0.0,0.0,0.0,0.0,0.0,0.0,0.0,0.0,0.0,0.0,0.0,0.0,0.0,0.0,0.0,0.0,0.0,0.0,0.0,0.0,5.5593,5.6341,5.43,5.4443,5.5125,5.6034,5.7156,5.7944,5.8134,5.965,6.0731,6.0991,6.1632,6.2196,6.2589,6.3986,6.4831,6.4991,6.6379,6.7239,6.7544,6.7784,6.8397,6.9258,6.9507,7.0109,7.0921,7.0943,7.1059,7.1291,7.1291,7.1291,7.1291,7.1291,7.1291,7.1291,7.1291,7.1291,7.1291,7.1291,7.1291,7.1291,7.1291,7.1291,7.1291,7.1291,7.1291,7.1291,7.1291,7.1291,7.1253,7.101,6.9855,6.8651,6.8347,6.7132,6.5866,6.5575,6.505,6.4486,6.3974,6.3514,6.3143,6.2962,6.2743,6.2488,6.2183,6.3079,6.4103,6.492,6.6085,6.7393,6.8755,6.874,6.8752,6.9126,6.8586,6.8227,6.8203,6.7393,6.6738,6.634,6.449,6.3449,6.3449,6.1957,6.1417,6.2073,5.977,5.8392,0.0,0.0,0.0,0.0,0.0,0.0,0.0,0.0,0.0,0.0,0.0,0.0,0.0,0.0,0.0,0.0,0.0,0.0,0.0,0.0,0.0,0.0,5.9802,6.0444,5.904,5.8397,5.8154,5.8578,5.9526,6.0321,6.0734,6.2079,6.3092,6.3501,6.4346,6.5062,6.5543,6.6518,6.7082,6.7178,6.8143,6.8656,6.8679,6.906,6.9507,7.001,7.0352,7.0789,7.1291,7.1291,7.1291,7.1291,7.1291,7.1291,7.1291,7.1291,7.1291,7.1291,0.0,0.0,0.0,0.0,7.1291,7.1291,7.1291,7.1291,7.1291,7.1291,7.1291,7.1291,7.1291,7.1291,7.1291,7.1291,7.0303,6.9159,6.8779,6.7934,6.6923,6.6133,6.5851,6.562,6.4887,6.4582,6.434,6.4028,6.427,0.0,6.4405,6.4547,6.5072,6.6183,6.6912,6.7888,6.9482,6.9401,6.9374,6.988,6.9494,6.9019,6.8648,6.7491,0.0,0.0,0.0,6.3351,6.2965,6.2463,0.0,0.0,0.0,0.0,0.0,6.1906,0.0,0.0,6.0635,6.0695,0.0,0.0,0.0,0.0,0.0,0.0,0.0,0.0,0.0,0.0,0.0,0.0,0.0,0.0,0.0,0.0,6.3318,6.409,6.4859,6.286,6.1488,6.1912,6.2155,6.2592,6.3412,6.4385,6.5294,6.6148,6.6931,6.7726,6.8583,6.871,0.0,0.0,0.0,6.9005,6.9087,6.9783,7.0131,7.017,7.0943,7.1291,7.1291,7.1291,7.1291,7.1291,7.1291,7.1291,7.1291,7.1291,7.1291,7.1291,7.1291,7.1291,7.1291,7.1291,7.1291,7.1291,7.1291,0.0,0.0,7.1291,7.1291,7.1291,7.1291,7.1291,7.1291,7.1291,7.0672,6.9811,6.9033,6.879,6.8304,6.6703,6.6923,6.705,6.5584,6.5804,6.6101,6.5379,6.5831,6.6306,6.6245,6.5561,6.5793,6.8072,6.7894,6.833,7.0633,7.0408,7.0043,7.0142,7.0142,0.0,6.8969,6.7464,6.6807,6.7413,6.5264,6.3615,6.2843,6.2881,6.3306,6.4078,6.4117,6.5198,6.7464,6.7552,6.8401,6.9791,6.4387,6.3538,0.0,0.0,0.0,0.0,0.0,0.0,0.0,0.0,0.0,0.0,0.0,0.0,0.0,0.0,0.0,6.501,6.6607,6.7598,6.7791,6.7331,6.5986,6.3258,6.4219,6.5166,6.5356,6.683,6.7892,6.8127,6.832,6.8497,6.8745,6.9364,6.9723,6.9733,7.043,7.0816,7.0827,7.0982,7.1059,7.1059,7.1214,0.0,7.1291,7.1291,7.1291,7.1291,7.1291,7.1291,7.1291,7.1291,7.1291,7.1291,7.1291,7.1291,7.1291,7.1291,7.1291,7.1291,7.1291,7.1291,7.1291,7.1291,7.1291,7.1291,7.1291,7.1291,0.0,7.1291,7.0672,6.9976,6.9772,6.9269,6.8678,6.8358,6.8397,6.8436,6.8088,6.8094,6.8138,6.7984,6.8061,6.7945,6.7261,6.6449,6.6035,6.659,6.7142,6.7916,6.9104,6.9695,7.0286,7.0971,7.1048,7.096,7.0794,6.9828,6.9054,6.8552,6.7392,6.6657,6.6464,6.716,6.7585,6.7778,6.7778,6.801,6.8513,6.917,6.9645,6.9944,6.8094,6.7939,0.0,0.0,0.0,0.0,0.0,0.0,0.0,0.0,0.0,0.0,0.0,6.0537,6.3145,0.0,6.6659,6.8431,6.9026,6.9313,6.9313,6.8903,6.7918,6.6138,6.669,6.7278,6.7298,6.8529,6.9297,6.9353,6.9772,7.0075,7.0096,7.0514,7.0756,7.0756,7.1162,7.1334,7.1334,7.1313,7.1291,7.1291,7.1291,7.1291,7.1291,7.1291,7.1291,7.1291,7.1291,7.1291,7.1291,7.1291,7.1291,7.1291,7.1291,7.1291,7.1291,7.1291,7.1291,7.1291,7.1291,7.1291,7.1291,7.1291,7.1291,7.1291,7.1291,7.1291,7.1291,7.1291,7.0982,7.0556,7.0092,7.0015,6.986,6.9009,6.9125,6.928,6.8893,6.8756,6.8734,6.8734,6.8734,6.8618,6.8193,6.7729,6.716,6.634,6.6959,6.781,6.87,6.9512,7.0324,7.1214,7.1291,7.1098,7.0672,6.986,6.9241,6.8816,6.839,6.8158,6.8158,6.8584,6.9009,6.9396,6.9396,6.9628,7.0054,7.0472,7.0715,7.0676,7.0289,7.0328,0.0,0.0,0.0,0.0,0.0,0.0,0.0,5.6454,5.7554,6.099,6.2941,6.47,6.678,6.8287,6.9662,7.1059,7.0717,7.0258,7.0258,6.9606,6.9108,6.9108,6.898,6.8888,6.8955,6.9778,7.0264,7.0279,7.0979,7.1435,7.1435,7.1465,7.1494,7.1494,7.1455,7.1425,7.1415,7.1334,7.1302,7.1291,7.1291,7.1291,7.1291,7.1291,7.1291,7.1291,7.1291,7.1291,7.1291,7.1291,7.1291,7.1291,7.1291,7.1291,7.1291,7.1291,7.1291,7.1291,7.1291,7.1291,7.1291,7.1291,7.1291,7.1291,7.1291,7.1291,7.1291,7.1291,7.1291,7.1137,7.044,7.075,7.0943,6.9628,6.9783,7.0054,6.9435,6.928,6.928,6.928,6.928,6.9241,6.9048,6.9048,6.8506,6.6959,6.7307,6.8081,6.8932,6.9589,7.0324,7.1214,7.1291,7.1021,7.0324,6.9667,6.928,6.928,6.928,6.928,6.928,6.928,6.9589,7.0247,7.0258,7.0617,7.1313,7.1405,7.1435,7.1435,7.1485,7.1485,4.9702,5.1597,5.3793,5.5874,5.6492,5.8412,0.0,6.5258,6.4721,6.8149,6.9623,7.0391,7.0662,7.0866,7.1059,7.1253,7.1214,7.1126,7.1126,7.1048,7.101,7.101,7.0308,6.9855,6.9962,7.0736,7.126,7.132,7.1446,7.1485,7.1485,7.1485,7.1494,7.1494,7.1485,7.1465,7.1415,7.1405,7.1345,7.1291,7.1291,7.1291,7.1291,7.1291,7.1291,7.1291,7.1291,7.1291,7.1291,7.1291,7.1291,7.1291,7.1291,7.1291,7.1291,7.1291,7.1291,7.1291,7.1291,7.1291,7.1291,7.1291,7.1291,7.1291,7.1291,7.1291,7.1291,7.1291,7.1291,7.1291,7.1175,7.1214,7.1253,7.1059,7.1098,7.1137,7.1021,7.1021,7.1021,7.1021,7.1021,7.075,7.0015,6.986,6.9551,6.8661,6.8584,6.897,6.9744,6.9938,7.0324,7.1214,7.1291,7.1253,7.1175,7.1059,7.1021,7.1021,7.1021,7.1021,7.1021,7.1021,7.1059,7.1137,7.1229,7.1288,7.1405,7.1455,7.1485,7.1485,7.1571,7.1589,5.8605,5.8697,5.8392,6.0938,6.2348,6.3913,6.715,6.7492,6.7785,7.0253,7.1048,7.1291,7.1291,7.1291,7.1291,7.1291,7.1291,7.1302,7.1334,7.1313,7.1324,7.1425,7.1074,7.0821,7.0834,7.1213,7.1465,7.1494,7.1561,7.1571,7.1571,7.1568,7.1538,7.1538,7.155,7.1523,7.1504,7.1445,7.1405,7.1345,7.1313,7.1291,7.1291,7.1291,7.1291,7.1291,7.1291,7.1291,7.1291,7.1291,7.1291,7.1291,7.1291,7.1291,7.1291,7.1291,7.1291,7.1291,7.1291,7.1291,7.1291,7.1291,7.1291,7.1291,7.1291,7.1291,7.1291,7.1291,7.1291,7.1291,7.1291,7.1291,7.1291,7.1291,7.1291,7.1291,7.1291,7.1291,7.1291,7.1291,7.1291,7.1175,7.0827,7.075,7.0634,7.0324,6.9821,6.9628,6.9938,7.044,7.0905,7.1253,7.1291,7.1291,7.1291,7.1291,7.1291,7.1291,7.1291,7.1291,7.1291,7.1291,7.1313,7.1345,7.1405,7.1425,7.1465,7.1513,7.1571,7.1571,7.1586,7.1611,6.2667,6.2645,6.2264,6.4619,6.6637,6.8127,6.8403,6.8955,6.9778,7.1059,7.1291,7.1302,7.1313,7.1313,7.1324,7.1334,7.1384,7.1355,7.1435,7.1405,7.1405,7.1485,7.1475,7.1455,7.1455,7.1494,7.1523,7.1532,7.1568,7.1586,7.1586,7.1581,7.1598,7.1598,7.1603,7.1616,7.1598,7.1494,7.1445,7.1415,7.1334,7.1313,7.1291,7.1291,7.1291,7.1291,7.1291,7.1291,7.1291,7.1291,7.1291,7.1291,7.1291,7.1291,7.1291,7.1291,7.1291,7.1291,7.1291,7.1291,7.1291,7.1291,7.1291,7.1302,7.1313,7.1313,7.1324,7.1334,7.1324,7.1313,7.1313,7.1302,7.1302,7.1313,7.1313,7.1313,7.1313,7.1313,7.1313,7.1302,7.1291,7.1291,7.1291,7.1291,7.1291,7.1291,7.075,7.0363,7.0363,7.0905,7.1291,7.1291,7.1291,7.1291,7.1291,7.1291,7.1291,7.1291,7.1291,7.1291,7.1291,7.1313,7.1334,7.1415,7.1445,7.1475,7.1513,7.1559,7.1702,7.1974,7.1969,7.2103,5.7853,6.0431,6.3938,6.5726,6.8049,7.0131,7.0982,7.1214,7.1253,7.1291,7.1291,7.1313,7.1366,7.1415,7.1425,7.1475,7.1485,7.1485,7.1485,7.1485,7.1485,7.1494,7.1571,7.1598,7.1598,7.1598,7.1586,7.1589,7.1598,7.1598,7.1598,7.1598,7.1598,7.1598,7.1598,7.1611,7.1607,7.1598,7.1513,7.1415,7.1415,7.1345,7.1291,7.1291,7.1291,7.1291,7.1291,7.1291,7.1291,7.1291,7.1291,7.1291,7.1291,7.1291,7.1291,7.1291,7.1291,7.1291,7.1291,7.1291,7.1291,7.1291,7.1291,7.1302,7.1394,7.1415,7.1425,7.1475,7.1455,7.1415,7.1415,7.1334,7.1313,7.1366,7.1415,7.1415,7.1415,7.1415,7.1394,7.1302,7.1291,7.1291,7.1291,7.1291,7.1291,7.1291,7.1291,7.1253,7.1253,7.1291,7.1291,7.1291,7.1291,7.1291,7.1291,7.1291,7.1291,7.1291,7.1291,7.1291,7.1291,7.1345,7.1415,7.1415,7.1513,7.1598,7.1598,7.1611,7.2025,7.2871,7.2871,7.3307,6.2334,6.4616,6.658,6.8292,6.9811,7.0954,7.1306,7.1384,7.1394,7.1435,7.095,7.0504,7.0524,7.0524,7.0534,7.0593,7.1077,7.1502,7.158,7.1541,7.1511,7.1547,7.1577,7.1616,7.1611,7.1611,7.1581,7.1598,7.1598,7.1598,7.1598,7.1598,7.1598,7.1598,7.1598,7.1589,7.1611,7.1577,7.1589,7.1513,7.1485,7.1455,7.1445,7.1445,7.1425,7.1384,7.1384,7.1324,7.1291,7.1291,7.1291,7.1291,7.1291,7.1291,7.1291,7.1291,7.1291,7.1291,7.1291,7.1291,7.1302,7.1334,7.1384,7.1394,7.1455,7.1465,7.1465,7.1485,7.1475,7.1465,7.1465,7.1455,7.1445,7.1465,7.1465,7.1475,7.1474,7.1484,7.1484,7.1502,7.1511,7.1511,7.1511,7.1511,7.1511,7.1511,7.1386,7.1291,7.1291,7.1291,7.1291,7.1291,7.1291,7.1291,7.1291,7.1291,7.1291,7.1291,7.1291,7.1313,7.1345,7.1405,7.1445,7.1513,7.1589,7.1577,7.1611,7.2172,7.2608,7.2918,7.3501,7.3929,6.5477,6.7065,6.7996,7.0008,7.0958,7.1366,7.1435,7.1445,7.1455,7.1485,7.0525,6.9682,6.9663,6.9663,6.9886,7.055,7.1714,7.2532,7.257,7.2524,7.2283,7.1684,7.1611,7.1603,7.1598,7.1598,7.1598,7.1598,7.1598,7.1598,7.1598,7.1598,7.1598,7.1598,7.1598,7.1598,7.1598,7.1611,7.1586,7.1598,7.1513,7.1494,7.1494,7.1494,7.1475,7.1445,7.1425,7.1394,7.1324,7.1302,7.1291,7.1291,7.1291,7.1291,7.1291,7.1291,7.1291,7.1291,7.1291,7.1302,7.1334,7.1405,7.1425,7.1455,7.1504,7.1561,7.1523,7.1541,7.1532,7.1561,7.1561,7.1504,7.1494,7.1513,7.1561,7.1532,7.152,7.1529,7.1529,7.1547,7.1564,7.1573,7.1573,7.1589,7.1598,7.1598,7.1502,7.1416,7.1416,7.1416,7.1416,7.1416,7.1416,7.1416,7.1416,7.1376,7.1355,7.1355,7.1334,7.1384,7.1415,7.1436,7.1523,7.1598,7.1633,7.162,7.1598,7.2452,7.3074,7.3385,7.4278,7.4839,6.6882,6.7696,6.8394,7.0795,7.1455,7.1494,7.1494,7.1494,7.1455,7.1339,6.9954,6.8733,6.8548,6.8634,6.9317,7.1089,7.2932,7.4158,7.4158,7.4158,7.3535,7.1816,7.1606,7.1606,7.1606,7.1606,7.1606,7.1606,7.1606,7.1598,7.1598,7.1598,7.1598,7.1598,7.1598,7.1598,7.1598,7.1598,7.1611,7.1607,7.1523,7.1504,7.1504,7.1504,7.1494,7.1494,7.1445,7.1425,7.1415,7.1324,7.1302,7.1302,7.1291,7.1291,7.1291,7.1291,7.1291,7.1302,7.1302,7.1334,7.1415,7.1425,7.1455,7.1504,7.1589,7.1607,7.1616,7.1589,7.1603,7.1607,7.1607,7.1532,7.1513,7.1598,7.1607,7.1607,7.1607,7.1607,7.1598,7.1513,7.1511,7.1508,7.1538,7.1581,7.1614,7.1614,7.1614,7.1614,7.1598,7.1598,7.1598,7.1598,7.1598,7.1598,7.1598,7.155,7.1494,7.1494,7.1445,7.1425,7.1425,7.1529,7.1611,7.1607,7.1661,7.1684,7.1606,7.2538,7.3393,7.4209,7.515,7.6007,6.7997,6.9498,7.0661,7.132,7.1485,7.1504,7.158,7.158,7.1007,6.9076,6.7799,6.6242,6.3628,6.5273,6.6984,6.6811,6.9927,7.2351,7.2283,7.2327,7.2185,7.1731,7.1668,7.169,7.169,7.169,7.169,7.169,7.1638,7.1598,7.1598,7.1598,7.1598,7.1598,7.1598,7.1598,7.1598,7.1598,7.1598,7.1581,7.1573,7.1564,7.1564,7.1564,7.1586,7.158,7.1571,7.1504,7.1465,7.1415,7.1355,7.1355,7.1313,7.1291,7.1291,7.1291,7.1324,7.1355,7.1355,7.1405,7.1425,7.1504,7.1571,7.1598,7.1603,7.1581,7.1581,7.1598,7.1589,7.1581,7.1581,7.1573,7.1564,7.162,7.1581,7.1628,7.1661,7.1669,7.1676,7.1653,7.169,7.1711,7.1711,7.1745,7.1731,7.1731,7.1731,7.1693,7.1614,7.1598,7.1598,7.1598,7.1598,7.1589,7.1517,7.1529,7.1493,7.1494,7.1475,7.1485,7.1561,7.1568,7.1611,7.1669,7.1692,7.1707,7.169,7.3207,7.4077,7.43,7.5818,7.6657,6.9527,7.0738,7.1523,7.1523,7.1541,7.1171,6.9705,6.9364,6.8502,6.5505,6.3873,6.2319,5.9968,6.2676,6.5256,6.5195,6.9519,7.2757,7.2322,7.2276,7.2036,7.1269,7.116,7.1329,7.1679,7.1718,7.1718,7.1718,7.1675,7.1645,7.163,7.163,7.1622,7.1598,7.1598,7.1598,7.1598,7.1598,7.1598,7.1598,7.1598,7.1598,7.1598,7.1598,7.1581,7.1594,7.1616,7.1589,7.1561,7.1475,7.1445,7.1445,7.1355,7.1334,7.1334,7.1334,7.1394,7.1425,7.1465,7.1485,7.1494,7.1589,7.1616,7.1603,7.1589,7.1598,7.1598,7.1598,7.1598,7.1598,7.1598,7.1598,7.1598,7.1598,7.1598,7.1606,7.1669,7.1676,7.1645,7.1683,7.1718,7.179,7.1803,7.1794,7.1817,7.1817,7.1817,7.1755,7.1718,7.1704,7.1704,7.1704,7.1704,7.1651,7.1614,7.1614,7.1573,7.1559,7.1541,7.1571,7.1598,7.162,7.1669,7.1699,7.1729,7.1711,7.1718,7.3444,7.4282,7.4347,7.6106,7.6915,7.1048,7.1504,7.1616,7.1616,7.1611,7.0696,6.7285,6.6422,6.525,6.1399,5.9304,5.7838,5.6745,6.0057,6.3371,6.4576,6.9618,7.3236,7.2823,7.275,7.2178,7.0687,7.0596,7.0953,7.1654,7.1693,7.1693,7.1693,7.1693,7.1711,7.1707,7.1699,7.1684,7.1598,7.1598,7.1598,7.1598,7.1598,7.1598,7.1598,7.1598,7.1598,7.1598,7.1598,7.1598,7.1598,7.1594,7.1616,7.1607,7.1523,7.1504,7.1494,7.1445,7.1425,7.1425,7.1425,7.1425,7.1445,7.1571,7.1607,7.1616,7.1616,7.1603,7.1598,7.1598,7.1598,7.1598,7.1598,7.1598,7.1598,7.1598,7.1598,7.1598,7.1598,7.152,7.1442,7.1442,7.1326,7.1303,7.1334,7.1379,7.1375,7.1446,7.156,7.1622,7.1622,7.1739,7.1817,7.1817,7.1817,7.1817,7.1817,7.1817,7.1806,7.1815,7.175,7.1692,7.1614,7.1486,7.1499,7.1616,7.1536,7.158,7.1707,7.1771,7.1797,7.1738,7.3367,7.4203,7.4371,7.5992,7.6853,7.1454,7.1586,7.1589,7.1589,7.1598,7.0696,6.7285,6.5957,6.3798,5.818,5.618,5.4762,5.243,5.5634,5.9348,6.1628,6.5349,6.8633,7.0661,7.0952,7.0847,7.0551,7.112,7.1644,7.1761,7.1761,7.1761,7.1761,7.1761,7.1776,7.1711,7.1714,7.1684,7.1598,7.1598,7.1598,7.1598,7.1598,7.1598,7.1598,7.1598,7.1598,7.1598,7.1598,7.1598,7.1598,7.1589,7.1589,7.1581,7.1577,7.1589,7.1589,7.1494,7.1475,7.1475,7.1475,7.1504,7.158,7.1598,7.1594,7.1589,7.1589,7.1589,7.1598,7.1598,7.1598,7.1598,7.1598,7.1598,7.1598,7.1598,7.1598,7.1598,7.1598,7.1054,7.0549,7.0549,7.0005,6.9539,6.9547,6.9607,6.9656,6.9662,7.0302,7.0804,7.0804,7.1349,7.1817,7.1817,7.1817,7.1817,7.1817,7.1817,7.1806,7.1809,7.1732,7.169,7.1692,7.0945,7.0843,7.1589,7.0977,7.0944,7.1704,7.1784,7.1827,7.1877,7.2895,7.3778,7.448,7.5499,7.6369,7.1598,7.1603,7.1598,7.1598,7.1598,7.023,6.497,6.3138,6.0623,5.4096,5.2067,5.0959,4.9265,5.2938,5.6759,5.8457,6.2805,6.6561,6.8286,6.9317,6.9885,6.9885,7.0642,7.1349,7.1778,7.1817,7.1817,7.1817,7.1817,7.18,7.1751,7.1711,7.1683,7.1661,7.1645,7.163,7.163,7.1614,7.1598,7.1598,7.1598,7.1598,7.1598,7.1598,7.1598,7.1598,7.1598,7.1598,7.1598,7.1611,7.1603,7.1603,7.155,7.1571,7.1571,7.1571,7.158,7.1607,7.1594,7.1581,7.1598,7.1598,7.1598,7.1598,7.1598,7.1598,7.1598,7.1598,7.1598,7.1598,7.1598,7.1598,7.1598,7.1598,7.0937,7.0199,6.9772,6.9383,6.9111,6.9111,6.9133,6.9182,6.9182,6.9985,7.0609,7.0609,7.1271,7.1817,7.1817,7.1817,7.1817,7.1817,7.1817,7.1806,7.1809,7.1758,7.1725,7.1707,7.086,7.0534,7.0898,7.0183,7.018,7.1057,7.1147,7.1427,7.1897,7.2769,7.3653,7.4503,7.5407,7.6275,7.1538,7.1611,7.1606,7.1614,7.1614,6.9811,6.289,6.0507,5.7807,5.0896,4.8611,4.7734,4.7284,5.0739,5.4238,5.6116,6.0555,6.4446,6.6457,6.8063,6.9197,6.9538,7.0357,7.1136,7.176,7.1838,7.1838,7.1838,7.1833,7.1811,7.1815,7.1745,7.1725,7.1718,7.169,7.1714,7.1714,7.1638,7.1614,7.1614,7.1606,7.1598,7.1598,7.1598,7.1598,7.1598,7.1598,7.1598,7.1598,7.1598,7.1598,7.1598,7.1594,7.1616,7.1616,7.1616,7.1616,7.1586,7.1589,7.1598,7.1598,7.1598,7.1598,7.1598,7.1598,7.1598,7.1598,7.1598,7.1598,7.1598,7.1598,7.1598,7.152,7.1131,7.0549,6.9772,6.8762,6.8529,6.8529,6.8529,6.8589,6.8722,6.8877,6.9712,7.0375,7.057,7.1271,7.1817,7.1817,7.1817,7.1817,7.1817,7.1817,7.1806,7.1821,7.1815,7.179,7.1729,7.0898,7.0494,7.0573,6.9862,6.9902,7.0759,7.082,7.1209,7.1897,7.2587,7.3466,7.4503,7.5182,7.6086,7.1378,7.1598,7.1606,7.1684,7.1692,6.9865,6.299,6.0145,5.7022,5.0109,4.7359,4.6437,4.7142,4.8376,5.084,5.5628,5.7564,6.0459,6.6009,6.7604,6.8762,7.0294,7.1261,7.1807,7.1885,7.1885,7.1885,7.1885,7.1906,7.1872,7.1809,7.1803,7.1751,7.1718,7.1711,7.1711,7.1711,7.1675,7.1692,7.1692,7.1622,7.1598,7.1598,7.1598,7.1598,7.1598,7.1598,7.1598,7.1598,7.1598,7.1598,7.1598,7.1598,7.1598,7.1598,7.1598,7.1598,7.1598,7.1598,7.1598,7.1598,7.1598,7.1598,7.1598,7.1598,7.1598,7.1598,7.1598,7.1598,7.1598,7.1598,7.1598,7.1209,6.9694,6.9267,6.8762,6.7091,6.6742,6.6742,6.6742,6.6807,6.7087,6.7866,6.8816,6.9679,7.0492,7.1271,7.1817,7.1817,7.1817,7.1817,7.1817,7.1817,7.1817,7.1811,7.1788,7.1803,7.1803,7.096,7.0816,7.1549,7.081,7.079,7.1647,7.1683,7.1755,7.1897,7.1998,7.2881,7.4503,7.4597,7.5501,7.1125,7.1676,7.1684,7.1683,7.0958,6.8656,6.2731,5.9302,5.5674,4.9815,4.7227,4.6117,4.655,4.7338,4.9283,5.3476,5.5312,5.7811,6.23,6.5483,6.7565,6.8216,7.0423,7.1893,7.1893,7.1893,7.1893,7.1893,7.1885,7.1901,7.1866,7.1806,7.1794,7.1743,7.1758,7.1751,7.1751,7.1711,7.1683,7.1699,7.1684,7.1622,7.1598,7.1598,7.1598,7.1598,7.1598,7.1598,7.1598,7.1598,7.1598,7.1598,7.1598,7.1598,7.1598,7.1598,7.1598,7.1598,7.1598,7.1598,7.1598,7.1598,7.1598,7.1598,7.1598,7.1598,7.1598,7.1598,7.1598,7.1598,7.1598,7.1598,7.1287,7.0121,6.9461,6.8762,6.7557,6.6858,6.6508,6.6508,6.6963,6.7476,6.7833,6.9095,7.0185,7.0531,7.1271,7.1817,7.1817,7.1817,7.1817,7.1817,7.1817,7.1817,7.1817,7.1806,7.1788,7.1809,7.0979,7.0655,7.0947,7.0161,7.0135,7.0991,7.1065,7.1365,7.1897,7.1906,7.2791,7.4503,7.4509,7.5414,7.0237,7.1325,7.169,7.1725,7.0253,6.7444,6.2262,5.8448,5.4508,4.9352,4.709,4.6098,4.6173,4.6662,4.8123,5.1391,5.3352,5.5936,6.0193,6.3825,6.6426,6.7436,6.9921,7.1546,7.1537,7.176,7.1909,7.1901,7.1901,7.1893,7.1911,7.1853,7.1833,7.1817,7.1794,7.1782,7.1788,7.1751,7.1718,7.1736,7.1722,7.1699,7.1622,7.1622,7.1614,7.1598,7.1598,7.1598,7.1598,7.1598,7.1598,7.1598,7.1598,7.1598,7.1598,7.1598,7.1598,7.1598,7.1598,7.1598,7.1598,7.1598,7.1598,7.1598,7.1598,7.1598,7.1598,7.1598,7.1598,7.1598,7.1598,7.1598,7.1365,7.051,6.9888,6.9228,6.8373,6.7713,6.7285,6.7285,6.7818,6.8371,6.8611,6.9757,7.0687,7.092,7.1427,7.1817,7.1817,7.1817,7.1817,7.1817,7.1817,7.1817,7.1817,7.1817,7.1806,7.1782,7.1204,7.088,7.0901,7.0296,7.0269,7.0853,7.0915,7.1243,7.1887,7.1892,7.2817,7.4492,7.4499,7.5446,6.8514,7.0427,7.1725,7.1764,6.9823,6.6596,6.1486,5.7672,5.3732,4.8592,4.6793,4.6203,4.6204,4.6247,4.716,4.9694,5.157,5.4822,6.0851,6.3196,6.5582,6.8984,7.0156,7.0702,7.0692,7.1495,7.1982,7.1888,7.1884,7.1916,7.1893,7.1889,7.1872,7.1783,7.1817,7.1817,7.1817,7.1782,7.1809,7.1809,7.1732,7.1697,7.1699,7.1699,7.1676,7.1598,7.1598,7.1598,7.1598,7.1598,7.1598,7.1598,7.1598,7.1598,7.1598,7.1598,7.1598,7.1598,7.1598,7.1598,7.1598,7.1598,7.1598,7.1598,7.1598,7.1598,7.1598,7.1598,7.1598,7.1598,7.1598,7.1598,7.1365,7.051,7.0277,7.0083,6.9267,6.9072,6.9072,6.9072,6.9133,6.9461,7.0324,7.0536,7.0881,7.1661,7.1778,7.1817,7.1817,7.1817,7.1817,7.1817,7.1817,7.1817,7.1817,7.1817,7.1817,7.1817,7.1778,7.1778,7.1778,7.1778,7.1778,7.1778,7.1778,7.1778,7.1817,7.1882,7.2808,7.4507,7.4492,7.5446,6.2519,6.3881,6.4477,6.3341,6.1982,6.0039,5.6693,5.4164,5.1593,4.8202,4.6813,4.6188,4.6202,4.625,4.7919,5.2862,5.4108,5.6376,6.1809,6.5068,6.7069,6.7578,6.9953,7.1579,7.157,7.1836,7.1987,7.1982,7.1982,7.1933,7.1916,7.1916,7.1897,7.1887,7.1887,7.1838,7.1817,7.1806,7.1794,7.1809,7.1797,7.1732,7.1697,7.1697,7.169,7.1683,7.1683,7.1683,7.1683,7.1653,7.1684,7.1676,7.1614,7.1598,7.1598,7.1598,7.1598,7.1598,7.1598,7.1598,7.1598,7.1598,7.1598,7.1598,7.1598,7.1598,7.1598,7.1598,7.1598,7.1598,7.1598,7.1598,7.152,7.1248,7.0743,7.0238,6.9966,6.95,6.9111,6.9111,6.9646,7.0168,7.0441,7.1003,7.1505,7.1778,7.1817,7.1817,7.1817,7.1817,7.1817,7.1817,7.1817,7.1817,7.1817,7.1817,7.1817,7.1817,7.1817,7.205,7.2674,7.2674,7.2986,7.357,7.2986,7.2674,7.2674,7.2724,7.3651,7.5408,7.6014,7.6578,5.7994,5.9674,6.0297,5.9265,5.7866,5.6152,5.3931,5.1842,4.9712,4.7453,4.6603,4.624,4.6248,4.6288,4.7839,5.2587,5.3873,5.6257,6.1727,6.4908,6.7065,6.8124,7.0191,7.1622,7.1969,7.2002,7.1993,7.1987,7.1987,7.1984,7.1937,7.1933,7.192,7.1885,7.1906,7.1887,7.1833,7.1822,7.1806,7.1788,7.1788,7.177,7.1738,7.1738,7.1732,7.1718,7.1718,7.1718,0.0,7.169,7.1714,7.1699,7.163,7.1614,7.1598,7.1598,7.1598,7.1598,7.1598,7.1598,7.1598,7.1598,7.1598,7.1598,7.1598,7.1598,7.1598,7.1598,7.1598,7.1598,7.1598,7.1598,7.1598,7.1598,7.117,7.0782,7.0782,7.0393,7.0044,7.0044,7.054,7.094,7.094,7.1426,7.1817,7.1817,7.1817,7.1817,7.1817,7.1817,7.1817,7.1817,7.2089,7.2284,7.2284,7.1973,7.1934,7.2284,7.2284,7.2674,7.3531,7.357,7.3843,7.4388,7.3882,7.357,7.357,7.3932,7.466,7.5785,7.6673,7.7117,0.0,5.6983,5.8226,5.8109,5.6355,5.4212,5.254,5.0355,0.0,4.6561,4.6245,4.6365,4.6522,4.6472,4.7354,5.028,5.2117,5.5246,6.1231,6.3614,6.6314,7.0498,7.0858,7.1171,7.2107,7.2058,7.2002,7.1993,7.199,7.199,7.199,7.1987,7.1982,7.1927,7.1889,7.1901,7.1901,7.1838,7.1822,7.1822,7.1822,7.1806,7.1815,7.1809,7.1751,7.1725,7.1725,7.1725,7.1725,7.1718,7.1697,7.1707,7.1699,7.1676,7.1606,7.1598,7.1598,7.1598,7.1598,7.1598,7.1598,7.1598,7.1598,7.1598,7.1598,7.1598,7.1598,7.1598,7.1598,7.1598,7.1598,7.1598,7.1598,7.1598,7.1598,7.1598,7.1598,7.1598,7.1598,7.1606,7.1668,7.1718,7.1718,7.1776,7.1817,7.1817,7.1817,7.1817,7.1817,7.1817,7.1817,7.1895,7.2635,7.3142,7.3181,7.244,7.2323,7.3142,7.3181,7.357,7.4466,7.4505,7.4505,7.4583,7.4505,7.4505,7.4505,7.5312,7.5718,7.5801,7.6704,7.711,4.8291,0.0,5.087,4.9544,4.9254,4.9036,0.0,4.7754,4.7485,4.6432,4.6249,4.6912,4.8865,4.815,4.9421,5.594,5.7348,5.946,6.486,6.7689,7.0311,7.3319,7.2498,7.2299,7.3826,7.2765,7.2016,7.2014,7.2006,7.2002,7.2002,7.1993,7.1987,7.1982,7.1924,7.1901,7.1885,7.1881,7.1867,7.1887,7.1887,7.1833,7.1806,7.1806,7.1806,7.1794,7.1794,7.1794,7.1794,7.1764,7.179,7.1777,7.1722,7.1692,7.1684,7.1614,7.1598,7.1598,7.1598,7.1598,7.1598,7.1598,7.1598,7.1598,7.1598,7.1598,7.1598,7.1598,7.1598,7.1598,7.1598,7.1598,7.1598,7.1598,7.1598,7.1598,7.1598,7.1598,7.1614,7.1676,7.1683,7.1725,7.1758,7.1794,7.1817,7.1817,7.1817,7.1817,7.1817,7.1817,7.205,7.2713,7.2986,7.3375,7.4038,7.3921,7.3882,7.4077,7.4077,7.4505,7.5363,7.5402,7.5713,7.6376,7.5713,7.5402,7.5402,7.5602,7.6048,7.6692,7.6921,7.7059,4.5615,4.7446,4.9157,4.8221,4.8347,4.8587,4.8118,4.7458,4.6835,4.6327,4.6287,4.6943,4.9091,4.9745,5.1687,5.7074,5.9612,6.2818,6.8414,7.1437,7.3474,7.4491,7.3789,7.3241,7.3396,7.2535,7.1984,7.1981,7.2012,7.2006,7.2006,7.1995,7.1987,7.1987,7.194,7.1927,7.1909,7.1897,7.1885,7.1911,7.1911,7.1862,7.1838,7.1838,7.1833,7.1817,7.1817,7.1817,7.1817,7.18,7.1782,7.1803,7.175,7.1714,7.1692,7.1614,7.1598,7.1598,7.1598,7.1598,7.1598,7.1598,7.1598,7.1598,7.1598,7.1598,7.1598,7.1598,7.1598,7.1598,7.1598,7.1598,7.1598,7.1598,7.1598,7.1598,7.1598,7.1598,7.1614,7.1692,7.169,7.1725,7.1803,7.18,7.1817,7.1817,7.1817,7.1934,7.2362,7.2401,7.2713,7.3609,7.4038,7.4466,7.4973,7.5363,7.5402,7.5012,7.5012,7.5402,7.6259,7.6298,7.6532,7.6999,7.6532,7.6298,7.6298,7.6298,7.6537,7.6983,7.699,7.7012,4.5387,4.8123,5.0662,4.9763,4.9803,5.0038,4.9764,4.8047,4.6519,4.6676,4.6782,4.7549,4.9774,5.1882,5.4342,5.7621,6.1449,6.5826,7.1067,7.381,7.5146,7.4642,7.437,7.3748,7.2499,7.2147,7.1989,7.1984,7.2016,7.201,7.201,7.2,7.1995,7.1995,7.1995,7.1987,7.1937,7.1913,7.1901,7.1897,7.1897,7.1885,7.1901,7.1901,7.1887,7.1822,7.1822,7.1822,7.1817,7.1817,7.18,7.177,7.1738,7.1704,7.1707,7.1622,7.1606,7.1598,7.1598,7.1598,7.1598,7.1598,7.1598,7.1598,7.1598,7.1598,7.1598,7.1598,7.1598,7.1598,7.1598,7.1598,7.1598,7.1598,7.1598,7.1598,7.1598,7.1598,7.1614,7.1699,7.1697,7.1732,7.1809,7.18,7.1817,7.1817,7.1895,7.2284,7.2986,7.3219,7.3648,7.4505,7.5246,7.5752,7.5908,7.6571,7.6688,7.5947,7.5908,7.622,7.696,7.6999,7.6999,7.6999,7.6999,7.6999,7.6999,7.6999,7.6999,7.6999,7.7014,7.7004,4.7605,5.1275,5.3274,4.8163,4.8508,4.9745,4.8301,4.7675,4.7593,4.8298,4.8995,5.0943,5.5552,5.6177,5.8011,6.4219,6.7039,6.8998,7.0679,7.1898,7.3111,7.4432,7.3306,7.2881,7.4094,7.2888,7.1992,7.1992,7.199,7.1988,7.1988,7.1981,7.2016,7.2016,7.2016,7.2016,7.1975,7.1993,7.1972,7.1881,7.1881,7.1909,7.1885,7.1885,7.1876,7.1892,7.1892,7.1838,7.1817,7.1817,7.1817,7.1806,7.177,7.1738,7.1704,7.1707,7.163,7.1598,7.1598,7.1598,7.1598,7.1598,7.1598,7.1598,7.1598,7.1598,7.1598,7.1598,7.1598,7.1598,7.1598,7.1598,7.1598,7.1598,7.1598,7.1598,7.1598,7.1598,7.1622,7.1697,7.1711,7.1738,7.18,7.1817,7.1817,7.1817,7.244,7.2947,7.3064,7.3726,7.4544,7.5402,7.5635,7.5986,7.6727,7.6921,7.696,7.6804,7.6804,7.6843,7.6999,7.6999,7.6999,7.6999,7.6999,7.6999,7.6999,7.6999,7.6999,7.6999,7.6994,7.6985,4.5718,4.9545,5.2518,4.975,5.2404,5.5443,5.4695,5.3444,5.2429,5.2312,5.2624,5.4066,5.7804,5.9327,6.2098,6.8502,7.0225,7.1209,7.2542,7.3486,7.4191,7.4542,7.3885,7.3342,7.319,7.2452,7.1988,7.1991,7.1992,7.1991,7.199,7.1985,7.2019,7.2019,7.2019,7.2019,7.2019,7.2012,7.1963,7.1951,7.1951,7.1937,7.1909,7.1909,7.1897,7.1915,7.1915,7.1862,7.1838,7.1838,7.1833,7.1817,7.1782,7.1745,7.1711,7.1653,7.1614,7.1598,7.1598,7.1598,7.1598,7.1598,7.1598,7.1598,7.1598,7.1598,7.1598,7.1598,7.1598,7.1598,7.1598,7.1598,7.1598,7.1598,7.1598,7.1598,7.1598,7.1598,7.1622,7.1704,7.1718,7.1699,7.1806,7.1817,7.1817,7.1817,7.2557,7.3258,7.3726,7.4544,7.5441,7.6298,7.6415,7.6571,7.696,7.6999,7.6999,7.6999,7.6999,7.6999,7.6999,7.6999,7.6999,7.6999,7.6999,7.6999,7.6999,7.6999,7.6999,7.6999,7.6994,7.7009,4.4387,4.7785,5.1301,5.2117,5.5326,5.857,5.9571,5.7812,5.6053,5.6402,5.6792,5.7802,6.0174,6.3023,6.646,7.0909,7.1959,7.2587,7.3732,7.4477,7.4675,7.4023,7.3986,7.3447,7.2129,7.2016,7.1981,7.1988,7.199,7.1992,7.1992,7.199,7.1989,7.1987,7.1987,7.1987,7.1985,7.1985,7.1981,7.201,7.201,7.1961,7.1903,7.194,7.1927,7.1905,7.1901,7.1889,7.1906,7.1897,7.1887,7.1822,7.1794,7.1758,7.1725,7.1645,7.1622,7.163,7.163,7.163,7.163,7.163,7.1622,7.1614,7.1614,7.1606,7.1598,7.1598,7.1598,7.1598,7.1598,7.1598,7.1598,7.1598,7.1598,7.1598,7.1598,7.1598,7.1622,7.1704,7.1718,7.1699,7.1806,7.1817,7.1856,7.205,7.283,7.3726,7.4583,7.548,7.6259,7.6921,7.6999,7.6999,7.6999,7.6999,7.6999,7.6999,7.6999,7.6999,7.6999,7.6999,7.6999,7.6999,7.6999,7.6999,7.6999,7.6999,7.6999,7.6999,7.6983,7.6999,4.6454,4.8727,5.0959,5.4229,5.3524,5.309,5.7097,5.5959,5.5213,5.9137,6.124,6.2882,6.4698,6.845,7.1143,7.0831,7.2104,7.2873,7.217,7.2131,7.217,7.2092,7.2073,7.2054,7.2029,7.2002,7.2012,7.1981,7.1981,7.1982,7.1982,7.1984,7.1986,7.199,7.199,7.1991,7.1992,7.1992,7.199,7.2019,7.2019,7.2019,7.1978,7.2008,7.1997,7.1984,7.193,7.1913,7.1889,7.1906,7.1897,7.1892,7.1827,7.18,7.1764,7.1729,7.1675,7.1711,7.1711,7.1711,7.1711,7.1711,7.1683,7.1692,7.1692,7.163,7.1598,7.1598,7.1598,7.1598,7.1598,7.1598,7.1598,7.1598,7.1598,7.1598,7.1598,7.1598,7.1622,7.1704,7.1718,7.1699,7.1806,7.1817,7.205,7.2869,7.3765,7.4622,7.548,7.6376,7.6921,7.6999,7.6999,7.6999,7.6999,7.6999,7.6999,7.6999,7.6999,7.6999,7.6999,7.6999,7.6999,7.6999,7.6999,7.6999,7.6999,7.6999,7.6999,7.6999,7.6999,7.7017,4.466,4.7975,5.1486,5.3873,5.453,5.5692,5.9979,6.1033,6.2044,6.5276,6.6034,6.623,6.6802,6.9574,7.1494,7.0581,7.151,7.2243,7.1945,7.1885,7.1893,7.1893,7.1901,7.1909,7.1955,7.1933,7.1948,7.2002,7.2008,7.2014,7.2019,7.2019,7.1981,7.1985,7.1985,7.1986,7.1988,7.1988,7.1989,7.1991,7.199,7.1985,7.2019,7.2016,7.2014,7.2008,7.1958,7.1945,7.1969,7.1909,7.1885,7.1892,7.1844,7.1821,7.1803,7.1718,7.1704,7.1718,7.1718,7.1718,7.1718,7.1718,7.1704,7.1697,7.1697,7.1683,7.1675,7.1675,7.1675,7.1661,7.1614,7.1598,7.1606,7.163,7.1622,7.1606,7.163,7.1676,7.1653,7.1704,7.1732,7.1764,7.1811,7.2245,7.2713,7.3064,7.4311,7.5324,7.5674,7.6454,7.6999,7.6999,7.6999,7.6999,7.6999,7.6999,7.6999,7.6999,7.6999,7.6999,7.6999,7.6999,7.6999,7.6999,7.6999,7.6999,7.6999,7.6999,7.6999,7.6999,7.6999,7.7005,4.461,4.7684,5.1188,5.3727,5.5246,5.7346,6.2161,6.4006,6.5652,6.9064,6.9236,6.8761,6.8676,7.0123,7.1102,7.0459,7.1167,7.1794,7.1817,7.1833,7.1848,7.1858,7.1867,7.1872,7.1881,7.1901,7.192,7.1972,7.1982,7.1953,7.1961,7.1961,7.1965,7.2012,7.2012,7.2014,7.2019,7.2019,7.2019,7.1981,7.1991,7.1992,7.1989,7.1987,7.1986,7.1984,7.2016,7.2006,7.1997,7.1943,7.1905,7.1892,7.1844,7.1782,7.1782,7.1745,7.1738,7.1712,7.1712,7.1712,7.1712,7.1712,7.1745,7.1732,7.1732,7.1725,7.1718,7.1718,7.1718,7.1704,7.1653,7.1638,7.1645,7.1675,7.1668,7.1668,7.1736,7.1736,7.175,7.1745,7.1758,7.1815,7.1811,7.2518,7.3181,7.3453,7.4778,7.5791,7.6064,7.6649,7.6999,7.6999,7.6999,7.6999,7.6999,7.6999,7.6999,7.6999,7.6999,7.6999,7.6999,7.6999,7.6999,7.6999,7.6999,7.6999,7.6999,7.6999,7.6999,7.6999,7.6999,7.6999,4.6995,4.8128,4.9835,5.4035,5.519,5.6839,6.269,6.3475,6.4374,6.9474,7.0532,7.0518,7.0518,7.0518,7.0518,7.0518,7.1193,7.1711,7.1718,7.1718,7.1732,7.1809,7.18,7.1827,7.1892,7.1915,7.1889,7.1889,7.1889,7.1893,7.1893,7.1893,7.1913,7.1987,7.1987,7.2,7.2019,7.2019,7.2019,7.2019,7.2019,7.1984,7.1989,7.1992,7.1992,7.1989,7.1984,7.1981,7.2019,7.1997,7.1959,7.1897,7.1827,7.1817,7.1817,7.1821,7.1788,7.1817,7.1817,7.1817,7.1817,7.1817,7.1794,7.1809,7.1809,7.1751,7.1718,7.1718,7.1718,7.1718,7.1718,7.1718,7.1718,7.1718,7.1745,7.1815,7.1815,7.1815,7.1782,7.1811,7.1794,7.1815,7.1811,7.2518,7.3414,7.4272,7.5168,7.6025,7.6882,7.6999,7.6999,7.6999,7.6999,7.6999,7.6999,7.6999,7.6999,7.6999,7.6999,7.6999,7.6999,7.6999,7.6999,7.6999,7.6999,7.6999,7.6999,7.6999,7.6999,7.6999,7.6999,7.6999,4.5,4.8476,5.2606,5.3853,5.8257,6.2834,6.5171,6.5576,6.6581,7.0401,7.17,7.1894,7.1173,7.1123,7.1189,7.1087,7.1344,7.1567,7.163,7.1661,7.169,7.1732,7.1745,7.1751,7.1764,7.1794,7.1822,7.1843,7.1858,7.1915,7.1889,7.1893,7.1897,7.1909,7.1913,7.1916,7.1927,7.1927,7.1927,7.1927,7.1927,7.1953,7.1984,7.1986,7.1987,7.1989,7.1992,7.1991,7.199,7.2006,7.1979,7.1963,7.1911,7.1887,7.1843,7.1817,7.1811,7.1817,7.1817,7.1817,7.1817,7.1817,7.1811,7.1806,7.1806,7.18,7.1749,7.1749,7.1749,7.1749,7.1749,7.1749,7.1782,7.1764,7.1803,7.1821,7.18,7.1822,7.1877,7.1882,7.1853,7.1858,7.1887,7.3051,7.4099,7.4355,7.5674,7.6727,7.696,7.6999,7.6999,7.6999,7.6999,7.6999,7.6999,7.6999,7.6999,7.6999,7.6999,7.6999,7.6999,7.6999,7.6999,7.6999,7.6999,7.6999,7.6999,7.6999,7.6999,7.6999,7.6999,7.6999,4.7412,5.0826,5.4747,5.7106,6.0914,6.4745,6.7229,6.8191,6.9095,7.1057,7.1881,7.2134,7.1827,7.1848,7.188,7.1838,7.1871,7.1842,7.1616,7.1603,7.1645,7.1668,7.1675,7.1683,7.1711,7.1738,7.1758,7.1776,7.18,7.1817,7.1833,7.1833,7.1838,7.1848,7.1858,7.1867,7.192,7.1889,7.1893,7.1893,7.1893,7.1916,7.1956,7.2004,7.2014,7.1981,7.1989,7.1991,7.1992,7.1985,7.201,7.2,7.1959,7.1932,7.1885,7.1858,7.1843,7.1833,7.1833,7.1827,7.1817,7.1817,7.1817,7.1817,7.1817,7.1817,7.1817,7.1817,7.1817,7.1817,7.1817,7.1817,7.1817,7.1811,7.1856,7.1833,7.1823,7.1876,7.1889,7.1889,7.2162,7.2435,7.2422,7.3822,7.4831,7.4504,7.5619,7.6621,7.696,7.6999,7.6999,7.6999,7.6999,7.6999,7.6999,7.6999,7.6999,7.6999,7.6999,7.6999,7.6999,7.6999,7.6999,7.6999,7.6999,7.6999,7.6999,7.6999,7.6999,7.6999,7.6999,7.6999,5.2038,5.4025,5.6335,6.1881,6.3099,6.4183,6.8933,7.0771,7.1445,7.1405,7.1433,7.1721,7.2479,7.2623,7.2645,7.27,7.2622,7.2334,7.1581,7.1475,7.1513,7.1573,7.1589,7.1614,7.169,7.1697,7.1697,7.1704,7.1626,7.1594,7.1601,7.1601,7.1615,7.1692,7.1755,7.1822,7.1887,7.1867,7.1881,7.1881,7.1881,7.1881,7.1885,7.1966,7.1997,7.1977,7.1977,7.1982,7.1989,7.1991,7.1991,7.1982,7.2002,7.1945,7.1891,7.1905,7.1885,7.1906,7.1906,7.1848,7.1827,7.1822,7.1822,7.1822,7.1817,7.1817,7.1817,7.1822,7.1783,7.1817,7.1822,7.1822,7.1827,7.1892,7.1915,7.1897,7.1881,7.1888,7.1927,7.1927,7.2537,7.3072,7.3068,7.4472,7.533,7.4624,7.5109,7.5863,7.666,7.6771,7.681,7.6888,7.6882,7.6921,7.6999,7.6999,7.6999,7.6999,7.6999,7.6999,7.6999,7.6999,7.6999,7.6999,7.6999,7.6999,7.6999,7.6999,7.6999,7.6999,7.6999,7.6999,4.9446,5.3017,5.7323,5.9976,6.3969,6.7872,7.032,7.1038,7.1178,7.1166,7.1707,7.2428,7.3304,7.3458,7.3458,7.3483,7.2904,7.2206,7.1429,7.1334,7.1376,7.1513,7.1523,7.1532,7.155,7.1559,7.1547,7.1622,7.1,7.0642,7.0745,7.0752,7.0752,7.0765,7.1388,7.1745,7.1751,7.1758,7.1725,7.1725,7.1725,7.1776,7.1806,7.1881,7.192,7.1901,7.1901,7.1956,7.2014,7.1982,7.1989,7.1992,7.1984,7.1973,7.1969,7.1909,7.1897,7.1891,7.1916,7.187,7.1862,7.1862,7.1887,7.1887,7.1827,7.1817,7.1822,7.1843,7.1833,7.1822,7.1843,7.1887,7.1897,7.192,7.1889,7.1897,7.1881,7.1937,7.1984,7.1984,7.2138,7.2246,7.2193,7.3052,7.3942,7.4433,7.4659,7.4849,7.5001,7.5035,7.5264,7.5902,7.598,7.6242,7.6921,7.6999,7.6999,7.6999,7.6999,7.6999,7.6999,7.6999,7.6999,7.6999,7.6999,7.6999,7.6999,7.6999,7.6999,7.6999,7.6999,7.6999,4.9552,5.2919,5.6889,6.1046,6.5003,6.8231,6.9502,6.981,6.9926,7.035,7.1108,7.1968,7.2829,7.297,7.2983,7.3022,7.2637,7.2096,7.1305,7.1201,7.1236,7.1334,7.1366,7.1425,7.1455,7.1475,7.1513,7.1568,7.0753,7.0274,7.0363,6.9982,6.9749,6.9749,7.0153,7.0627,7.1016,7.1031,7.124,7.1661,7.1661,7.1683,7.1764,7.1838,7.1885,7.1897,7.1905,7.192,7.194,7.1953,7.1963,7.1973,7.1991,7.1992,7.1992,7.1946,7.1939,7.1895,7.1891,7.188,7.1906,7.1888,7.1916,7.1905,7.1854,7.1854,7.185,7.1876,7.1876,7.1872,7.1901,7.1906,7.1881,7.1905,7.1909,7.1913,7.1933,7.1982,7.1987,7.1987,7.2339,7.2609,7.2561,7.2951,7.353,7.4367,7.4133,7.4012,7.4429,7.4507,7.4659,7.5074,7.5148,7.5494,7.6342,7.6414,7.657,7.6965,7.6989,7.6983,7.6983,7.7005,7.6999,7.6999,7.6999,7.6999,7.6999,7.6999,7.6999,7.6999,7.6999,7.6999,4.9798,5.2913,5.6489,6.3129,6.5833,6.7102,6.8127,6.8358,6.8589,6.9281,7.0271,7.1235,7.2014,7.2308,7.236,7.2275,7.2275,7.1993,7.1184,7.1081,7.1106,7.1178,7.112,7.1087,7.1141,7.1066,7.1019,7.1029,7.0215,6.9721,6.9731,6.9033,6.8645,6.8645,6.8837,6.9282,7.0019,7.0024,7.0391,7.109,7.1253,7.1465,7.1661,7.1764,7.1822,7.1877,7.1858,7.1872,7.1876,7.1897,7.187,7.1877,7.1956,7.1969,7.1971,7.1987,7.1952,7.1914,7.1914,7.1911,7.1903,7.19,7.1893,7.1883,7.1883,7.1919,7.1912,7.1888,7.1888,7.1894,7.1901,7.1905,7.1916,7.1891,7.1894,7.1937,7.1984,7.1987,7.1987,7.1987,7.2573,7.308,7.308,7.308,7.3309,7.396,7.3449,7.325,7.3973,7.409,7.4125,7.4277,7.4277,7.4628,7.5482,7.5716,7.6067,7.673,7.6907,7.7014,7.7014,7.6989,7.7017,7.7017,7.7005,7.6999,7.6999,7.6999,7.6999,7.6999,7.6999,7.6999,4.6703,5.1879,5.7949,6.3961,6.5649,6.6225,6.7875,6.822,6.8258,6.8373,6.9739,7.1168,7.1982,7.2683,7.2914,7.2251,7.2136,7.1871,7.112,7.1018,7.1043,7.1106,7.0513,7.01,7.0112,6.9428,6.9026,6.9082,6.8259,6.7778,6.788,6.7763,6.7686,6.7686,6.8354,6.8819,6.8896,6.8906,6.8984,6.91,6.9924,7.0719,7.1426,7.1499,7.1606,7.1738,7.1745,7.1764,7.1794,7.18,7.1811,7.1799,7.1833,7.1842,7.185,7.1891,7.1903,7.1909,7.1891,7.1898,7.1903,7.1912,7.1914,7.1913,7.191,7.1904,7.19,7.1906,7.1903,7.1898,7.1904,7.1941,7.1971,7.1926,7.1924,7.2,7.199,7.1987,7.1987,7.1987,7.2104,7.2182,7.2182,7.2182,7.2221,7.2336,7.2219,7.2219,7.2333,7.2333,7.26,7.3286,7.3364,7.3747,7.4585,7.5365,7.5833,7.595,7.6609,7.6999,7.6999,7.6999,7.6995,7.6995,7.6989,7.6999,7.6999,7.6999,7.6999,7.6999,7.6999,7.6999,4.7482,5.2768,5.7989,6.2962,6.4189,6.4778,6.695,6.6758,6.6504,6.7923,6.8426,6.8929,6.9745,7.0191,7.0345,6.9961,6.9923,6.9798,6.947,6.9446,6.9459,6.9448,6.918,6.8976,6.8976,6.8706,6.8513,6.8538,6.7728,6.7239,6.7274,6.6812,6.6542,6.6542,6.6889,6.7325,6.7861,6.7861,6.8386,6.9385,6.9794,7.0446,7.128,7.1334,7.1426,7.1575,7.1645,7.1668,7.1683,7.1683,7.169,7.1672,7.1706,7.168,7.1686,7.1733,7.1749,7.1755,7.1755,7.1772,7.1788,7.1816,7.1834,7.1844,7.185,7.1854,7.1859,7.1825,7.1868,7.1871,7.1834,7.1874,7.1953,7.1914,7.1913,7.1951,7.1949,7.1973,7.1987,7.1987,7.1987,7.1987,7.1987,7.1987,7.1987,7.1987,7.1987,7.1987,7.1987,7.1987,7.2141,7.2486,7.2525,7.287,7.3761,7.4187,7.4577,7.5049,7.5389,7.5616,7.5616,7.6076,7.634,7.634,7.677,7.6983,7.6983,7.7005,7.6999,7.6999,7.6999,7.6999,4.7127,5.1344,5.5066,5.992,6.1452,6.2462,6.4977,6.4747,6.4555,6.6485,6.6509,6.6394,6.706,6.7726,6.8162,6.8162,6.8162,6.8162,6.8191,6.8191,6.8191,6.8191,6.8042,6.7931,6.7931,6.7779,6.7704,6.7704,6.7076,6.673,6.673,6.6115,6.5769,6.5769,6.5769,6.6103,6.6769,6.6769,6.7577,6.9129,6.9373,6.995,7.0758,7.1014,7.1197,7.1358,7.1454,7.1529,7.1529,7.1529,7.1529,7.1538,7.1525,7.1503,7.1503,7.1513,7.1521,7.1529,7.1612,7.1608,7.1628,7.1692,7.1683,7.1711,7.1711,7.1711,7.1731,7.1733,7.1784,7.1792,7.1744,7.1792,7.1836,7.1839,7.185,7.1862,7.1911,7.1949,7.2006,7.2006,7.2006,7.2004,7.199,7.2,7.2006,7.2006,7.2006,7.2006,7.2006,7.2006,7.2006,7.2006,7.2006,7.2241,7.2905,7.3178,7.3568,7.4154,7.4379,7.4488,7.4488,7.5104,7.5567,7.5801,7.6408,7.6813,7.7014,7.6994,7.6983,7.6983,7.6983,7.6983,4.3273,4.5138,4.7505,5.4154,5.7021,5.8817,6.1301,6.2448,6.3006,6.3174,6.3785,6.4359,6.4397,6.6421,6.8112,6.8112,6.8112,6.8142,6.8177,6.8191,6.8191,6.8191,6.7463,6.695,6.695,6.6221,6.5761,6.5761,6.5685,6.5685,6.5685,6.5646,6.5608,6.5608,6.5608,6.5608,6.5698,6.5698,6.6159,6.7055,6.7969,6.8817,6.9624,7.05,7.0925,7.0952,7.1213,7.1313,7.1313,7.1313,7.1313,7.1313,7.1313,7.1313,7.1324,7.1337,7.1319,7.1329,7.1378,7.1436,7.1436,7.1397,7.1434,7.14,7.14,7.1473,7.1513,7.159,7.1605,7.1612,7.1608,7.1647,7.1683,7.1627,7.1658,7.1753,7.195,7.1992,7.1992,7.1992,7.1992,7.1989,7.1997,7.1982,7.1992,7.1992,7.1992,7.1992,7.1992,7.1992,7.1992,7.1992,7.1992,7.2031,7.207,7.2812,7.332,7.3359,7.4062,7.4492,7.4492,7.453,7.496,7.5781,7.5856,7.6226,7.7004,7.7004,7.7004,7.7004,7.7004,7.7004,4.2288,4.462,4.7302,5.2461,5.5021,5.7084,6.0141,6.1279,6.2015,6.3117,6.2952,6.2607,6.2607,6.4682,6.6376,6.6376,6.6376,6.6277,6.6064,6.6031,6.591,6.5591,6.529,6.5227,6.5503,6.5014,6.4875,6.542,6.5229,6.5198,6.545,6.545,6.545,6.545,6.545,6.5479,6.5537,6.558,6.603,6.6912,6.7247,6.7836,6.868,6.9016,6.9452,6.9951,7.0025,7.0426,7.1056,7.1056,7.1056,7.1056,7.1056,7.1056,7.1056,7.1042,7.1042,7.1055,7.1116,7.1139,7.1151,7.1147,7.1131,7.1153,7.1153,7.1164,7.1186,7.1208,7.1239,7.128,7.13,7.13,7.1308,7.1361,7.134,7.1389,7.1479,7.1612,7.1756,7.1756,7.1756,7.1722,7.1739,7.1729,7.1756,7.1756,7.1756,7.1756,7.1756,7.1756,7.1756,7.1756,7.1756,7.1756,7.1756,7.2029,7.2224,7.2224,7.2497,7.2656,7.2656,7.3164,7.3867,7.4762,7.5316,7.6089,7.7048,7.7002,7.6998,7.6998,7.6998,7.6998,4.0012,4.2508,4.5409,4.9515,5.1612,5.3771,5.7824,5.8992,5.966,6.1379,6.1467,6.1281,6.1281,6.2851,6.4144,6.4144,6.4144,6.4061,6.3817,6.4008,6.4049,6.3723,6.3946,6.4196,6.452,6.4254,6.4426,6.5134,6.4968,6.4985,6.5398,6.5413,6.5413,6.5413,6.5413,6.5405,6.5465,6.5509,6.5829,6.6418,6.6686,6.7146,6.7721,6.7989,6.8372,6.8908,6.8908,6.9649,7.0829,7.0829,7.0829,7.0829,7.0829,7.0829,7.0829,7.0829,7.0829,7.0829,7.0885,7.0898,7.0912,7.0914,7.0888,7.0888,7.0888,7.0888,7.0888,7.0915,7.0953,7.1004,7.1029,7.1026,7.1023,7.1108,7.1108,7.1081,7.1087,7.1279,7.1471,7.1471,7.1471,7.1471,7.1471,7.1471,7.1471,7.1471,7.1471,7.1471,7.1471,7.1471,7.1471,7.1471,7.1471,7.1471,7.1471,7.1471,7.1471,7.1471,7.1471,7.1471,7.1471,7.2022,7.2879,7.4041,7.4632,7.5562,7.6828,7.6905,7.6912,7.6912,7.6912,7.6912,0.0,0.0,0.0,4.494,4.6581,4.8713,5.4021,5.5344,5.5925,5.7543,5.9196,6.0342,6.0379,6.1055,6.16,6.16,6.1657,6.1694,6.1694,6.2351,6.2839,6.282,6.3513,6.3981,6.4001,6.4019,6.4254,6.4719,6.4775,6.4968,6.5398,6.5413,6.5413,6.5413,6.5413,6.5413,6.5413,6.5413,6.5413,6.5413,6.6254,6.6674,6.6713,6.7477,6.7821,6.7859,6.7859,6.8908,7.0631,7.0631,7.0631,7.0631,7.0631,7.0631,7.0708,7.0669,7.0669,7.0708,7.0708,7.0708,7.0708,7.0708,7.0708,7.0708,7.0708,7.0708,7.0684,7.0758,7.0787,7.0801,7.0871,7.0885,7.0885,7.0885,7.0885,7.0885,7.0885,7.1047,7.1165,7.1174,7.1174,7.1174,7.1174,7.1174,7.1174,7.1174,7.1174,7.1174,7.1174,7.1174,7.1174,7.1174,7.1174,7.1174,7.1174,7.1174,7.1174,7.1174,7.1174,7.1174,7.1174,7.1174,7.1989,7.3723,7.3762,7.4576,7.6242,7.6605,7.68,7.68,7.68,7.68,3.7176,0.0,0.0,0.0,0.0,0.0,4.8716,5.0541,5.2245,5.4503,5.5558,5.6425,5.7608,5.8495,5.9013,5.9013,6.0513,6.1598,6.1293,6.1475,6.1459,6.1143,6.1283,6.1567,6.1917,6.2153,6.2737,6.3868,6.4143,6.4612,6.5345,6.5413,6.5413,6.5413,6.5413,6.5413,6.5413,6.5413,6.5413,6.5413,6.5643,6.5757,6.5757,6.5987,6.6445,6.7018,6.7018,6.7661,6.8663,6.8663,6.9046,6.9543,6.8931,6.9428,7.0407,6.9849,6.9986,7.0483,7.0483,7.0483,7.0483,7.0483,7.0483,7.0483,7.0483,7.0483,7.0499,7.0515,7.0515,7.0531,7.0547,7.0562,7.0562,7.0562,7.0562,7.0562,7.0562,7.0593,7.0714,7.0953,7.0991,7.0991,7.0991,7.0991,7.0991,7.0991,7.0991,7.0991,7.0991,7.0991,7.0991,7.0991,7.0991,7.0991,7.0991,7.0991,7.0991,7.0991,7.0991,7.0991,7.0991,7.0991,7.1493,7.2624,7.2662,7.3472,7.5131,7.6002,7.6432,7.6432,7.6432,7.6432,3.8414,3.9757,4.1531,4.1907,0.0,0.0,4.6898,4.7981,4.9158,5.1989,5.3027,5.3775,5.506,5.5978,5.6602,5.6932,5.8508,5.969,5.9797,6.0085,6.0194,5.9929,6.0199,6.0501,6.0802,6.0953,6.1513,6.2484,6.2758,6.3237,6.4073,6.4627,6.4879,6.4879,6.5222,6.5413,6.5413,6.5413,6.5413,6.5413,6.5413,6.5413,6.5413,6.5413,6.5681,6.6178,6.6178,6.6407,6.6865,6.6865,6.7553,6.8623,6.8088,6.8508,6.9311,6.8814,6.8967,6.9349,6.9349,6.9616,6.9884,6.9884,7.0151,7.0419,7.0419,7.019,6.996,7.0304,7.0419,7.0419,7.0419,7.0419,7.0419,7.0419,7.0419,7.0419,7.0419,7.0419,7.0467,7.0631,7.0714,7.0714,7.0714,7.0714,7.0714,7.0714,7.0714,7.0714,7.0714,7.0714,7.0714,7.0714,7.0714,7.0714,7.0714,7.0714,7.0714,7.0714,7.0714,7.0714,7.0714,7.0714,7.1098,7.198,7.198,7.2632,7.3975,7.5105,7.5809,7.6118,7.6118,7.6118,4.0061,4.106,4.2628,4.3478,4.2897,0.0,4.6673,4.6617,4.6581,4.9407,5.0618,5.1499,5.247,5.3335,5.4142,5.4913,5.5904,5.6895,5.785,5.8621,5.9074,5.9074,5.9722,6.0126,6.0126,6.0199,6.0448,6.0942,6.1103,6.1477,6.2205,6.3296,6.3925,6.3993,6.4795,6.5192,6.5108,6.5299,6.5322,6.5199,6.5322,6.5329,6.5267,6.5298,6.5329,6.5329,6.5329,6.5329,6.5329,6.5329,6.63,6.7744,6.7668,6.7744,6.7897,6.7782,6.7821,6.7897,6.7897,6.8394,6.9043,6.9043,6.954,7.0113,7.0113,6.9616,6.9196,6.9922,7.019,7.0266,7.0266,7.0342,7.0419,7.0419,7.0419,7.0419,7.0419,7.0419,7.0419,7.0419,7.0419,7.0419,7.0419,7.0419,7.0419,7.0419,7.0419,7.0419,7.0419,7.0419,7.0419,7.0419,7.0419,7.0419,7.0419,7.0419,7.0419,7.0419,7.0419,7.0419,7.0419,7.0419,7.0763,7.1527,7.1642,7.2062,7.2864,7.4067,7.5009,7.5725,7.5802,7.584,4.2745,4.3705,4.5032,4.3078,4.4319,0.0,4.302,4.3737,4.4929,4.4929,4.5553,4.6764,4.8893,4.9958,5.0802,5.161,5.3518,5.5611,5.7703,5.8143,5.8217,5.8217,5.8364,5.8474,5.8474,5.9061,5.9638,6.011,6.1042,6.1656,6.1808,6.2051,6.2345,6.2656,6.3508,6.3791,6.3388,6.4726,6.4893,6.3892,6.4908,6.5014,6.4388,6.4757,6.4934,6.4934,6.4934,6.4934,6.4934,6.4934,6.571,6.6865,6.6178,6.6713,6.7821,6.7171,6.7324,6.7897,6.7897,6.8012,6.8126,6.8126,6.8241,6.8394,6.8394,6.8279,6.8203,6.8356,6.889,6.9425,6.9425,6.9922,7.0419,7.0419,7.0419,7.0419,7.0419,7.0419,7.0419,7.0419,7.0419,7.0419,7.0419,7.0419,7.0419,7.0419,7.0419,7.0419,7.0419,7.0419,7.0419,7.0419,7.0419,7.0419,7.0419,7.0419,7.0419,7.0419,7.0419,7.0419,7.0419,7.0419,7.0495,7.0648,7.1336,7.1756,7.1947,7.3543,7.438,7.4533,7.526,7.5583,4.5046,4.5173,4.5987,4.5442,4.5296,0.0,0.0,4.3774,4.3828,4.5039,4.4672,4.4856,4.7278,4.7719,4.8159,4.937,5.1279,5.3151,5.4766,5.6381,5.7409,5.7409,5.7409,5.7409,5.7409,5.8143,5.8699,5.891,5.9715,6.0145,6.0145,6.0905,6.1458,6.1646,6.2683,6.3045,6.2626,6.3426,6.3626,6.3219,6.3416,6.3763,6.4096,6.3917,6.4087,6.4445,6.4445,6.4445,6.4445,6.4445,6.484,6.5343,6.4926,6.5267,6.5968,6.5533,6.5646,6.6005,6.6005,6.6309,6.665,6.665,6.6915,6.7275,6.7275,6.7275,6.7197,6.703,6.7576,6.8295,6.8515,6.9158,6.972,6.9497,6.9766,7.0055,6.9778,6.974,6.9834,7.0073,7.0109,7.0161,7.0386,7.0419,7.0419,7.0419,7.0419,7.0419,7.0419,7.0419,7.0419,7.0419,7.0419,7.0419,7.0419,7.0419,7.0419,7.0419,7.0419,7.0419,7.0419,7.0419,7.0419,7.0419,7.0839,7.1068,7.1068,7.2329,7.317,7.3628,7.4049,7.424,4.7498,4.7058,4.7425,4.7939,4.6728,4.5516,0.0,0.0,0.0,4.5535,4.4378,4.3681,4.5792,4.5516,4.5443,4.6911,4.8673,5.0068,5.0729,5.3482,5.5537,5.5831,5.6161,5.6418,5.6565,5.7005,5.7483,5.796,5.7898,5.7979,5.8461,5.9721,6.0446,6.0554,6.1712,6.2102,6.1713,6.2015,6.2237,6.2308,6.1881,6.2273,6.3364,6.2793,6.2983,6.375,6.375,6.3862,6.3975,6.3975,6.3913,6.385,6.4016,6.4096,6.4096,6.4096,6.4096,6.4096,6.4096,6.4547,6.5168,6.5168,6.5581,6.6128,6.6128,6.6128,6.6039,6.5729,6.6275,6.7031,6.733,6.8045,6.8586,6.8224,6.8679,6.9092,6.8688,6.8624,6.873,6.9112,6.919,6.9436,7.026,7.0419,7.0419,7.0419,7.0419,7.0419,7.0419,7.0419,7.0419,7.0419,7.0419,7.0419,7.0419,7.0266,7.0228,7.0381,7.0266,7.0228,7.0381,7.0419,7.0419,7.0419,7.0419,7.0419,7.0419,7.1107,7.1909,7.275,7.2902,7.2979,5.0912,5.1279,5.1516,4.8103,4.9681,5.0472,4.4268,0.0,4.4782,4.2269,0.0,4.1682,4.2653,0.0,0.0,4.2837,4.4929,4.6507,4.6581,4.8802,5.0969,5.238,5.3812,5.495,5.5647,5.517,5.5684,5.785,5.6059,5.5809,5.7941,5.8215,5.8517,5.8842,5.9743,5.9998,5.9552,6.1037,6.1221,6.0136,6.1219,6.1409,6.083,6.1174,6.172,6.2501,6.2501,6.291,6.358,6.358,6.3308,6.3038,6.3787,6.4096,6.4096,6.4096,6.4096,6.4096,6.4096,6.4172,6.4247,6.4247,6.4322,6.4397,6.4397,6.4397,6.4359,6.4344,6.4928,6.5625,6.5665,6.6307,6.6872,6.6831,6.6886,6.6941,6.69,6.6879,6.69,6.6941,6.6962,6.7711,6.9997,7.0419,7.0419,7.0419,7.0419,7.0419,7.0419,7.0419,7.0419,7.0419,7.0419,7.0419,7.0419,6.9769,6.9655,7.0342,6.9731,6.9655,7.0381,7.0419,7.0419,7.0419,7.0419,7.0419,7.0419,7.0495,7.0992,7.1871,7.2635,7.2979,5.1316,5.1646,5.1977,4.9811,4.9811,4.9444,4.5902,4.4782,4.4378,4.3975,0.0,0.0,0.0,0.0,0.0,0.0,4.3167,4.3828,4.3828,4.513,4.7187,5.0178,5.1169,5.2087,5.3371,5.3628,5.4142,5.5133,5.4289,5.4546,5.6492,5.7272,5.7952,5.8586,5.9186,5.9266,5.887,5.9562,5.9748,5.9471,5.9529,5.9841,6.0382,6.0116,6.0453,6.1191,6.1191,6.1412,6.1708,6.1708,6.1566,6.1471,6.2327,6.2932,6.3354,6.3354,6.3354,6.3354,6.3354,6.3354,6.3354,6.3354,6.3354,6.3354,6.3354,6.3354,6.3385,6.3674,6.4022,6.4348,6.4599,6.5281,6.582,6.5543,6.5873,6.618,6.5919,6.5848,6.5942,6.6202,6.6269,6.6652,6.7959,6.8206,6.8206,6.8206,6.8206,6.8206,6.8206,6.8206,6.8206,6.8206,6.8206,6.8206,6.8206,6.8124,6.8247,6.859,6.8967,6.9349,6.9693,7.0151,7.0419,7.0419,7.0419,7.0419,7.0419,7.0419,7.061,7.0954,7.1336,7.1489,5.2234,5.238,5.2527,5.0618,4.937,4.8196,4.6507,4.5259,4.4635,4.5149,4.4378,0.0,0.0,0.0,4.1809,4.1956,0.0,4.2213,4.1992,4.247,4.4085,4.7462,4.8673,4.9794,5.1226,5.1463,5.1883,5.2821,5.2234,5.2858,5.5133,5.6325,5.727,5.8085,5.8598,5.873,5.8455,5.8455,5.8556,5.8854,5.829,5.8621,5.9722,5.9134,5.9318,6.0089,6.0089,6.0199,6.0419,6.0419,6.0419,6.0456,6.1043,6.163,6.2218,6.2633,6.278,6.278,6.278,6.278,6.278,6.278,6.278,6.278,6.278,6.278,6.288,6.3228,6.3285,6.3377,6.3674,6.423,6.4591,6.4244,6.4678,6.5027,6.468,6.4604,6.4731,6.5051,6.5147,6.5227,6.5515,6.6132,6.6599,6.6599,6.6599,6.6599,6.6599,6.6599,6.6599,6.6599,6.6599,6.6599,6.6599,6.6709,6.6787,6.6787,6.7858,6.851,6.851,6.9026,6.9482,6.9711,6.9711,6.9898,7.023,7.023,7.0281,7.0419,7.0419,7.0419,5.473,5.4876,5.4326,4.9591,4.8967,4.8509,4.4543,4.5369,4.6342,4.4048,4.5369,4.6232,4.3938,4.3478,4.291,4.1389,4.1809,0.0,0.0,4.1168,4.1792,4.3515,4.6434,4.8673,4.961,4.8233,4.8617,5.1793,4.9811,5.0215,5.4216,5.5229,5.6037,5.6844,5.7638,5.8042,5.802,5.802,5.802,5.8033,5.7997,5.8033,5.807,5.8033,5.8474,5.9221,5.9221,5.9661,6.0419,6.0419,6.0419,6.0419,6.0419,6.0456,6.0676,6.2254,6.278,6.278,6.278,6.278,6.278,6.278,6.278,6.278,6.278,6.278,6.2805,6.2805,6.2805,6.283,6.283,6.2855,6.2867,6.2867,6.2879,6.2879,6.2879,6.2853,6.2879,6.2879,6.2903,6.2903,6.2928,6.4964,6.6599,6.6599,6.6599,6.6599,6.6599,6.6599,6.6599,6.6599,6.6599,6.6599,6.6599,6.5902,6.5451,6.5451,6.6223,6.6657,6.6657,6.6715,6.7109,6.7952,6.799,6.8573,6.9835,6.9835,7.0038,7.0419,7.0419,7.0419,5.5229,5.5794,5.55,5.1683,5.0582,4.9444,4.5883,4.614,4.6415,4.3975,4.5443,4.6342,4.3938,4.3057,4.2543,4.1992,4.1222,4.0598,0.0,4.0304,4.0524,4.1038,4.3975,4.5406,4.4085,4.5406,4.6544,4.7131,4.7369,4.9077,5.2601,5.4069,5.5427,5.6748,5.7593,5.7997,5.7997,5.7997,5.7997,5.7997,5.7997,5.7997,5.7997,5.7997,5.8143,5.84,5.84,5.8547,5.8804,5.8804,5.8804,5.8877,5.9391,5.9588,5.9758,6.0823,6.1557,6.2071,6.2622,6.278,6.278,6.278,6.278,6.278,6.278,6.278,6.278,6.278,6.278,6.278,6.278,6.278,6.278,6.278,6.278,6.278,6.278,6.278,6.278,6.278,6.278,6.278,6.278,6.3505,6.4099,6.4099,6.4099,6.4099,6.4099,6.4099,6.4099,6.4099,6.4099,6.4099,6.4099,6.4115,6.4236,6.4527,6.5356,6.5807,6.5807,6.6316,6.6729,6.703,6.703,6.7242,6.7668,6.7668,6.7748,6.7884,6.7884,6.866,5.539,5.5955,5.5779,5.2857,5.1888,5.0729,4.7131,4.7425,4.77,4.5242,4.5993,4.6874,4.6103,4.4435,4.315,4.3098,4.1776,4.0451,0.0,3.9717,3.979,3.9496,4.1809,4.293,4.1645,4.2873,4.4011,4.4654,4.5406,4.7241,5.0508,5.2784,5.4583,5.5904,5.7262,5.7997,5.7997,5.7997,5.7997,5.7997,5.7997,5.7997,5.7997,5.7997,5.7997,5.7997,5.7997,5.7973,5.7927,5.7927,5.7927,5.7964,5.8514,5.8721,5.8914,6.0015,6.0896,6.1667,6.2181,6.2585,6.278,6.278,6.278,6.278,6.278,6.278,6.278,6.278,6.278,6.278,6.278,6.278,6.278,6.278,6.278,6.278,6.278,6.278,6.278,6.278,6.278,6.278,6.278,6.278,6.278,6.278,6.278,6.278,6.278,6.278,6.278,6.278,6.278,6.278,6.278,6.3062,6.3354,6.3631,6.4137,6.4494,6.4494,6.4964,6.5374,6.571,6.571,6.5911,6.6384,6.6384,6.647,6.6599,6.6599,6.7242]}]]